[[{"header":{"parameterUnit":"m.s-1","parameterCategory":1,"la1":30.6,"la2":29.2853,"lo1":-89.7004,"lo2":-87.6739,"dy":0.0162,"dx":0.0183,"nx":112,"ny":82,"refTime":"2023-04-06T12:00:00:Z","depth":0,"parameterNumber":2,"parameterNumberName":"U-component_of_WINDS"},"data":[0.0,0.0,0.0,0.0,0.0,0.0,0.0,0.0,0.0,0.0,0.0,0.0,0.0,0.0,0.0,0.0,0.0,0.0,0.0,0.0,0.0,0.0,0.0,0.0,0.0,0.0,0.0,0.0,0.0,0.0,0.0,0.0,0.0,0.0,0.0,0.0,0.0,0.0,0.0,0.0,0.0,0.0,0.0,0.0,0.0,0.0,0.0,0.0,0.0,0.0,0.0,0.0,0.0,0.0,0.0,0.0,0.0,0.0,0.0,0.0,0.0,0.0,0.0,0.0,0.0,0.0,0.0,0.0,0.0,0.0,0.0,0.0,0.0,0.0,0.0,0.0,0.0,0.0,0.0,0.0,0.0,0.0,0.0,0.0,0.0,0.0,0.0,0.0,0.0,0.0,0.0,2.9794,3.0126,3.0469,3.0859,3.0898,3.0898,3.0898,0.0,0.0,0.0,0.0,0.0,0.0,0.0,0.0,0.0,0.0,0.0,0.0,0.0,0.0,0.0,0.0,0.0,0.0,0.0,0.0,0.0,0.0,0.0,0.0,0.0,0.0,0.0,0.0,0.0,0.0,0.0,0.0,0.0,0.0,0.0,0.0,0.0,0.0,0.0,0.0,0.0,0.0,0.0,0.0,0.0,0.0,0.0,0.0,0.0,0.0,0.0,0.0,0.0,0.0,0.0,0.0,0.0,0.0,0.0,0.0,0.0,0.0,0.0,0.0,0.0,0.0,0.0,0.0,0.0,0.0,0.0,0.0,0.0,0.0,0.0,0.0,0.0,0.0,0.0,0.0,0.0,0.0,0.0,0.0,0.0,0.0,0.0,0.0,0.0,0.0,0.0,0.0,0.0,0.0,0.0,0.0,0.0,0.0,0.0,0.0,0.0,0.0,0.0,0.0,3.0254,3.0644,3.0742,3.082,3.0879,3.0898,3.0898,3.0898,0.0,0.0,0.0,0.0,0.0,0.0,0.0,0.0,0.0,0.0,0.0,0.0,0.0,0.0,0.0,0.0,0.0,0.0,0.0,0.0,0.0,0.0,0.0,0.0,0.0,0.0,0.0,0.0,0.0,0.0,0.0,0.0,0.0,0.0,0.0,0.0,0.0,0.0,0.0,0.0,0.0,0.0,0.0,0.0,0.0,0.0,0.0,0.0,0.0,0.0,0.0,0.0,0.0,0.0,0.0,0.0,0.0,0.0,0.0,0.0,0.0,0.0,0.0,0.0,0.0,0.0,0.0,0.0,0.0,0.0,0.0,0.0,0.0,0.0,0.0,0.0,0.0,0.0,0.0,0.0,0.0,0.0,0.0,0.0,0.0,0.0,0.0,0.0,0.0,0.0,0.0,0.0,0.0,0.0,0.0,0.0,0.0,0.0,0.0,0.0,0.0,0.0,0.0,3.0566,3.0644,3.0859,3.0898,3.0976,3.1211,3.123,3.123,3.123,3.123,0.0,0.0,0.0,0.0,0.0,0.0,0.0,0.0,0.0,0.0,0.0,0.0,0.0,0.0,0.0,0.0,0.0,0.0,0.0,0.0,0.0,0.0,0.0,0.0,0.0,0.0,0.0,0.0,0.0,0.0,0.0,0.0,0.0,0.0,0.0,0.0,0.0,0.0,0.0,0.0,0.0,0.0,0.0,0.0,0.0,0.0,0.0,0.0,0.0,0.0,0.0,0.0,0.0,0.0,0.0,0.0,0.0,0.0,0.0,0.0,0.0,0.0,0.0,0.0,0.0,0.0,0.0,0.0,0.0,0.0,0.0,0.0,0.0,0.0,0.0,0.0,0.0,0.0,0.0,0.0,0.0,0.0,0.0,0.0,0.0,0.0,0.0,0.0,0.0,0.0,0.0,0.0,0.0,0.0,0.0,0.0,0.0,0.0,0.0,0.0,0.0,0.0,3.1133,3.1221,3.1221,3.1221,3.1328,3.1641,3.168,3.168,3.168,3.168,0.0,0.0,0.0,0.0,0.0,0.0,0.0,0.0,0.0,0.0,0.0,0.0,0.0,0.0,0.0,0.0,0.0,0.0,0.0,0.0,0.0,0.0,0.0,0.0,0.0,0.0,0.0,0.0,0.0,0.0,0.0,0.0,0.0,0.0,0.0,0.0,0.0,0.0,0.0,0.0,0.0,0.0,0.0,0.0,0.0,0.0,0.0,0.0,0.0,0.0,0.0,0.0,0.0,0.0,0.0,0.0,0.0,0.0,0.0,0.0,0.0,0.0,0.0,0.0,0.0,0.0,0.0,0.0,0.0,0.0,0.0,0.0,0.0,0.0,0.0,0.0,0.0,0.0,0.0,0.0,0.0,0.0,0.0,0.0,0.0,0.0,0.0,0.0,0.0,0.0,0.0,0.0,0.0,0.0,0.0,0.0,0.0,0.0,0.0,0.0,0.0,0.0,3.1836,3.212,3.212,3.212,3.212,3.2159,3.2159,3.2159,3.2159,3.2159,0.0,0.0,0.0,0.0,0.0,0.0,0.0,0.0,0.0,0.0,0.0,0.0,0.0,0.0,0.0,0.0,0.0,0.0,0.0,0.0,0.0,0.0,0.0,0.0,0.0,0.0,0.0,0.0,0.0,0.0,0.0,0.0,0.0,0.0,0.0,0.0,0.0,0.0,0.0,0.0,0.0,0.0,0.0,0.0,0.0,0.0,0.0,0.0,0.0,0.0,0.0,0.0,0.0,0.0,0.0,0.0,0.0,0.0,0.0,0.0,0.0,0.0,0.0,0.0,0.0,0.0,0.0,0.0,0.0,0.0,0.0,0.0,0.0,0.0,0.0,0.0,0.0,0.0,0.0,0.0,0.0,0.0,0.0,0.0,0.0,0.0,0.0,0.0,0.0,0.0,0.0,0.0,0.0,0.0,0.0,0.0,0.0,0.0,0.0,0.0,0.0,0.0,3.2101,3.2198,0.0,3.2198,3.2316,3.2539,3.2559,3.2559,3.2559,0.0,0.0,0.0,0.0,0.0,0.0,0.0,0.0,0.0,0.0,0.0,0.0,0.0,0.0,0.0,0.0,0.0,0.0,0.0,0.0,0.0,0.0,0.0,0.0,0.0,0.0,0.0,0.0,0.0,0.0,0.0,0.0,0.0,0.0,0.0,0.0,0.0,0.0,0.0,0.0,0.0,0.0,0.0,0.0,0.0,0.0,0.0,0.0,0.0,0.0,0.0,0.0,0.0,0.0,0.0,0.0,0.0,0.0,0.0,0.0,0.0,0.0,0.0,0.0,0.0,0.0,0.0,0.0,0.0,0.0,0.0,0.0,0.0,0.0,0.0,0.0,0.0,0.0,0.0,0.0,0.0,0.0,0.0,0.0,0.0,0.0,0.0,0.0,0.0,0.0,0.0,0.0,0.0,0.0,0.0,0.0,0.0,0.0,0.0,0.0,0.0,0.0,3.2394,3.2511,3.2559,0.0,3.2559,3.2676,3.2969,3.2988,3.2988,3.2988,0.0,0.0,0.0,0.0,0.0,0.0,0.0,0.0,0.0,0.0,0.0,0.0,0.0,0.0,0.0,0.0,0.0,0.0,0.0,0.0,0.0,0.0,0.0,0.0,0.0,0.0,0.0,0.0,0.0,0.0,0.0,0.0,0.0,0.0,0.0,0.0,0.0,0.0,0.0,0.0,0.0,0.0,0.0,0.0,0.0,0.0,0.0,0.0,0.0,0.0,0.0,0.0,0.0,0.0,0.0,0.0,0.0,0.0,0.0,0.0,0.0,0.0,0.0,0.0,0.0,0.0,0.0,0.0,0.0,0.0,0.0,0.0,0.0,0.0,0.0,0.0,0.0,0.0,0.0,0.0,0.0,0.0,0.0,0.0,0.0,0.0,0.0,0.0,0.0,0.0,0.0,0.0,0.0,0.0,0.0,0.0,0.0,0.0,0.0,0.0,0.0,0.0,3.2793,3.3164,3.3386,3.3386,3.3386,3.3386,3.3386,3.3386,3.3386,0.0,0.0,0.0,0.0,0.0,0.0,0.0,0.0,0.0,0.0,0.0,0.0,0.0,0.0,0.0,0.0,0.0,0.0,0.0,0.0,0.0,0.0,0.0,0.0,0.0,0.0,0.0,0.0,0.0,0.0,0.0,0.0,0.0,0.0,0.0,0.0,0.0,0.0,0.0,0.0,0.0,0.0,0.0,0.0,0.0,0.0,0.0,0.0,0.0,0.0,0.0,0.0,0.0,0.0,0.0,0.0,0.0,0.0,0.0,0.0,0.0,0.0,0.0,0.0,0.0,0.0,0.0,0.0,0.0,0.0,0.0,0.0,0.0,0.0,0.0,0.0,0.0,0.0,0.0,0.0,0.0,0.0,0.0,0.0,0.0,0.0,0.0,0.0,0.0,0.0,0.0,0.0,0.0,0.0,0.0,0.0,0.0,0.0,0.0,0.0,0.0,0.0,0.0,3.3211,3.3308,3.3386,3.3386,3.3386,3.3386,3.3386,3.3386,3.3386,3.3386,0.0,0.0,0.0,0.0,0.0,0.0,0.0,0.0,0.0,0.0,0.0,0.0,0.0,0.0,0.0,0.0,0.0,0.0,0.0,0.0,0.0,0.0,0.0,0.0,0.0,0.0,0.0,0.0,0.0,0.0,0.0,0.0,0.0,0.0,0.0,0.0,0.0,0.0,0.0,0.0,0.0,0.0,0.0,0.0,0.0,0.0,0.0,0.0,0.0,0.0,0.0,0.0,0.0,0.0,0.0,0.0,0.0,0.0,0.0,0.0,0.0,0.0,0.0,0.0,0.0,0.0,0.0,0.0,0.0,0.0,0.0,0.0,0.0,0.0,0.0,0.0,0.0,0.0,0.0,0.0,0.0,0.0,0.0,0.0,0.0,0.0,0.0,0.0,0.0,0.0,0.0,0.0,0.0,0.0,0.0,0.0,0.0,0.0,0.0,0.0,0.0,0.0,3.3386,3.3386,3.3386,3.3386,3.3386,3.3386,3.3386,3.3386,3.3386,3.3386,0.0,0.0,0.0,0.0,0.0,0.0,0.0,0.0,0.0,0.0,0.0,0.0,0.0,0.0,0.0,0.0,0.0,0.0,0.0,0.0,0.0,0.0,0.0,0.0,0.0,0.0,0.0,0.0,0.0,0.0,0.0,0.0,0.0,0.0,0.0,0.0,0.0,0.0,0.0,0.0,0.0,0.0,0.0,0.0,0.0,0.0,0.0,0.0,0.0,0.0,0.0,0.0,0.0,0.0,0.0,0.0,0.0,0.0,0.0,0.0,0.0,0.0,0.0,0.0,0.0,0.0,0.0,0.0,0.0,0.0,0.0,0.0,0.0,0.0,0.0,0.0,0.0,0.0,0.0,0.0,0.0,0.0,0.0,0.0,0.0,0.0,0.0,0.0,0.0,0.0,0.0,0.0,0.0,0.0,0.0,0.0,0.0,0.0,0.0,0.0,0.0,0.0,3.3386,3.3386,3.3386,3.3386,3.3386,3.3386,3.3386,3.3386,3.3386,3.3386,0.0,0.0,0.0,0.0,0.0,0.0,0.0,0.0,0.0,0.0,0.0,0.0,0.0,0.0,0.0,0.0,0.0,0.0,0.0,0.0,0.0,0.0,0.0,0.0,0.0,0.0,0.0,0.0,0.0,0.0,0.0,0.0,0.0,0.0,0.0,0.0,0.0,0.0,0.0,0.0,0.0,0.0,0.0,0.0,0.0,0.0,0.0,0.0,0.0,0.0,0.0,0.0,0.0,0.0,0.0,0.0,0.0,0.0,0.0,0.0,2.8651,0.0,0.0,0.0,0.0,0.0,0.0,0.0,0.0,0.0,0.0,0.0,0.0,0.0,0.0,0.0,0.0,0.0,0.0,0.0,0.0,0.0,0.0,0.0,0.0,0.0,0.0,0.0,0.0,0.0,0.0,0.0,0.0,0.0,0.0,0.0,0.0,0.0,0.0,0.0,0.0,0.0,3.3386,3.3386,3.3386,3.3386,3.3386,3.3386,3.3386,3.3386,3.3386,3.3386,0.0,0.0,0.0,0.0,0.0,0.0,0.0,0.0,0.0,0.0,0.0,0.0,0.0,0.0,0.0,0.0,0.0,0.0,0.0,0.0,0.0,0.0,0.0,0.0,0.0,0.0,0.0,0.0,0.0,0.0,0.0,0.0,0.0,0.0,0.0,0.0,0.0,0.0,0.0,0.0,0.0,0.0,0.0,0.0,0.0,0.0,0.0,0.0,0.0,0.0,0.0,0.0,0.0,0.0,0.0,0.0,0.0,0.0,0.0,0.0,0.0,2.8792,0.0,0.0,0.0,0.0,0.0,0.0,0.0,0.0,0.0,0.0,0.0,0.0,0.0,0.0,0.0,0.0,0.0,0.0,0.0,0.0,0.0,0.0,0.0,0.0,0.0,0.0,0.0,0.0,0.0,0.0,0.0,0.0,0.0,0.0,0.0,0.0,0.0,0.0,0.0,0.0,3.3386,3.3386,3.3386,3.3386,3.3386,3.3386,3.3386,3.3386,3.3386,3.3386,3.3386,0.0,0.0,0.0,0.0,0.0,0.0,0.0,0.0,0.0,0.0,0.0,0.0,0.0,0.0,0.0,0.0,0.0,0.0,0.0,0.0,0.0,0.0,0.0,0.0,0.0,0.0,0.0,0.0,0.0,0.0,0.0,0.0,0.0,0.0,0.0,0.0,0.0,0.0,0.0,0.0,0.0,0.0,0.0,0.0,0.0,0.0,0.0,0.0,0.0,0.0,0.0,0.0,0.0,2.9438,2.9601,2.9948,2.9718,2.9327,2.8831,2.8949,2.9112,2.9338,2.9922,0.0,0.0,0.0,0.0,0.0,0.0,0.0,0.0,0.0,0.0,0.0,0.0,0.0,0.0,0.0,0.0,0.0,0.0,0.0,0.0,0.0,0.0,0.0,0.0,3.3386,3.332,0.0,0.0,0.0,0.0,0.0,0.0,0.0,0.0,0.0,0.0,0.0,0.0,3.3601,3.3652,3.3652,3.3652,3.3652,3.3652,3.3652,3.3652,3.3652,3.3652,3.3652,3.3652,0.0,0.0,0.0,0.0,0.0,0.0,0.0,0.0,0.0,0.0,0.0,0.0,0.0,0.0,0.0,0.0,0.0,0.0,0.0,0.0,0.0,0.0,0.0,0.0,0.0,0.0,0.0,0.0,0.0,0.0,0.0,0.0,2.6866,2.7628,0.0,0.0,0.0,0.0,0.0,0.0,0.0,0.0,0.0,0.0,0.0,0.0,0.0,2.9728,3.0021,2.9336,2.9024,2.9082,2.8728,2.8589,2.8681,2.9305,2.9368,2.8972,2.9005,0.0,2.8902,2.9108,0.0,0.0,0.0,0.0,0.0,0.0,0.0,0.0,0.0,0.0,0.0,0.0,0.0,0.0,0.0,0.0,0.0,0.0,0.0,0.0,0.0,0.0,3.1965,3.3128,3.3386,3.3367,0.0,3.3347,3.3386,3.3386,3.3386,0.0,0.0,0.0,0.0,0.0,0.0,0.0,3.4492,3.4531,3.4531,3.4531,3.4531,3.4531,3.4531,3.4531,3.4531,3.4531,3.4531,3.4531,3.4531,3.4531,0.0,0.0,0.0,0.0,0.0,0.0,0.0,0.0,0.0,0.0,0.0,0.0,0.0,0.0,0.0,0.0,0.0,0.0,0.0,0.0,0.0,0.0,0.0,0.0,0.0,0.0,0.0,0.0,0.0,2.7205,2.7458,2.8303,2.8325,2.8619,0.0,0.0,0.0,0.0,0.0,0.0,0.0,0.0,0.0,2.9609,3.0098,3.0171,2.9899,2.9734,2.9658,2.9658,2.9504,2.9415,2.9415,2.9764,2.9837,2.9672,2.9672,2.9631,2.9557,2.9174,2.9424,3.0181,0.0,0.0,0.0,0.0,3.0331,3.0284,2.9783,2.9615,0.0,3.0193,0.0,0.0,0.0,0.0,0.0,0.0,0.0,0.0,0.0,0.0,3.259,3.3569,3.3965,3.3831,3.2772,3.2576,3.2795,0.0,3.3789,3.3867,3.4101,0.0,0.0,0.0,0.0,3.4492,3.4668,3.4707,3.4707,3.4707,3.4707,3.4707,3.4707,3.4707,3.4707,3.4707,3.4707,3.4707,3.4707,3.4707,3.4707,0.0,0.0,0.0,0.0,0.0,0.0,0.0,0.0,0.0,0.0,0.0,0.0,0.0,0.0,0.0,0.0,0.0,0.0,0.0,0.0,0.0,0.0,0.0,0.0,0.0,0.0,0.0,0.0,2.7558,2.781,2.8673,2.8757,2.9044,0.0,0.0,0.0,0.0,0.0,0.0,3.0266,3.0572,3.0403,2.9781,3.0376,3.0396,2.9758,3.0039,3.0241,3.0351,3.0351,3.0406,3.0497,3.0607,3.0607,3.0497,3.0626,3.0607,3.045,2.9638,2.9498,2.9901,3.0587,3.0957,3.0996,3.076,3.067,3.0619,3.0171,3.0004,3.006,3.0457,3.0618,3.0741,3.0926,0.0,0.0,0.0,0.0,3.0872,3.1217,3.1552,3.1954,3.2642,3.3082,3.2981,3.1584,3.135,3.1787,0.0,3.3538,3.3633,3.394,0.0,0.0,0.0,0.0,3.5117,3.5332,3.5371,3.5371,3.5371,3.5371,3.5371,3.5371,3.5371,3.5371,3.5371,3.5371,3.5312,3.5215,3.5195,3.5156,3.5039,0.0,0.0,0.0,0.0,0.0,0.0,0.0,0.0,0.0,0.0,0.0,0.0,0.0,0.0,0.0,0.0,0.0,0.0,0.0,0.0,0.0,0.0,0.0,0.0,0.0,0.0,0.0,0.0,0.0,2.8604,2.8542,0.0,0.0,0.0,0.0,2.9648,3.0048,3.0276,3.0296,3.026,3.0236,3.0174,3.0211,3.0198,3.0167,3.0185,3.0387,3.0754,3.0754,3.0956,3.1373,3.1726,3.1689,3.1373,3.1744,3.1689,3.1281,3.0486,3.0358,3.0738,3.0788,3.1059,3.1312,3.0823,3.0605,3.0549,3.0116,3.0004,2.9999,3.018,3.0451,3.0711,3.0711,3.1158,0.0,0.0,2.9842,2.9991,2.8877,2.8652,2.8793,2.9169,2.9519,2.9748,2.9644,2.9802,3.0413,0.0,3.1995,3.2013,3.2047,0.0,3.4398,3.3422,3.4773,3.625,3.7051,3.7168,3.7168,3.7168,3.7168,3.7168,3.7168,3.7168,3.7168,3.7168,3.7168,3.6992,3.6616,3.6616,3.6387,3.5923,3.5923,0.0,0.0,0.0,0.0,0.0,0.0,0.0,0.0,0.0,0.0,0.0,0.0,0.0,0.0,0.0,0.0,0.0,0.0,0.0,0.0,0.0,0.0,0.0,0.0,0.0,0.0,0.0,0.0,2.987,2.9275,0.0,2.9719,3.0099,3.0215,3.006,3.0179,3.0232,3.0232,3.0463,3.0699,3.0956,3.1212,3.1488,3.1744,3.1744,3.1818,3.1946,3.1946,3.2019,3.2166,3.2313,3.2294,3.2166,3.2313,3.2294,3.2148,3.1854,3.1524,3.1208,3.1208,3.1281,3.1373,3.1175,3.1096,3.1077,3.0948,3.0893,3.0967,3.1263,3.1589,3.1917,3.1883,3.1317,3.063,3.009,2.9358,2.8673,2.8496,2.8809,2.9279,2.9614,3.0162,3.028,2.9075,2.8875,2.9136,2.9765,3.0535,3.1138,3.1411,3.2013,3.2791,3.3696,3.4424,3.5438,3.707,3.7305,3.7305,3.7305,3.7305,3.7305,3.7305,3.7305,3.7305,3.7305,3.7305,3.7226,3.709,3.707,3.6992,3.6836,3.6836,3.6836,0.0,0.0,0.0,0.0,0.0,0.0,0.0,0.0,0.0,0.0,0.0,0.0,0.0,0.0,0.0,0.0,0.0,0.0,0.0,0.0,0.0,0.0,0.0,0.0,0.0,0.0,2.9083,2.998,2.9556,2.943,3.0014,3.0345,3.0435,3.029,3.047,3.0589,3.0589,3.1102,3.1524,3.1814,3.2203,3.2551,3.2808,3.2936,3.3065,3.3211,3.3211,3.3285,3.3413,3.3413,3.3413,3.3413,3.3413,3.3413,3.3413,3.3413,3.3101,3.2551,3.2034,3.1873,3.2001,3.2001,3.2093,3.2184,3.2056,3.1563,3.1079,3.1333,3.1338,3.1196,3.117,3.0581,2.9864,2.9348,2.8544,2.7826,2.7545,2.7943,2.8425,2.8667,2.9247,2.9359,2.8143,2.7975,2.8066,2.8267,2.92,3.0098,3.0468,3.1055,3.2035,3.3598,3.3744,3.4772,3.7784,3.753,3.733,3.8092,3.8184,3.8184,3.8184,3.8184,3.8184,3.8184,3.8184,3.8105,3.7949,3.793,3.7812,3.7519,3.7363,3.7305,3.7305,0.0,0.0,0.0,0.0,0.0,0.0,0.0,0.0,0.0,0.0,0.0,0.0,0.0,0.0,0.0,0.0,0.0,0.0,0.0,0.0,0.0,0.0,0.0,2.8993,2.861,2.8514,2.8906,2.9355,2.9627,2.9646,3.0404,3.0713,3.0284,3.0974,3.1446,3.1465,3.2184,3.2625,3.2643,3.3046,3.3232,3.3251,3.3617,3.4037,3.4422,3.4422,3.4642,3.4991,3.4991,3.4991,3.4991,3.4991,3.4991,3.4991,3.4991,3.4991,3.4844,3.3266,3.29,3.3232,3.3214,3.3452,3.3727,3.3308,3.1936,3.0344,3.0293,2.9479,2.8562,2.8562,2.8983,2.9137,2.763,2.7455,2.7377,2.59,2.5745,2.6011,2.6024,2.6413,2.6841,2.6841,2.7068,2.7322,2.7336,2.812,2.8881,2.9085,3.07,3.2195,3.2923,3.2779,0.0,3.9088,3.7852,3.7374,3.96,3.9827,3.9827,3.9922,3.9902,3.9902,3.9902,3.9902,3.9687,3.9238,3.9219,3.8828,3.7972,3.7578,3.7383,3.7383,0.0,0.0,0.0,0.0,0.0,0.0,0.0,0.0,0.0,0.0,0.0,0.0,0.0,0.0,0.0,0.0,0.0,0.0,0.0,0.0,0.0,0.0,2.9616,2.9696,2.9735,2.9861,3.0186,3.0102,3.0168,3.0437,3.0969,3.1334,3.1488,3.1983,3.2386,3.2698,3.2902,3.3321,3.389,3.4018,3.422,3.4496,3.4606,3.4716,3.4826,3.4826,3.4881,3.4991,3.4991,3.4991,3.4991,3.4991,3.4991,3.4991,3.4991,3.4991,3.4918,3.4202,3.3982,3.4037,3.3762,3.3725,3.3625,3.2333,3.172,3.1328,3.0137,2.9697,2.9671,2.9671,2.9023,2.8171,2.7759,2.6904,2.608,2.5888,2.6091,2.6319,2.6533,2.6867,2.7148,2.7148,2.7375,2.7642,2.7898,2.8328,2.8496,2.7905,2.8277,2.9174,3.0828,3.0987,0.0,3.483,3.4834,3.5438,3.7757,3.7912,3.8549,4.0179,4.0078,3.9902,3.9902,3.9902,3.9844,3.9707,3.9707,3.959,3.9355,3.9238,3.918,0.0,0.0,0.0,0.0,0.0,0.0,0.0,0.0,0.0,0.0,0.0,0.0,0.0,0.0,0.0,0.0,0.0,0.0,0.0,0.0,0.0,0.0,3.0054,2.9925,3.0073,3.0041,3.0171,3.0674,3.0714,3.0846,3.1267,3.1653,3.2056,3.2478,3.2881,3.3285,3.3688,3.3855,3.424,3.4899,3.5064,3.5284,3.5486,3.5834,3.5907,3.576,3.5925,3.5999,3.5999,3.5999,3.5999,3.5999,3.5999,3.5999,3.5999,3.5999,3.5999,0.0,0.0,0.0,0.0,0.0,3.4715,3.4427,3.3465,3.2783,3.2023,3.0368,2.961,2.9282,2.8714,2.8019,2.7428,2.7554,2.6946,2.6293,2.6506,2.6854,2.7202,2.7335,2.7696,2.8003,2.8003,2.8136,2.831,2.8484,2.8671,0.0,2.8096,2.8003,2.8743,3.0831,3.035,3.0845,3.388,3.3651,3.4417,3.7681,3.7938,3.8832,4.1113,4.1094,0.0,0.0,0.0,4.0957,4.0957,4.0781,0.0,0.0,0.0,4.043,4.043,0.0,0.0,0.0,3.8809,3.875,0.0,0.0,0.0,0.0,0.0,0.0,0.0,0.0,0.0,0.0,0.0,0.0,0.0,0.0,0.0,0.0,3.0249,3.0241,3.0314,3.0051,3.007,3.0772,3.1249,3.1689,3.2111,3.2496,3.29,3.3287,3.3725,3.4147,3.4587,0.0,0.0,0.0,0.0,3.6347,3.6347,3.7024,3.7208,3.686,3.7226,3.7391,3.7391,3.7391,3.7391,3.7391,3.7391,3.7314,3.7104,3.7104,3.6988,3.669,3.5484,3.5212,3.5521,3.568,3.5515,3.5171,3.4987,0.0,0.0,3.0468,2.9215,2.8052,2.6874,2.6667,2.6921,2.7229,2.7309,2.7309,2.7349,2.7764,2.8192,2.8232,2.8631,2.9001,2.9001,2.9028,2.9041,2.9041,2.9068,2.9095,2.9095,2.9041,2.9669,3.1624,3.0248,3.042,3.4255,3.3117,3.3615,3.7846,0.0,0.0,4.1877,4.2281,4.2382,4.2382,4.2382,4.2382,4.2382,4.207,4.1875,4.1875,4.1504,4.1348,4.1348,4.1348,4.1348,4.1289,4.0449,4.0039,0.0,0.0,0.0,0.0,0.0,0.0,0.0,0.0,0.0,0.0,0.0,0.0,0.0,0.0,0.0,3.0726,3.0454,3.0424,3.1084,3.1084,3.1116,3.1281,3.1942,3.2533,3.2921,3.334,3.3743,3.4147,3.4533,3.5064,3.5815,3.5944,3.6311,3.7024,3.7116,3.7153,3.7153,3.7299,3.7354,3.7281,0.0,0.0,3.7391,3.7391,3.7391,3.7391,3.7391,3.6603,3.5288,3.5288,3.4452,3.3303,3.4418,3.4907,3.4766,3.3458,3.2918,3.2673,3.1299,3.0581,3.0022,2.838,2.7713,2.7459,2.7203,2.7175,0.0,2.7296,2.7309,2.7362,2.7549,2.7924,2.8245,2.8457,2.8791,2.9001,2.9001,2.9232,2.9392,2.9392,2.9593,2.9753,2.9753,2.9308,2.9162,2.9583,2.9292,2.9292,3.0175,3.0136,3.109,3.3815,3.5662,3.7686,3.9969,4.1528,4.2382,4.2382,4.2382,4.2382,4.2382,4.2344,4.2265,4.2265,4.2226,4.2187,4.2187,4.2187,4.2187,4.2168,4.1328,4.0957,0.0,0.0,0.0,0.0,0.0,0.0,0.0,0.0,0.0,0.0,0.0,3.0601,0.0,0.0,3.0948,3.1102,3.113,3.1322,3.1928,3.2349,3.2533,3.2331,3.2845,3.3358,3.378,3.4148,3.4551,3.499,3.5357,3.5852,3.6457,3.6676,3.7099,3.7704,3.7723,3.7723,3.7723,3.7886,3.7457,3.6404,3.6599,3.6254,3.5407,3.5407,3.547,3.56,3.56,3.5181,3.4538,3.4538,3.405,3.3242,3.3043,3.3226,3.3375,3.2546,3.219,3.2055,3.1235,3.0955,3.0676,2.9056,2.8489,2.8368,2.7716,2.7482,2.7549,2.7856,2.7936,2.8003,2.8297,2.8591,2.8901,2.9005,2.9272,2.9428,2.9428,2.9593,2.97,2.97,2.982,2.9913,2.9913,2.9673,2.9428,2.9428,2.9428,2.9428,2.9428,2.9606,3.0605,3.2879,3.4155,3.5736,3.7997,4.0123,4.1824,4.2985,4.3066,4.3066,4.3066,4.3066,4.3066,4.3066,4.3066,4.3066,4.3066,4.3066,4.2476,4.1354,4.0918,4.1147,0.0,0.0,0.0,0.0,0.0,0.0,0.0,0.0,3.0191,3.027,3.0486,3.0595,3.0435,3.0933,3.1395,3.1492,3.1799,3.2203,3.2753,3.3395,3.3762,3.3562,3.3818,3.4183,3.4495,3.4863,3.5266,3.5705,3.6109,3.6549,3.7006,3.7336,3.7684,3.8087,3.8126,3.793,3.7599,3.7975,3.7157,3.5093,3.5463,3.494,3.3562,3.3562,3.3705,3.3876,3.3557,3.3546,3.3769,3.343,3.326,3.3102,3.1419,3.1126,3.1578,3.148,3.1419,3.1419,3.1419,3.1465,3.1285,2.9923,2.9533,2.9346,2.8286,2.7963,2.8056,2.8551,2.8684,2.8751,2.8935,2.9259,2.9486,2.9486,2.97,2.9913,2.9913,2.9913,2.9913,2.9913,2.9913,2.9913,2.9913,2.9967,2.998,2.9927,2.9913,2.9913,2.9913,2.9913,3.0616,3.2514,3.3131,3.4345,3.6615,3.8545,4.0385,4.2243,4.2368,4.2368,4.2368,4.2803,4.3051,4.3051,4.3485,4.3711,4.3711,4.3711,4.2534,4.0301,4.0349,4.0694,3.1491,3.1341,3.1138,3.1097,3.0765,3.0397,0.0,0.0,2.9814,3.02,3.0003,2.9946,3.0629,3.0819,3.1119,3.1818,3.1983,3.2404,3.3523,3.3762,3.4073,3.4716,3.4826,3.4881,3.4918,3.5284,3.5724,3.6109,3.6493,3.7061,3.7851,3.7924,3.8144,3.8527,3.8527,3.7795,3.6224,3.654,3.5796,3.396,3.4311,3.4402,3.4192,3.4192,3.4208,3.4171,3.2619,3.1966,3.1868,3.0262,2.9583,2.9583,2.9339,2.9314,2.9281,2.8821,2.8659,2.8659,2.8659,2.8808,2.8955,2.8784,2.8875,2.9061,2.8915,2.8841,2.8868,2.8921,2.8948,2.8961,2.8988,2.9259,2.9486,2.9486,2.97,2.9913,2.9913,2.9913,2.9913,2.9913,2.9913,2.9913,2.9913,3.014,3.0221,2.9953,2.9913,2.9913,2.9913,2.9913,3.0003,3.0258,3.2174,3.4345,3.6615,3.7046,3.7304,3.7561,3.7561,3.7561,3.7561,3.9564,4.068,4.068,4.2678,4.3711,4.3711,4.3711,4.2534,4.0301,4.0552,3.9481,3.1759,3.1498,3.1153,3.0863,3.0655,3.042,2.9949,2.9884,2.9938,2.9893,3.0094,3.0461,3.1029,3.1322,3.1763,0.0,3.2716,3.3046,3.4018,3.3535,3.3678,3.5157,3.4932,3.4925,3.5632,3.6054,3.6457,3.6879,3.7263,3.7668,3.7998,3.7256,3.6896,3.7072,3.6092,3.5288,3.4711,3.4875,3.4141,3.2595,3.2732,3.2253,3.1239,3.1239,3.1339,3.1483,3.0897,3.0629,3.0585,2.9849,2.9508,2.9495,2.9366,2.9299,2.9245,2.8818,2.8657,2.8657,2.8657,2.8751,2.8815,2.8815,2.8895,2.9001,2.9001,2.9001,2.9028,2.9245,2.9299,2.9339,2.9468,2.9646,2.974,2.974,2.9833,2.9967,3.014,3.0181,3.0221,3.0394,3.0421,3.0421,3.0421,3.0528,3.0568,3.0448,3.0421,3.0421,3.0421,3.0421,3.0421,3.0421,3.1317,3.2811,3.5091,3.5313,3.5873,3.7239,3.7326,3.7326,3.7326,3.8288,3.8811,3.8811,3.9721,4.0213,4.0213,4.0213,3.9028,3.6739,3.6857,3.5616,3.1709,3.1348,3.0972,3.0602,3.0438,3.0259,2.9807,2.9947,3.0149,2.9978,3.0492,3.1098,3.1469,3.1891,3.2404,3.3067,3.3287,3.367,3.4458,3.3583,3.3635,3.5686,3.4682,3.438,3.5827,3.614,3.641,3.6806,3.6646,3.6873,3.7539,3.6109,3.5352,3.5513,3.4245,3.3409,3.3212,3.3263,3.2559,3.108,3.1166,3.0526,2.9242,2.9242,2.9392,2.9619,2.982,2.9913,2.9913,2.9913,2.9913,2.99,2.9686,2.9606,2.9579,2.9322,2.9135,2.9001,2.9001,2.9055,2.9121,2.9121,2.9175,2.9242,2.9242,2.9242,2.9282,2.9539,2.9606,2.9673,2.9967,3.0034,3.006,3.014,3.0154,3.0221,3.048,3.052,3.0587,3.0755,3.0795,3.0795,3.0795,3.0862,3.0915,3.0915,3.0982,3.0982,3.0808,3.0795,3.0795,3.0795,3.0795,3.1459,3.311,3.3247,3.4004,3.5689,3.5778,3.5778,3.5778,3.6406,3.6702,3.6702,3.7371,3.7682,3.7682,3.7682,3.6479,3.4216,3.4305,3.3102,3.1246,3.0578,3.0159,3.0276,2.9976,2.9721,3.0106,3.0185,3.0314,3.0681,3.1084,3.1488,3.1909,3.2313,3.2716,3.3122,3.3541,3.4038,3.4863,3.4179,3.438,3.6524,3.412,3.3094,0.0,3.5087,3.5035,3.5435,3.3916,3.4001,3.6403,3.4613,3.374,3.434,3.3981,3.3144,3.1767,3.2032,3.1306,2.9561,2.9842,2.9931,2.9887,2.9887,2.99,2.99,2.9913,2.9913,2.9913,2.9913,2.9913,2.9913,2.99,2.99,2.99,2.99,2.9482,2.9001,2.9001,2.9232,2.9472,2.9472,2.9659,2.9887,2.9887,2.9887,2.9887,2.99,2.99,2.9967,3.0319,3.0386,3.0467,3.0702,3.0768,3.0768,3.0782,3.0782,3.0782,3.0795,3.0795,3.0795,3.0795,3.1022,3.1209,3.1209,3.1463,3.1483,3.0862,3.0795,3.0795,3.0795,3.0795,3.0841,3.0874,3.0874,3.0934,3.1012,3.1012,3.1012,3.1012,3.3156,3.4306,3.4306,3.654,3.7682,3.7682,3.7682,3.6479,3.4231,3.4544,3.3432,3.0686,3.0391,3.0227,3.0234,3.0322,3.0351,3.0222,3.0827,3.1286,3.0864,3.1515,3.2032,3.172,3.2364,3.301,3.323,3.2878,3.2928,3.3922,3.1934,3.1174,3.3481,3.2093,0.0,0.0,0.0,0.0,3.4042,3.3674,3.3832,3.4651,3.3155,3.2354,3.2579,3.1295,3.0507,3.0233,3.0329,3.0185,2.9766,2.9873,2.9913,2.9913,2.9913,2.9913,2.9913,2.9913,2.9913,2.9913,2.9913,2.9913,2.9913,2.9913,2.9913,2.9913,2.9913,2.9913,2.9887,2.9686,2.9686,2.9766,2.9766,2.9833,2.9953,3.0154,3.0207,3.0247,3.0448,3.0501,3.0515,3.0621,3.0648,3.0675,3.0768,3.0795,3.0849,3.1036,3.1076,3.1142,3.133,3.1417,3.1417,3.1417,3.145,3.1583,3.1784,3.173,3.1644,3.1396,3.1417,3.1417,3.1417,3.1417,3.145,3.165,3.1664,3.1744,3.1992,3.2005,3.1864,3.1664,3.2586,3.3013,3.2805,3.379,3.4315,3.4315,3.4315,3.3903,3.3158,3.3269,3.2893,3.0403,3.0282,3.0249,3.039,3.0607,3.0754,3.0644,3.1231,3.1671,3.1304,3.1732,3.2038,3.1773,3.2056,3.2372,3.2385,3.1957,3.1848,3.2617,3.0593,2.9898,3.2141,3.071,2.9823,0.0,0.0,0.0,3.254,3.2214,3.2315,3.3133,3.1652,3.0835,3.1062,2.9844,2.9339,2.9633,2.9633,2.9726,2.9913,2.9913,2.9913,2.9913,2.9913,2.9913,2.9927,3.0034,3.0074,3.0087,3.0181,3.0234,3.0234,3.0234,3.0234,3.0234,3.0234,3.0354,3.052,3.0181,3.014,3.0234,3.0234,3.0234,3.0261,3.0507,3.056,3.06,3.0742,3.0795,3.0822,3.0915,3.0942,3.0969,3.1076,3.1102,3.1156,3.1343,3.1383,3.1476,3.177,3.1824,3.1864,3.2019,3.2032,3.2099,3.2238,3.2152,3.2032,3.2032,3.2032,3.2032,3.2032,3.2032,3.2112,3.2238,3.2265,3.2393,3.2581,3.2594,3.2514,3.2265,3.25,3.25,3.2265,3.25,3.2594,3.2594,3.2594,3.2594,3.2594,3.2594,3.2594,3.042,3.0241,3.0253,3.072,3.0846,3.0937,3.1222,3.1382,3.151,3.1731,3.1621,3.1583,0.0,0.0,3.0874,3.0734,3.0722,3.0835,3.1013,3.022,3.0358,0.0,0.0,0.0,0.0,0.0,0.0,3.0976,2.9573,2.9605,3.1845,3.0122,2.9295,2.99,2.9646,2.9633,2.9913,2.9913,2.9913,2.9913,2.9913,2.9927,2.994,2.994,2.994,2.998,3.0261,3.0426,3.0453,3.0675,3.0795,3.0795,3.0795,3.0795,3.0795,3.0795,3.0808,3.0768,3.0547,3.0627,3.0795,3.0795,3.0795,3.0795,3.0808,3.0808,3.0822,3.0835,3.0835,3.0902,3.1169,3.1249,3.1316,3.1597,3.1711,3.1724,3.1738,3.1738,3.1784,3.2064,3.2131,3.2211,3.2541,3.2607,3.2621,3.2621,3.2634,3.2621,3.2594,3.2594,3.2594,3.2594,3.2594,3.2607,3.2621,3.2621,3.2621,3.2634,3.2634,3.2634,3.2621,3.2634,3.2634,3.2621,3.2634,3.2634,3.2634,3.2634,3.2634,3.2634,3.2634,3.2634,3.0704,3.0655,3.0733,3.1134,3.1469,3.1374,3.01,3.1115,3.1625,2.9228,3.0213,3.0935,2.9015,2.9474,2.9979,2.9617,2.9161,0.0,2.9928,2.8993,0.0,2.9551,0.0,2.8775,2.949,2.9185,0.0,0.0,2.9508,2.9545,3.012,2.9828,2.9722,2.9913,2.9847,2.9847,2.9913,2.9913,2.9913,2.9913,2.9913,3.0034,3.0293,3.0293,3.0368,3.0568,3.0648,3.0675,3.0688,3.0768,3.0795,3.0795,3.0795,3.0795,3.0795,3.0795,3.0929,3.1102,3.1036,3.0915,3.0795,3.0795,3.0795,3.0835,3.1049,3.1116,3.1156,3.1383,3.145,3.151,3.153,3.1557,3.157,3.1698,3.1711,3.173,3.1944,3.1984,3.2078,3.242,3.2474,3.25,3.2581,3.2781,3.2915,3.2915,3.3053,3.304,3.2648,3.2594,3.2594,3.2594,3.2594,3.2688,3.2902,3.2915,3.2959,3.3173,3.3187,3.3093,3.2929,3.308,3.3093,3.2929,3.308,3.3187,3.3187,3.3187,3.3187,3.3187,3.3187,3.3187,3.0783,3.0919,3.1157,3.1561,3.1964,3.1851,3.0384,3.1012,3.1261,2.9043,2.951,2.9861,2.8296,2.8349,2.8499,2.8112,2.7734,2.7752,2.8551,2.8112,2.7923,0.0,2.8604,0.0,2.9192,2.9232,2.9352,0.0,2.9553,2.9539,2.9673,2.982,2.9913,2.9913,2.9913,2.9913,2.9913,2.9913,2.9913,2.9913,3.0047,3.0194,3.0413,3.0533,3.0635,3.0795,0.0,3.0982,3.0996,3.1129,3.1169,3.1169,3.1169,3.1169,3.1169,3.1169,3.1276,3.1423,3.1423,3.1316,3.1169,3.1169,3.1169,3.1209,3.137,3.1423,3.145,3.1671,3.1711,3.1711,3.1711,3.1711,3.1751,3.1824,3.1864,3.1944,3.2286,3.2291,3.2433,3.2728,3.2888,3.2969,3.2969,3.3066,3.3173,3.3173,3.3307,3.3293,3.2973,3.2969,3.2969,3.2969,3.2969,3.2986,3.316,3.3173,3.324,3.34,3.3414,3.3334,3.3173,3.332,3.3334,3.3173,3.3334,3.3414,3.3414,3.3414,3.3414,3.3414,3.3547,3.3614,3.0772,3.1048,3.1385,3.1895,3.2195,3.2077,3.095,3.0879,3.068,2.9546,2.8993,2.8644,2.8294,2.758,2.6888,2.6603,2.6574,2.6751,2.723,2.7509,2.7936,2.8591,2.8671,2.8898,2.9486,2.9539,2.9646,2.99,2.9686,2.9646,2.99,2.9913,2.9913,2.9913,2.9913,2.9913,2.9913,2.9953,2.998,2.998,3.0319,3.048,3.0533,3.0742,3.0875,3.0929,3.1183,3.1289,3.1303,3.1557,3.1711,3.1711,3.1711,3.1711,3.1711,3.1711,3.1711,3.1711,3.1711,3.1711,3.1711,3.1711,3.1711,3.1711,3.1711,3.1711,3.1711,3.1711,3.1711,3.1711,3.1711,3.1751,3.1797,3.2038,3.2131,3.2238,3.2594,3.2688,3.2781,3.2986,3.324,3.3414,3.3414,3.3414,3.3414,3.3414,3.3414,3.3414,3.3414,3.3414,3.3414,3.3414,3.3414,3.3414,3.3414,3.3414,3.3427,3.3467,3.3467,3.3494,3.3534,3.3534,3.3534,3.3534,3.3534,3.3534,3.3534,3.3534,3.3534,3.3534,3.3814,3.3948,3.1281,3.0879,3.074,3.1753,3.1597,3.085,2.9513,3.0114,3.0098,2.6926,2.7389,2.789,2.6208,2.6247,2.6337,2.5807,2.6111,2.6638,2.7215,2.7509,2.8016,0.0,2.8921,2.9148,2.978,2.9847,0.0,0.0,2.9873,2.986,2.9913,2.9913,2.9913,2.9913,2.9913,2.9913,2.9913,3.0154,3.0333,3.0333,3.0581,3.0849,3.1076,3.1129,3.1289,3.1564,3.157,0.0,3.1644,3.1698,3.1711,3.1711,3.1711,3.1711,3.1711,3.1711,3.1711,3.1711,3.1711,3.1711,3.1711,3.1711,3.1711,3.1711,3.1711,3.1711,3.1711,3.1711,3.1711,3.1711,3.1711,3.1851,3.2038,3.2091,3.2291,3.2594,3.2888,3.3093,3.328,3.332,3.3374,3.3414,3.3414,3.3414,3.3414,3.3414,3.3414,3.3414,3.3414,3.3414,3.3414,3.3414,3.3414,3.3414,3.3414,3.3414,3.3521,3.3788,3.3801,3.3908,3.4148,3.4162,3.4162,3.4162,3.4162,3.4162,3.4162,3.4162,3.4162,3.4162,3.4215,3.4242,3.141,3.128,3.1127,3.0943,3.0917,3.0446,2.8687,0.0,2.8922,2.6809,2.7111,2.7373,2.6205,2.6254,2.6393,2.6031,2.6374,2.6857,2.7347,2.7743,2.8192,2.8751,2.8908,2.9161,2.9646,2.982,2.9913,2.9913,2.9913,2.9913,2.9913,2.9913,2.9913,2.9913,2.9913,2.9993,3.014,3.0333,3.048,3.0581,3.0875,3.1089,3.1236,3.1383,3.153,3.1711,3.1711,3.1711,3.1711,3.1711,3.1711,3.1711,3.1711,3.1711,3.1711,3.1711,3.1711,3.1711,3.1711,3.1711,3.1738,3.1851,3.1891,3.1891,3.1891,3.2045,3.2179,3.2179,3.2179,3.2139,3.1931,3.1998,3.2144,3.234,3.2728,3.3026,3.3173,3.332,3.3414,3.3414,3.3414,3.3414,3.3414,3.3414,3.3414,3.3414,3.3414,3.3467,3.3641,3.3654,3.3654,3.3654,3.3654,3.3721,3.3868,3.3881,3.3948,3.4108,3.4108,3.4175,3.4309,3.4322,3.4322,3.4322,3.4322,3.4322,3.4322,3.4322,3.4322,3.4322,3.4482,3.4549,3.1474,3.1527,3.1376,3.0267,3.0208,2.9963,2.8273,2.7963,2.7897,2.7328,2.72,2.7077,2.666,2.6645,2.6612,2.6434,2.6689,2.7074,2.746,2.7839,2.8186,2.8537,2.8815,0.0,2.9459,2.9753,0.0,2.9913,2.9913,2.9913,2.9913,2.9913,2.9913,2.9913,2.9913,3.006,3.04,3.0467,3.0595,3.0889,3.1183,3.1316,3.133,3.1557,3.1711,3.1711,3.1711,3.1711,3.1711,3.1711,3.1711,3.1711,3.1711,3.1711,3.1711,3.1711,3.1711,3.1711,3.1711,3.1711,3.1751,3.1931,3.2051,3.2118,3.2171,3.2407,3.2594,3.2594,3.2594,3.2541,3.2251,3.2198,3.2251,3.2541,3.2995,3.332,3.332,3.3374,3.3414,3.3414,3.3414,3.3414,3.3414,3.3414,3.3414,3.3414,3.3414,3.3521,3.3841,3.3881,3.3935,3.4068,3.4015,3.4068,3.4295,3.4322,3.4349,3.4416,3.4416,3.4442,3.4509,3.4509,3.4509,3.4509,3.4509,3.4509,3.4509,3.4509,3.4509,3.4509,3.475,3.4909,3.1667,3.0954,3.0434,3.0308,2.9526,2.87,2.8255,0.0,2.7562,2.728,2.72,2.7077,2.666,2.6809,2.6829,2.6463,2.6656,2.6966,2.7454,2.7562,2.7837,2.8529,2.8815,0.0,2.9459,2.9753,2.9913,2.9913,2.9913,2.9913,2.9913,2.9913,2.9913,2.9913,2.9913,3.006,3.04,3.0621,3.0902,3.1196,3.149,3.1623,3.1671,3.1711,3.1711,3.1711,3.1711,3.1711,0.0,3.1711,3.1711,3.1711,3.1711,3.1711,3.1711,3.1711,3.1711,3.1711,3.1711,3.1711,3.1724,3.1751,3.1891,3.2158,3.2474,3.2567,3.2594,3.2594,3.2594,3.2581,3.2567,3.2554,3.2567,3.2581,3.2835,3.3013,3.3013,3.3227,3.3414,3.3414,3.3414,3.3414,3.3414,3.3414,3.3414,3.3414,3.3414,3.3521,3.3841,3.3881,3.4095,3.4681,3.4442,3.4295,3.4322,3.4322,3.4429,3.471,3.4775,3.4843,3.511,3.511,3.511,3.511,3.511,3.511,3.511,3.511,3.511,3.511,3.5151,3.5151,3.1667,3.1196,3.0579,2.9076,2.8472,2.7965,2.6828,0.0,2.6687,2.7111,2.72,2.7148,2.6972,2.7045,2.7118,2.7174,2.7371,2.7565,2.7679,2.7866,2.8036,2.8075,2.8601,2.8975,2.8965,2.9539,2.9913,2.9913,2.9913,2.9913,2.9913,2.9913,2.9913,2.9913,3.0087,3.0327,3.0667,3.0902,3.1209,3.149,3.1657,3.1711,3.1711,3.1711,3.1711,3.1711,3.1711,3.1711,0.0,3.1711,3.1711,3.1711,3.1711,3.1711,3.1711,3.1711,3.1711,3.1711,3.1711,3.1711,3.1751,3.1877,3.2011,3.2158,3.25,3.2835,3.3066,3.3066,3.3066,3.3026,3.2902,3.2728,3.2554,3.2367,3.2554,3.2808,3.2995,3.3066,3.32,3.3374,3.3414,3.3414,3.3414,3.3414,3.3414,3.3414,3.3414,3.3587,3.4082,3.4148,3.4376,3.4963,3.4763,3.4656,3.483,3.4843,3.4897,3.5017,3.5017,3.5084,3.5191,3.5191,3.5191,3.5191,3.5191,3.5191,3.5191,3.5191,3.5191,3.5191,3.5191,3.5191,3.1194,3.0779,3.0171,2.7709,2.7314,2.7219,0.0,0.0,2.6334,2.7059,2.72,2.72,2.72,2.72,2.7267,2.7517,2.7636,2.7738,2.7841,2.8051,2.8216,2.8164,2.8643,2.8949,2.8859,2.9313,2.9655,2.978,2.9793,2.982,2.9913,2.9913,2.9913,2.9913,3.0253,3.0547,3.0795,3.1076,3.137,3.1711,3.1711,3.1711,3.1711,3.1711,3.1711,3.1711,3.1711,3.1711,0.0,3.1711,3.1711,3.1711,3.1711,3.1711,3.1711,3.1711,3.1711,3.1711,3.1711,3.1711,3.1751,3.1904,3.2038,3.2144,3.2393,3.2826,3.3293,3.3387,3.3414,3.3347,3.3053,3.2808,3.2527,3.2171,3.2265,3.2541,3.2835,3.2919,3.3066,3.336,3.3414,3.3414,3.3414,3.3414,3.3414,3.3414,3.3414,3.3627,3.4242,3.4322,3.4549,3.5137,3.5017,3.4977,3.5177,3.5191,3.5191,3.5191,3.5191,3.5191,3.5191,3.5191,3.5191,3.5191,3.5191,3.5191,3.5191,3.5191,3.5191,3.5191,3.5191,3.5191,3.0136,2.933,2.8776,2.6493,2.621,2.642,2.5985,2.6275,2.6697,2.7097,2.72,2.72,2.72,2.72,2.72,2.72,2.709,2.7246,2.7879,2.7911,2.8183,2.9162,2.9079,2.9047,2.9349,2.915,2.9135,2.9459,2.9486,2.9619,2.99,2.9913,2.9913,2.9913,3.0253,3.0547,3.0795,3.1076,3.137,3.1711,3.1711,3.1711,3.1711,3.1711,3.1711,3.1711,3.1711,3.1711,0.0,3.1711,3.1711,3.1711,3.1711,3.1711,3.1711,3.1711,3.1711,3.1711,3.1711,3.1711,3.1711,3.1724,3.1864,3.2104,3.2104,3.2519,3.304,3.3334,3.3414,3.3347,3.3053,3.2808,3.2527,3.2171,3.2104,3.2185,3.2541,3.2822,3.3066,3.336,3.3414,3.3414,3.3414,3.3414,3.3414,3.3414,3.3414,3.3627,3.4242,3.4322,3.4549,3.5137,3.5191,3.5191,3.5191,3.5191,3.5191,3.5191,3.5191,3.5191,3.5191,3.5191,3.5191,3.5191,3.5191,3.5191,3.5191,3.5191,3.5191,3.5191,3.5191,3.5191,3.1646,3.0797,3.0016,2.8792,2.8588,2.8404,2.7308,2.7193,2.7259,2.7197,2.72,2.72,2.72,2.72,2.7259,2.7376,2.735,2.7447,2.7803,2.806,2.8314,2.8662,2.8689,2.8829,2.9104,2.8856,2.8858,2.9165,2.9366,2.9526,2.9619,2.9806,3.0007,3.0207,3.0501,3.0795,3.1089,3.1383,3.157,3.1711,3.1711,3.1711,3.1711,3.1711,3.1711,3.1711,3.1711,3.1711,3.1711,3.1711,3.1711,3.1711,3.1711,3.1711,3.1711,3.1711,3.1711,3.1711,3.1711,3.1711,3.1711,3.1711,3.1778,3.1837,3.2038,3.2505,3.304,3.3334,3.3414,3.3347,3.3053,3.2955,3.2719,3.2225,3.2104,3.2185,3.2527,3.2661,3.2875,3.332,3.3414,3.3414,3.3414,3.3414,3.3414,3.3414,3.3414,3.3627,3.4242,3.4322,3.4549,3.5137,3.5191,3.5191,3.5191,3.5191,3.5191,3.5191,3.5191,3.5191,3.5191,3.5191,3.5191,3.5191,3.5191,3.5191,3.5191,3.5191,3.5191,3.5191,3.5191,3.5191,3.1656,3.0956,3.0219,2.916,2.901,0.0,2.7815,2.7751,2.7741,2.7281,2.72,2.72,2.72,2.72,2.7243,2.7364,2.7308,2.7381,2.7818,2.8077,2.833,2.8575,2.8758,2.8844,2.8714,2.8537,2.8551,2.8815,2.9045,2.9245,2.9472,2.9659,2.994,3.0386,3.0635,3.0929,3.1223,3.1517,3.1711,3.1711,3.1711,3.1711,3.1711,3.1711,3.1711,3.1711,3.1711,3.1711,0.0,3.1711,3.1711,3.1711,3.1711,3.1711,3.1711,3.1711,3.1711,3.1711,3.1711,3.1711,3.1711,3.1711,3.1711,3.1764,3.2011,3.2505,3.304,3.3334,3.3414,3.3374,3.3187,3.3066,3.2893,3.2519,3.2265,3.2211,3.2674,3.2674,3.2768,3.3293,3.3414,3.3414,3.3414,3.3414,3.3414,3.3414,3.3414,3.3627,3.4242,3.4322,3.4549,3.5137,3.5191,3.5191,3.5191,3.5191,3.5191,3.5191,3.5191,3.5191,3.5191,3.5191,3.5191,3.5191,3.5191,3.5191,3.5191,3.5191,3.5191,3.5191,3.5191,3.5191,0.0,3.0198,2.9697,2.8259,2.8161,2.8329,2.7903,2.8077,0.0,2.7434,2.7234,2.72,2.72,2.72,2.7183,2.7197,2.6959,2.7093,2.7864,2.8048,2.8256,2.8827,2.9172,2.9049,2.8278,2.8179,2.8312,2.8551,2.8591,2.8858,2.9419,2.9472,2.9798,3.0386,3.0635,3.0929,3.1223,3.1517,3.1711,3.1711,3.1711,3.1711,3.1711,3.1711,3.1711,0.0,3.1711,3.1711,3.1711,3.1711,3.1711,3.1711,3.1711,3.1711,3.1711,3.1711,3.1711,3.1711,3.1711,3.1711,3.1711,3.1711,3.1711,3.1764,3.2011,3.2492,3.3013,3.3293,3.34,3.3414,3.3414,3.3213,3.3,3.2986,3.2545,3.2278,3.2826,3.2768,3.2728,3.3267,3.3374,3.3387,3.3414,3.3414,3.3414,3.3414,3.3414,3.3627,3.4242,3.4322,3.4549,3.5137,3.5191,3.5191,3.5191,3.5191,3.5191,3.5191,3.5191,3.5191,3.5191,3.5191,3.5191,3.5191,3.5191,3.5191,3.5191,3.5191,3.5191,3.5191,3.5191,3.5191,3.356,0.0,3.0773,3.0545,3.0591,3.0473,0.0,2.9367,2.8889,2.8163,2.76,2.72,2.72,2.72,2.7174,2.7077,2.6905,2.7056,2.7754,2.8318,2.8676,2.8663,2.873,2.862,2.8248,2.8179,2.8219,2.8286,2.847,2.8764,2.9081,2.9366,2.9798,3.0386,3.0635,3.0929,3.1223,3.1517,3.1711,3.1711,3.1711,3.1711,3.1711,3.1711,3.1711,3.1711,3.1711,3.1711,3.1711,3.1711,3.1711,3.1711,3.1711,3.1711,3.1711,3.1711,3.1711,3.1711,3.1711,3.1711,3.1711,3.1711,3.1711,3.1764,3.2011,3.2358,3.2755,3.3,3.324,3.3414,3.3414,3.336,3.3253,3.3026,3.2755,3.2527,3.2661,3.246,3.2385,3.2973,3.308,3.3146,3.3374,3.3414,3.3414,3.3414,3.3414,3.3627,3.4242,3.4322,3.4549,3.5137,3.5191,3.5191,3.5191,3.5191,3.5191,3.5191,3.5191,3.5191,3.5191,3.5191,3.5191,3.5191,3.5191,3.5191,3.5191,3.5191,3.5191,3.5191,3.5191,3.5191,3.4117,3.3093,3.2091,3.263,3.2065,3.1281,3.0876,3.0,2.9053,2.818,2.76,2.72,2.72,2.72,2.7241,2.7317,2.7132,2.7222,2.788,2.8518,2.8813,2.8623,2.8604,2.8484,2.8219,2.8179,2.8179,2.8179,2.8339,2.8577,2.8975,2.9192,2.9553,3.014,3.0448,3.0795,3.1223,3.1517,3.1711,3.1711,3.1711,3.1711,3.1711,3.1711,3.1711,3.1711,3.1711,3.1711,3.1711,3.1711,3.1711,3.1711,3.1711,3.1711,3.1711,3.1711,3.1711,3.1711,3.1711,3.1711,3.1711,3.1711,3.1711,3.1751,3.1851,3.2104,3.2474,3.2853,3.3093,3.324,3.3374,3.3414,3.3374,3.3213,3.2959,3.2795,3.2795,3.2567,3.2438,3.2893,3.2973,3.3066,3.336,3.3414,3.3414,3.3414,3.3414,3.3587,3.4055,3.4242,3.4496,3.495,3.5124,3.5191,3.5191,3.5191,3.5191,3.5191,3.5191,3.5191,3.5191,3.5191,3.5191,3.5191,3.5191,3.5191,3.5191,3.5191,3.5191,3.5191,3.5191,3.5191,3.3715,3.323,3.293,3.3822,3.2676,3.1313,3.1244,3.0195,2.8971,2.8081,2.7517,2.72,2.72,2.7248,2.7358,2.7552,2.7413,2.7438,2.7998,2.8495,2.8716,2.8556,2.8537,2.843,2.8205,2.8179,2.8179,2.8179,2.8179,2.8433,2.8895,2.8975,2.9242,2.9833,3.0181,3.0641,3.1089,3.1383,3.1557,3.1597,3.1597,3.1671,3.1711,3.1711,3.1711,3.1711,0.0,0.0,3.1711,3.1711,3.1711,3.1711,3.1711,3.1711,3.1711,3.1711,3.1711,3.1711,3.1711,3.1711,3.1711,3.1711,3.1711,3.1711,3.1711,3.1837,3.2144,3.2692,3.2906,3.304,3.328,3.3374,3.3414,3.3414,3.3187,3.2973,3.2973,3.2768,3.2621,3.2969,3.2995,3.3013,3.336,3.3414,3.3414,3.3414,3.3414,3.3521,3.3841,3.4135,3.4429,3.4788,3.5017,3.5191,3.5191,3.5191,3.5191,3.5191,3.5191,3.5191,3.5191,3.5191,3.5191,3.5191,3.5191,3.5191,3.5191,3.5191,3.5191,3.5191,3.5191,3.5191,3.3901,3.2752,3.1714,3.238,3.1757,3.0976,3.0958,2.9887,2.8839,2.8675,2.7849,2.72,2.72,2.7421,2.7518,2.7158,2.7318,2.7455,2.7445,2.7956,2.8278,2.8288,2.8259,2.8232,2.8192,2.8179,2.8179,2.8179,2.8179,2.8339,2.8657,2.8868,2.9148,2.9539,3.0119,3.0453,3.0533,3.0782,3.1049,3.1289,3.1289,3.1423,3.1711,3.1711,3.1711,3.1711,0.0,3.1711,3.1711,3.1711,3.1711,3.1711,3.1711,3.1711,3.1711,3.1711,3.1711,3.1711,3.1711,3.1711,3.1711,3.1711,3.1711,3.1711,3.1711,3.1751,3.181,3.2144,3.2599,3.2986,3.3026,3.3227,3.3414,3.3414,3.3187,3.2973,3.2973,3.2559,3.2332,3.2866,3.2835,3.2835,3.332,3.3414,3.3414,3.3414,3.3414,3.3521,3.3841,3.4135,3.4429,3.4788,3.5017,3.5191,3.5191,3.5191,3.5191,3.5191,3.5191,3.5191,3.5191,3.5191,3.5191,3.5191,3.5191,3.5191,3.5191,3.5191,3.5191,3.5191,3.5191,3.5191,3.3356,3.2893,3.2305,3.1202,3.0364,2.9934,3.0276,2.9266,2.822,2.8126,2.7552,2.7118,2.7197,2.7257,2.7229,2.702,2.7521,2.785,2.758,2.7974,2.8288,2.8194,2.8179,2.8179,2.8179,2.8179,2.8179,2.8179,2.8179,2.8326,2.8591,2.8738,2.9018,2.9472,2.9798,2.9967,3.0114,3.0247,3.0541,3.0996,3.0996,3.1142,3.1423,3.1423,3.1517,3.1711,0.0,3.1711,3.1711,3.1711,3.1711,3.1711,3.1711,3.1711,3.1711,3.1711,3.1711,3.1711,3.1711,3.1711,3.1711,3.1711,3.1711,3.1711,3.1711,3.1711,3.1751,3.1837,3.2171,3.2572,3.2942,3.308,3.3213,3.3374,3.3307,3.3173,3.3013,3.2688,3.2514,3.2942,3.2795,3.2781,3.3307,3.3414,3.3414,3.3414,3.3414,3.3467,3.3614,3.3895,3.4202,3.4496,3.479,3.503,3.5177,3.5191,3.5191,3.5191,3.5191,3.5191,3.5191,3.5191,3.5191,3.5191,3.5191,3.5191,3.5191,3.5191,3.5191,3.5191,3.5191,3.5191,3.2628,3.27,3.243,2.9818,2.9228,2.9312,2.9325,2.838,2.7432,2.7284,2.7043,2.6907,2.7035,2.6985,2.697,2.707,2.7618,2.7962,2.7633,2.8016,2.8304,2.8209,2.8179,2.8179,2.8179,2.8179,2.8179,2.8179,2.8179,2.8286,2.8484,2.8564,2.8818,2.9259,2.9339,2.9526,2.9806,2.982,3.0114,3.0688,3.0688,3.0849,3.1129,3.1196,3.1356,3.157,3.1684,3.1711,3.1711,3.1711,3.1711,3.1711,3.1711,3.1711,3.1711,3.1711,3.1711,3.1711,3.1711,3.1711,3.1711,3.1711,3.1711,3.1711,3.1711,3.1711,3.1711,3.1711,3.1824,3.2118,3.2639,3.2879,3.304,3.3253,3.336,3.3347,3.3133,3.2902,3.2781,3.3026,3.2888,3.2862,3.332,3.3414,3.3414,3.3414,3.3414,3.3414,3.3414,3.3694,3.3975,3.4189,3.4549,3.4936,3.5177,3.5191,3.5191,3.5191,3.5191,3.5191,3.5191,3.5191,3.5191,3.5191,3.5191,3.5191,3.5191,3.5191,3.5191,3.5191,3.5191,3.5191,3.1891,3.1447,3.0745,2.7768,2.881,3.0051,2.8135,2.7083,2.6523,2.6464,2.6449,2.6464,2.6626,2.6747,2.6918,2.7229,2.7326,2.7364,2.7322,2.7832,2.8223,2.8221,2.8179,2.8179,2.8179,2.8179,2.8179,2.8179,2.8179,2.8192,2.8219,2.8444,2.8631,2.8671,2.8895,2.9175,2.9513,2.9513,2.9806,3.044,3.044,3.0587,3.0835,3.1102,3.1189,3.1276,3.1557,3.1711,3.1711,3.1711,3.1711,3.1711,3.1711,3.1711,3.1711,3.1711,3.1711,3.1711,3.1711,3.1711,3.1711,3.1711,3.1711,3.1711,3.1711,3.1711,3.1711,3.1711,3.1724,3.1818,3.2091,3.2572,3.2986,3.3,3.3213,3.34,3.3387,3.3146,3.3026,3.332,3.3146,3.3053,3.336,3.3414,3.3414,3.3414,3.3414,3.3414,3.3414,3.3694,3.3895,3.3921,3.4481,3.4936,3.5177,3.5191,3.5191,3.5191,3.5191,3.5191,3.5191,3.5191,3.5191,3.5191,3.5191,3.5191,3.5191,3.5191,3.5191,3.5191,3.5191,3.5191,3.1545,3.1607,3.1377,2.7701,2.8022,2.8662,2.6503,2.5906,2.5861,2.594,2.5954,2.607,2.6405,2.6705,2.6904,2.6871,2.7098,2.7309,2.7309,2.7817,2.8179,2.8179,2.8179,2.8179,2.8179,2.8179,2.8179,2.8179,2.8179,2.8179,2.8179,2.8299,2.8446,2.8604,2.8711,2.9005,2.9486,2.9486,2.9686,3.0087,3.0087,3.0234,3.0574,3.0635,3.0889,3.1236,3.1343,3.1503,3.1711,3.1711,3.1711,3.1711,3.1711,3.1711,3.1711,3.1711,3.1711,3.1711,3.1711,3.1711,3.1711,3.1711,3.1711,3.1711,3.1711,3.1711,3.1711,3.1711,3.1711,3.1744,3.2024,3.2265,3.2519,3.2893,3.3066,3.3187,3.3374,3.3187,3.3066,3.336,3.3173,3.3066,3.336,3.3414,3.3414,3.3414,3.3414,3.3414,3.3414,3.3521,3.3668,3.3868,3.4467,3.4855,3.4923,3.5097,3.5191,3.5191,3.5191,3.5191,3.5191,3.5191,3.5191,3.5191,3.5191,3.5191,3.5191,3.5191,3.5191,3.5191,3.5191,3.5191,3.1149,3.1353,3.1191,2.7422,2.7342,2.761,2.5417,2.509,2.523,2.5331,2.5529,2.5859,2.6371,2.6697,2.6822,2.6613,2.6983,2.7309,2.7309,2.7817,2.8179,2.8179,2.8179,2.8179,2.8179,2.8179,2.8179,2.8179,2.8179,2.8179,2.8179,2.8179,2.8286,2.8457,2.8457,2.8698,2.9205,2.9299,2.9486,2.978,2.9873,3.002,3.0266,3.036,3.0627,3.0955,3.1049,3.1209,3.1443,3.1443,3.145,3.153,3.153,3.1583,3.1711,3.1711,3.1711,3.1711,3.1711,3.1711,3.1711,3.1711,3.1711,3.1711,3.1711,3.1711,3.1711,3.1711,3.1711,3.1764,3.1917,3.2038,3.2225,3.2768,3.2969,3.3053,3.3347,3.3253,3.3173,3.3374,3.3253,3.3173,3.3374,3.3414,3.3414,3.3414,3.3414,3.3414,3.3414,3.3414,3.3534,3.3855,3.4322,3.4656,3.4802,3.503,3.5191,3.5191,3.5191,3.5191,3.5191,3.5191,3.5191,3.5191,3.5191,3.5191,3.5191,3.5191,3.5191,3.5191,3.5191,3.5191,3.0636,3.0441,2.9815,2.6598,2.6911,2.738,2.5112,2.4599,2.4599,2.4599,2.5175,2.5871,2.6498,2.6586,2.6599,2.6586,2.6983,2.7309,2.7309,2.7817,2.8179,2.8179,2.8179,2.8179,2.8179,2.8179,2.8179,2.8179,2.8179,2.8179,2.8179,2.8179,2.8179,2.8179,2.8179,2.8339,2.8604,2.8855,2.9192,2.9486,2.978,2.9913,2.9927,3.0221,3.04,3.0426,3.0662,3.0795,3.0795,3.0795,3.0969,3.1223,3.1176,3.1396,3.1711,3.1711,3.1711,3.1711,3.1711,3.1711,3.1711,3.1711,3.1711,3.1711,3.1711,3.1711,3.1711,3.1711,3.1711,3.1711,3.1711,3.1877,3.2171,3.2527,3.2808,3.3053,3.3347,3.3414,3.3414,3.3414,3.3414,3.3414,3.3414,3.3414,3.3414,3.3414,3.3414,3.3414,3.3414,3.3414,3.3534,3.3855,3.4148,3.4429,3.4788,3.503,3.5191,3.5191,3.5191,3.5191,3.5191,3.5191,3.5191,3.5191,3.5191,3.5191,3.5191,3.5191,3.5191,3.5191,3.5191,3.5191,3.1033,2.9782,2.8533,2.6907,2.6051,2.5416,2.4743,2.4599,2.4653,2.4903,2.5467,2.5973,2.6256,2.6562,2.6711,2.6607,2.6983,2.7309,2.7309,2.7817,2.8179,2.8179,2.8179,2.8179,2.8179,2.8179,2.8179,2.8179,2.8179,2.8179,2.8179,2.8179,2.8179,2.8179,2.8179,2.8339,2.8604,2.8698,2.8991,2.9486,2.9566,2.9713,2.9913,3.0007,3.0167,3.0413,3.0493,3.0654,3.0795,3.0795,3.0849,3.0942,3.1142,3.1156,3.1102,3.1564,3.153,3.1383,3.1644,3.1711,3.1711,3.1711,3.1711,3.1711,3.1711,3.1711,3.1711,3.1711,3.1711,3.1711,3.1711,3.1778,3.1877,3.2158,3.2514,3.2808,3.304,3.3267,3.3414,3.3414,3.3414,3.3414,3.3414,3.3414,3.3414,3.3414,3.3414,3.3414,3.3414,3.3414,3.3454,3.3547,3.3828,3.4135,3.4429,3.4723,3.4977,3.5177,3.5191,3.5191,3.5191,3.5191,3.5191,3.5191,3.5191,3.5191,3.5191,3.5191,3.5191,3.5191,3.5191,3.5191,2.9512,2.8206,2.7118,2.6235,2.5618,2.5171,2.472,2.4693,2.489,2.5197,2.5663,2.6072,2.6238,2.6486,2.6599,2.6528,2.6973,2.7309,2.7309,2.7817,2.8179,2.8179,2.8179,2.8179,2.8179,2.8179,2.8179,2.8179,2.8179,2.8179,2.8179,2.8179,2.8179,2.8179,2.8179,2.8272,2.8417,2.8551,2.8845,2.9312,2.9432,2.9633,2.9913,2.9913,3.0007,3.0181,3.0181,3.0287,3.0448,3.0448,3.0515,3.0635,3.0808,3.0849,3.0849,3.1316,3.1383,3.1276,3.157,3.1711,3.1711,3.1711,3.1711,3.1711,3.1711,3.1711,3.1711,3.1711,3.1711,3.1711,3.1711,3.1711,3.1791,3.2038,3.2238,3.25,3.2795,3.2995,3.3066,3.3066,3.316,3.32,3.3093,3.316,3.324,3.324,3.3334,3.3414,3.3414,3.3414,3.3414,3.3414,3.3694,3.3961,3.4135,3.4523,3.4895,3.5017,3.5137,3.5191,3.5191,3.5191,3.5191,3.5191,3.5191,3.5191,3.5191,3.5191,3.5191,3.5191,3.5191,3.5191,2.7073,2.6232,2.5711,2.5009,2.5492,2.5855,2.4827,2.489,2.5197,2.5464,2.5784,2.6091,2.6333,2.6386,2.64,2.6426,2.6894,2.7322,2.7349,2.7831,2.8179,2.8179,2.8179,2.8179,2.8179,2.8179,2.8179,2.8179,2.8179,2.8179,2.8179,2.8179,2.8179,2.8179,2.8179,2.8179,2.8179,2.843,2.8724,2.9001,2.9312,2.9606,2.9913,2.9913,2.9913,2.9913,2.9913,2.9913,2.9913,2.9913,3.0074,3.0373,3.04,3.0547,3.0755,3.1076,3.1136,3.1236,3.153,3.165,3.1711,3.1711,3.1711,3.1711,3.1711,3.1711,3.1711,3.1711,3.1711,3.1711,3.1711,3.1711,3.1778,3.1998,3.2078,3.2171,3.25,3.2581,3.2594,3.2594,3.2808,3.2902,3.2648,3.2808,3.2946,3.2973,3.3227,3.3414,3.3414,3.3414,3.3414,3.3414,3.3668,3.3855,3.3881,3.4376,3.4762,3.4815,3.5017,3.5164,3.5191,3.5191,3.5191,3.5191,3.5191,3.5191,3.5191,3.5191,3.5191,3.5191,3.5191,3.5191,2.8349,2.6552,2.5076,2.5175,2.5064,2.491,2.466,2.4999,2.5438,2.5504,2.5784,2.6091,2.6333,2.6386,2.6466,2.6694,2.7028,2.7389,2.7575,2.7951,2.8179,2.8179,2.8179,2.8179,2.8179,2.8179,2.8179,2.8179,2.8179,2.8179,2.8179,2.8179,2.8179,2.8179,2.8179,2.8179,2.8179,2.8259,2.8511,2.9001,2.9068,2.9406,2.9913,2.9913,2.9913,2.9913,2.9913,2.9913,2.9913,2.9913,2.9953,3.0034,3.0319,3.0261,3.0167,3.0688,3.0889,3.0929,3.1223,3.1476,3.1711,3.1711,3.1711,3.1711,3.1711,3.1711,3.1711,3.1711,3.1711,3.1711,3.1711,3.1711,3.1724,3.1744,3.1931,3.2118,3.2185,3.2433,3.2594,3.2594,3.2648,3.2661,3.2607,3.2648,3.2768,3.2995,3.3227,3.3414,3.3414,3.3414,3.3414,3.3414,3.3467,3.3614,3.3868,3.4002,3.4269,3.4788,3.4869,3.4963,3.5191,3.5191,3.5191,3.5191,3.5191,3.5191,3.5191,3.5191,3.5191,3.5191,3.5191,3.5191,2.7165,2.5663,2.4795,2.4764,2.4688,2.4599,2.4599,2.5053,2.5518,2.5518,2.5865,2.6252,2.636,2.6386,2.648,2.6774,2.7068,2.7403,2.7655,2.7991,2.8179,2.8179,2.8179,2.8179,2.8179,2.8179,2.8179,2.8179,2.8179,2.8179,2.8179,2.8179,2.8179,2.8179,2.8179,2.8179,2.8179,2.8179,2.8419,2.8788,2.8935,2.9308,2.9913,2.9913,2.9913,2.9913,2.9913,2.9913,2.9913,2.9913,2.9913,2.9927,3.0087,3.0047,2.9967,3.0421,3.0581,3.0621,3.0915,3.1209,3.1463,3.1463,3.1557,3.1711,3.1711,3.1711,3.1711,3.1711,3.1711,3.1711,3.1711,3.1711,3.1711,3.1711,3.1831,3.1891,3.1891,3.2059,3.2179,3.2179,3.2286,3.234,3.2193,3.2286,3.2487,3.2768,3.3013,3.3253,3.3387,3.3414,3.3414,3.3414,3.3414,3.348,3.3641,3.3801,3.4015,3.4322,3.4655,3.4882,3.4977,3.5124,3.5191,3.5191,3.5191,3.5191,3.5191,3.5191,3.5191,3.5191,3.5191,3.5191,2.5659,2.4594,2.4473,2.4282,2.4382,2.4532,2.4586,2.5053,2.5518,2.5518,2.5985,2.6386,2.6386,2.6386,2.6507,2.6841,2.7108,2.7429,2.7722,2.8031,2.8179,2.8179,2.8179,2.8179,2.8179,2.8179,2.8179,2.8179,2.8179,2.8179,2.8179,2.8179,2.8179,2.8179,2.8179,2.8179,2.8179,2.8179,2.8339,2.8604,2.8908,2.9348,2.9913,2.9913,2.9913,2.9913,2.9913,2.9913,2.9913,2.9913,2.9913,2.9913,2.9913,2.9913,2.994,3.0194,3.036,3.044,3.0635,3.0942,3.1176,3.1176,3.1423,3.1711,3.1711,3.1711,3.1711,3.1711,3.1711,3.1711,3.1711,3.1711,3.1711,3.1711,3.1711,3.1711,3.1711,3.1711,3.1711,3.1711,3.1864,3.1944,3.1751,3.1904,3.2198,3.2554,3.2835,3.308,3.3374,3.3414,3.3414,3.3414,3.3414,3.3414,3.3414,3.3654,3.3828,3.3881,3.44,3.4708,3.4815,3.499,3.5151,3.5191,3.5191,3.5191,3.5191,3.5191,3.5191,3.5191,3.5191,3.5191,2.6515,2.4634,2.3617,2.4084,2.4235,2.4329,2.4546,2.5053,2.5518,2.5518,2.5985,2.6386,2.6386,2.6386,2.6573,2.7162,2.7282,2.7496,2.8045,2.8165,2.8179,2.8179,2.8179,2.8179,2.8179,2.8179,2.8179,2.8179,2.8179,2.8179,2.8179,2.8179,2.8179,2.8179,2.8179,2.8179,2.8179,2.8179,2.8339,2.8617,2.9165,2.9593,2.9913,2.9913,2.9913,2.9913,2.9913,2.9913,2.9913,2.9913,2.9913,2.9913,2.9913,2.9913,2.9927,2.9967,3.014,3.0413,3.0453,3.0768,3.1176,3.1176,3.1423,3.1711,3.1711,3.1711,3.1711,3.1711,3.1711,3.1711,3.1711,3.1711,3.1711,3.1711,3.1711,3.1711,3.1711,3.1711,3.1711,3.1711,3.1751,3.1764,3.1724,3.1904,3.2198,3.2554,3.2835,3.308,3.3374,3.3414,3.3414,3.3414,3.3414,3.3414,3.3414,3.3454,3.3587,3.3868,3.3961,3.4229,3.4788,3.4855,3.4937,3.5191,3.5191,3.5191,3.5191,3.5191,3.5191,3.5191,3.5191,3.5191,2.6689,2.4625,2.3359,2.3612,2.3955,2.4235,2.4369,2.497,2.5518,2.5518,2.5985,2.6386,2.6386,2.6386,2.6533,2.6947,2.7202,2.7456,2.7871,2.8085,2.8179,2.8179,2.8179,2.8179,2.8179,2.8179,2.8179,2.8179,2.8179,2.8179,2.8179,2.8179,2.8179,2.8179,2.8179,2.8179,2.8179,2.8179,2.8419,2.8815,2.9112,2.9472,2.9913,2.9913,2.9913,2.9913,2.9913,2.9913,2.9913,2.9913,2.9913,2.9913,2.9913,2.9913,2.9913,2.9913,2.9993,3.0114,3.0114,3.0394,3.0742,3.0742,3.0942,3.1209,3.137,3.1423,3.145,3.1671,3.1711,3.1711,3.1711,3.1711,3.1711,3.1711,3.1711,3.1711,3.1711,3.1711,3.1711,3.1711,3.1711,3.1711,3.1711,3.1818,3.2059,3.2527,3.2701,3.2955,3.336,3.3414,3.3414,3.3414,3.3414,3.3414,3.3414,3.3414,3.3467,3.3614,3.3788,3.4002,3.4269,3.4641,3.4882,3.495,3.511,3.5191,3.5191,3.5191,3.5191,3.5191,3.5191,3.5191,2.682,2.506,2.3886,2.3839,2.4057,2.4359,2.4405,2.493,2.5424,2.5504,2.5919,2.6306,2.6373,2.6386,2.648,2.6774,2.7068,2.7403,2.7655,2.7991,2.8179,2.8179,2.8179,2.8179,2.8179,2.8179,2.8179,2.8179,2.8179,2.8179,2.8179,2.8179,2.8179,2.8179,2.8179,2.8179,2.8179,2.8179,2.8446,2.8895,2.8961,2.9268,2.9806,2.9887,2.9913,2.9913,2.9913,2.9913,2.9913,2.9913,2.9913,2.9913,2.9913,2.9913,2.9913,2.9913,2.9913,2.9913,2.9913,3.0114,3.04,3.04,3.06,3.0835,3.1049,3.1116,3.1156,3.1383,3.145,3.145,3.145,3.145,3.151,3.1543,3.1557,3.1583,3.1698,3.1711,3.1711,3.1711,3.1711,3.1711,3.1711,3.1711,3.1898,3.2407,3.2541,3.2781,3.324,3.336,3.3414,3.3414,3.3414,3.3414,3.3414,3.3414,3.3414,3.3414,3.3627,3.3801,3.3881,3.4309,3.4576,3.4643,3.4937,3.5124,3.5191,3.5191,3.5191,3.5191,3.5191,3.5191,2.7149,2.6289,2.5442,2.5236,2.4979,2.4806,2.5022,2.5101,2.5184,2.5451,2.5758,2.6105,2.6333,2.6386,2.648,2.6774,2.7068,2.7403,2.7655,2.7991,2.8179,2.8179,2.8179,2.8179,2.8179,2.8179,2.8179,2.8179,2.8179,2.8179,2.8179,2.8179,2.8179,2.8179,2.8179,2.8179,2.8179,2.8179,2.8353,2.8631,2.8868,2.9161,2.9513,2.9793,2.9913,2.9913,2.9913,2.9913,2.9913,2.9913,2.9913,2.9913,2.9913,2.9913,2.9913,2.9913,2.9913,2.9913,2.9913,3.0114,3.04,3.04,3.06,3.0795,3.0808,3.0808,3.0822,3.0835,3.0835,3.0835,3.0835,3.0835,3.0902,3.1183,3.1249,3.133,3.161,3.1711,3.1711,3.1711,3.1711,3.1711,3.1711,3.1711,3.1818,3.2078,3.242,3.2701,3.2959,3.324,3.3414,3.3414,3.3414,3.3414,3.3414,3.3414,3.3414,3.3414,3.3427,3.3574,3.3881,3.3921,3.4055,3.4336,3.4629,3.4976,3.5191,3.5191,3.5191,3.5191,3.5191,3.5191,2.6921,2.6011,2.5137,2.4848,2.4981,2.509,2.4941,2.5144,2.5331,2.5251,2.5663,2.6024,2.6131,2.6266,2.6426,2.6533,2.6787,2.7081,2.7375,2.7669,2.7965,2.8165,2.8179,2.8179,2.8179,2.8179,2.8179,2.8179,2.8179,2.8179,2.8179,2.8179,2.8179,2.8179,2.8179,2.8179,2.8179,2.8179,2.8339,2.8604,2.8711,2.9018,2.9486,2.9593,2.974,2.9913,2.9913,2.9913,2.9913,2.9913,2.9913,2.9913,2.9913,2.9913,2.9913,2.9913,2.9913,2.9913,2.9913,2.998,3.0074,3.0074,3.014,3.0261,3.0507,3.056,3.06,3.0742,3.0795,3.0795,3.0795,3.0795,3.0822,3.0929,3.1089,3.1203,3.1356,3.153,3.1711,3.1711,3.1711,3.1711,3.1711,3.1711,3.1885,3.2367,3.2527,3.2768,3.32,3.3347,3.3414,3.3414,3.3414,3.3414,3.3414,3.3414,3.3414,3.3414,3.3414,3.3467,3.3574,3.3774,3.3935,3.4042,3.4336,3.4629,3.4923,3.511,3.5191,3.5191,3.5191,3.5191,2.7029,2.6358,2.5773,2.5152,2.5256,2.5419,2.5037,2.5116,2.5218,2.5125,2.5503,2.5877,2.5971,2.6238,2.6386,2.6386,2.664,2.6921,2.7269,2.7509,2.7802,2.8152,2.8179,2.8179,2.8179,2.8179,2.8179,2.8179,2.8179,2.8179,2.8179,2.8179,2.8179,2.8179,2.8179,2.8179,2.8179,2.8179,2.8286,2.8457,2.8564,2.8818,2.9192,2.9392,2.9593,2.978,2.9873,2.9913,2.9913,2.9913,2.9913,2.9913,2.9913,2.9913,2.9913,2.9913,2.9913,2.9913,2.9913,2.9913,2.9913,2.9913,2.9913,2.9953,3.0154,3.0207,3.0247,3.0448,3.0501,3.0501,3.0501,3.0568,3.0648,3.0648,3.0862,3.1076,3.1076,3.1396,3.1711,3.1711,3.1711,3.1711,3.1711,3.1711,3.1845,3.2246,3.246,3.2741,3.3066,3.3293,3.3414,3.3414,3.3414,3.3414,3.3414,3.3414,3.3414,3.3414,3.3414,3.3414,3.3414,3.3614,3.3721,3.3721,3.4028,3.4269,3.4521,3.4857,3.5097,3.5191,3.5191,3.5191,0.0,0.0,0.0,2.626,2.5999,2.5865,2.5335,2.4993,2.4883,2.5049,2.5291,2.5598,2.5931,2.6225,2.6386,2.6386,2.6627,2.6907,2.7255,2.7495,2.7789,2.8138,2.8165,2.8179,2.8179,2.8179,2.8179,2.8179,2.8179,2.8179,2.8179,2.8179,2.8179,2.8179,2.8179,2.8179,2.8179,2.8179,2.8179,2.8192,2.8444,2.8604,2.8631,2.9205,2.9472,2.9499,2.978,2.9913,2.9913,2.9913,2.9913,2.9913,2.9913,2.9913,2.9913,2.9913,2.9913,2.9913,2.9913,2.9913,2.9913,2.9913,2.9913,2.9913,2.9913,2.9913,2.9913,2.9913,2.9913,2.9913,2.9913,3.0127,3.0386,3.0386,3.0568,3.0782,3.0782,3.1236,3.1698,3.1698,3.1711,3.1711,3.1711,3.1711,3.1724,3.1724,3.2219,3.2594,3.2607,3.3053,3.3414,3.3414,3.3414,3.3414,3.3414,3.3414,3.3414,3.3414,3.3414,3.3414,3.3414,3.3414,3.3414,3.3414,3.3721,3.3881,3.3881,3.4521,3.4897,3.5191,3.5191,3.5191,2.6839,0.0,0.0,0.0,0.0,0.0,2.5521,2.5267,2.506,2.4908,2.5198,2.5545,2.5625,2.6052,2.6386,2.6386,2.6453,2.6613,2.6907,2.7014,2.7255,2.7762,2.7816,2.7951,2.8165,2.8179,2.8179,2.8179,2.8179,2.8179,2.8179,2.8179,2.8179,2.8179,2.8179,2.8179,2.8179,2.8179,2.8179,2.8179,2.8272,2.839,2.8617,2.8778,2.9085,2.9486,2.9566,2.9726,2.9913,2.9913,2.9913,2.9913,2.9913,2.9913,2.9913,2.9913,2.9913,2.9913,2.9913,2.9913,2.9913,2.9913,2.9913,2.9913,2.9913,2.9913,2.9913,2.9913,2.9913,2.9913,2.9913,2.998,3.0034,3.0034,3.0261,3.052,3.052,3.0768,3.1102,3.1303,3.1517,3.1711,3.1711,3.1711,3.1791,3.1944,3.2353,3.2674,3.2875,3.3187,3.3414,3.3414,3.3414,3.3414,3.3414,3.3414,3.3414,3.3414,3.3414,3.3414,3.3414,3.3414,3.3414,3.3414,3.3494,3.3654,3.3881,3.4255,3.4589,3.4949,3.5097,3.5191,0.0,0.0,0.0,0.0,0.0,0.0,2.5479,2.5226,2.5045,2.4946,2.535,2.5625,2.5371,2.5919,2.6346,2.6265,2.6252,2.636,2.676,2.6787,2.6987,2.7468,2.7629,2.7762,2.7978,2.8112,2.8179,2.8179,2.8179,2.8179,2.8179,2.8179,2.8179,2.8179,2.8179,2.8179,2.8179,2.8179,2.8179,2.8179,2.8179,2.8286,2.846,2.8551,2.8791,2.9125,2.9245,2.9472,2.974,2.974,2.9806,2.9913,2.9913,2.9913,2.9913,2.9913,2.9913,2.9913,2.9913,2.9913,2.9913,2.9913,2.9913,2.9913,2.9913,2.9913,2.9913,2.9913,2.9913,2.9913,2.9913,2.9913,2.9913,2.9913,3.0047,3.0181,3.0181,3.0408,3.0702,3.0982,3.1289,3.149,3.149,3.1583,3.173,3.1891,3.2171,3.2474,3.2585,3.2866,3.3093,3.3213,3.3227,3.328,3.34,3.3414,3.3414,3.3414,3.3414,3.3414,3.3414,3.3414,3.3414,3.3414,3.3414,3.3507,3.3694,3.3988,3.4295,3.4589,3.4883,3.5017,0.0,0.0,0.0,0.0,0.0,0.0,2.5315,2.51,2.4968,2.5126,2.558,2.5826,2.5326,2.5907,2.6379,2.6123,2.6098,2.6223,2.6694,2.6774,2.6881,2.7229,2.7442,2.7629,2.7696,2.7978,2.8152,2.8179,2.8179,2.8179,2.8179,2.8179,2.8179,2.8179,2.8179,2.8179,2.8179,2.8179,2.8179,2.8179,2.8179,2.8179,2.8192,2.843,2.8577,2.8617,2.8841,2.9165,2.9432,2.9472,2.9659,2.9913,2.9913,2.9913,2.9913,2.9913,2.9913,2.9913,2.9913,2.9913,2.9913,2.9913,2.9913,2.9913,2.9913,2.9913,2.9913,2.9913,2.9913,2.9913,2.9913,2.9913,2.9913,2.9913,2.9913,2.9913,2.9913,3.0127,3.0381,3.0648,3.0955,3.1183,3.1183,3.1423,3.1623,3.1623,3.1891,3.2104,3.2104,3.2407,3.2701,3.2946,3.2973,3.3093,3.3387,3.3414,3.3414,3.3414,3.3414,3.3414,3.3414,3.3414,3.3414,3.3414,3.3414,3.3414,3.3414,3.3734,3.4015,3.4282,3.4576,3.471,0.0,0.0,0.0,0.0,0.0,0.0,2.5141,2.5066,2.5048,2.5379,2.5632,2.5891,2.6106,2.6457,2.6692,2.6671,2.6561,2.6468,2.6465,2.6466,2.6587,2.6867,2.6961,2.7175,2.7655,2.7749,2.7924,2.8165,2.8179,2.8179,2.8179,2.8179,2.8179,2.8179,2.8179,2.8179,2.8179,2.8179,2.8179,2.8179,2.8179,2.8179,2.8192,2.8245,2.8419,2.8604,2.8671,2.8858,2.9095,2.9379,2.9659,2.9913,2.9913,2.9913,2.9913,2.9913,2.9913,2.9913,2.9913,2.9913,2.9913,2.9913,2.9913,2.9913,2.9913,2.9913,2.9913,2.9913,2.9913,2.9913,2.9913,2.9913,2.9913,2.9913,2.9913,2.9913,2.9913,2.9967,3.002,3.0074,3.0515,3.0875,3.0875,3.1116,3.1316,3.1316,3.1757,3.2104,3.2104,3.2407,3.2701,3.2946,3.2973,3.3093,3.3387,3.3414,3.3414,3.3414,3.3414,3.3414,3.3414,3.3414,3.3414,3.3414,3.3414,3.3414,3.3414,3.3734,3.3921,3.3975,3.4269,3.4402,0.0,0.0,0.0,2.5257,0.0,0.0,0.0,2.5114,2.5123,2.555,2.5853,2.606,2.6145,2.6503,2.6765,2.6605,2.6359,2.6208,2.6484,2.6435,2.644,2.6587,2.6734,2.6934,2.7228,2.7522,2.7816,2.8165,2.8179,2.8179,2.8179,2.8179,2.8179,2.8179,2.8179,2.8179,2.8179,2.8179,2.8179,2.8179,2.8179,2.8179,2.8179,2.8179,2.8272,2.8419,2.8419,2.8551,2.8788,2.8991,2.9219,2.9468,2.9762,2.9913,2.9913,2.9913,2.9913,2.9913,2.9913,2.9913,2.9913,2.9913,2.9913,2.9913,2.9913,2.9913,2.9913,2.9913,2.9913,2.9913,2.9913,2.9913,2.9913,2.9913,2.9913,2.9913,2.9913,2.9913,2.9913,2.9913,3.0154,3.0408,3.0555,3.0822,3.1062,3.1162,3.1476,3.1717,3.1864,3.2059,3.2273,3.2505,3.2728,3.2929,3.3173,3.3334,3.3414,3.3414,3.3414,3.3414,3.3414,3.3414,3.3414,3.3414,3.3414,3.3414,3.3414,3.3574,3.3654,3.3654,3.3961,3.4108,0.0,0.0,0.0,0.0,0.0,2.5357,0.0,0.0,0.0,2.5799,2.615,2.6328,2.617,2.6555,2.6772,2.6481,2.6149,2.6101,2.6517,2.652,2.6445,2.6399,2.66,2.672,2.6774,2.7362,2.7802,2.8085,2.8152,2.8179,2.8179,2.8179,2.8179,2.8179,2.8179,2.8179,2.8179,2.8179,2.8179,2.8179,2.8179,2.8179,2.8179,2.8179,2.8179,2.8179,2.8179,2.8326,2.8524,2.8577,2.8751,2.8975,2.9606,2.9833,2.9847,2.99,2.9913,2.9913,2.9913,2.9913,2.9913,2.9913,2.9913,2.9913,2.9913,2.9913,2.9913,2.9913,2.9913,2.9913,2.9913,2.9913,2.9913,2.9913,2.9913,2.9913,2.9913,2.9913,2.9913,2.9913,2.9913,2.9993,3.0279,3.0515,3.0795,3.1022,3.1102,3.1249,3.1543,3.1583,3.1717,3.2064,3.242,3.2714,3.3009,3.324,3.3414,3.3414,3.3414,3.3414,3.3414,3.3414,3.3414,3.3414,3.3414,3.3414,3.3414,3.3414,3.3414,3.3414,3.3681,3.3801,0.0,0.0,0.0,0.0,2.5747,0.0,0.0,0.0,2.6747,2.6247,0.0,2.6729,2.6997,0.0,0.0,2.6731,2.6755,2.6768,2.6523,2.6639,2.6678,2.6423,2.6413,2.6547,2.68,2.7362,2.7709,2.7749,2.8031,2.8179,2.8179,2.8179,2.8179,2.8179,2.8179,2.8179,2.8179,2.8179,2.8179,2.8179,2.8179,2.8179,2.8179,2.8179,2.8179,2.8179,2.8179,2.8205,2.8259,2.8497,2.8631,2.8711,2.9299,2.9539,2.9566,2.982,2.9913,2.9913,2.9913,2.9913,2.9913,2.9913,2.9913,2.9913,2.9913,2.9913,2.9913,2.9913,2.9913,2.9913,2.9913,2.9913,2.9913,2.9913,2.9913,2.9913,2.9913,2.9913,2.9913,2.9913,2.9913,2.9927,2.9967,3.0207,3.0467,3.0493,3.0675,3.0942,3.1236,3.1276,3.149,3.2038,3.242,3.2714,3.3009,3.324,3.3414,3.3414,3.3414,3.3414,3.3414,3.3414,3.3414,3.3414,3.3414,3.3414,3.3414,3.3414,3.3414,3.3414,3.3454,3.3467,0.0,0.0,0.0,0.0,0.0,0.0,0.0,0.0,2.6226,0.0,0.0,0.0,0.0,0.0,0.0,0.0,2.7352,2.7436,2.6874,2.7694,2.7848,2.6494,2.6495,2.6791,2.7167,2.7351,2.763,2.7978,2.7951,2.8005,2.8179,2.8179,2.8179,2.8179,2.8179,2.8179,2.8179,2.8179,2.8179,2.8179,2.8179,2.8179,2.8179,2.8179,2.8179,2.8179,2.8179,2.8179,2.8192,2.8326,2.8379,2.8419,2.8804,2.9072,2.9259,2.9553,2.9659,2.9686,2.986,2.9913,2.9913,2.9913,2.9913,2.9913,2.9913,2.9913,2.9913,2.9913,2.9913,2.9913,2.9913,2.9913,2.9913,2.9913,2.9913,2.9913,2.9913,2.9913,2.9913,2.9913,2.9913,2.9913,2.9913,3.002,3.0167,3.0386,3.0507,3.0648,3.0942,3.1116,3.1316,3.157,3.2011,3.2412,3.2755,3.2986,3.3227,3.34,3.3414,3.3414,3.3414,3.3414,3.3414,3.3414,3.3414,3.3414,3.3414,3.3414,3.3414,3.3414,3.3414,3.3414,2.5644,0.0,0.0,0.0,0.0,0.0,0.0,0.0,0.0,0.0,0.0,0.0,0.0,0.0,0.0,0.0,0.0,2.8155,2.7806,2.8881,0.0,0.0,0.0,2.6899,2.7163,2.7211,2.7417,2.7825,2.7743,2.7783,2.8045,2.8058,2.8098,2.8179,2.8179,2.8179,2.8179,2.8179,2.8179,2.8179,2.8179,2.8179,2.8179,2.8179,2.8179,2.8179,2.8179,2.8179,2.8179,2.8179,2.8179,2.8205,2.839,2.8604,2.8845,2.9219,2.9366,2.9406,2.97,2.9847,2.9913,2.9913,2.9913,2.9913,2.9913,2.9913,2.9913,2.9913,2.9913,2.9913,2.9913,2.9913,2.9913,2.9913,2.9913,2.9913,2.9913,2.9913,2.9913,2.9913,2.9913,2.9913,2.9913,2.9913,2.9993,3.0253,3.0234,3.0386,3.0635,3.0862,3.1049,3.1162,3.1677,3.2131,3.2567,3.2862,3.3106,3.3387,3.3414,3.3414,3.3414,3.3414,3.3414,3.3414,3.3414,3.3414,3.3414,3.3414,3.3414,3.3414,3.3414,3.3414,0.0,0.0,0.0,2.5028,0.0,0.0,0.0,0.0,2.7765,0.0,0.0,0.0,0.0,0.0,0.0,0.0,0.0,0.0,0.0,0.0,0.0,0.0,0.0,0.0,0.0,2.6873,2.7149,2.7059,2.734,2.7576,2.771,2.7709,2.7843,2.8179,2.8179,2.8179,2.8179,2.8179,2.8179,2.8179,2.8179,2.8179,2.8179,2.8179,2.8179,2.8179,2.8179,2.8179,2.8179,2.8179,2.8179,2.8179,2.8192,2.8205,2.8286,2.8831,2.9015,2.9055,2.9392,2.9686,2.9913,2.9913,2.9913,2.9913,2.9913,2.9913,2.9913,2.9913,2.9913,2.9913,2.9913,2.9913,2.9913,2.9913,2.9913,2.9913,2.9913,2.9913,2.9913,2.9913,2.9913,2.9913,2.9913,2.9913,2.9913,2.9927,2.9927,3.0034,3.0386,3.0426,3.0595,3.1122,3.1503,3.1965,3.2541,3.2862,3.3106,3.3387,3.3414,3.3414,3.3414,3.3414,3.3414,3.3414,3.3414,3.3414,3.3414,3.3414,3.3414,3.3414,3.3414,3.3414,0.0,0.0,2.5649,2.54,0.0,0.0,0.0,0.0,0.0,0.0,0.0,0.0,0.0,0.0,0.0,0.0,0.0,0.0,0.0,0.0,0.0,0.0,0.0,0.0,0.0,0.0,2.9344,2.9739,2.9779,2.9818,2.9893,2.8703,2.7991,2.7856,2.8085,2.8179,2.8179,2.8179,2.8179,2.8179,2.8179,2.8179,2.8179,2.8179,2.8179,2.8179,2.8179,2.8179,2.8179,2.8179,2.8179,2.8179,2.8179,2.8179,2.8232,2.8604,2.8751,2.8791,2.9085,2.9379,2.9633,2.9633,2.9766,2.9913,2.9913,2.9913,2.9913,2.9913,2.9913,2.9913,2.9913,2.9913,2.9913,2.9913,2.9913,2.9913,2.9913,2.9913,2.9913,2.9913,2.9913,2.9913,2.9913,2.9913,2.9913,2.9913,2.9913,2.9953,3.0047,3.0234,3.048,3.0635,3.0915,3.141,3.2185,3.2879,3.3307,3.34,3.3414,3.3414,3.3414,3.3414,3.3414,3.3414,3.3414,3.3414,3.3414,3.3414,3.3414,3.3414,3.3414,3.3414,2.5133,2.5518,0.0,2.5622,2.5889,0.0,2.7048,0.0,0.0,0.0,0.0,0.0,0.0,0.0,0.0,0.0,0.0,0.0,0.0,3.0584,0.0,0.0,0.0,0.0,0.0,0.0,2.9989,3.1187,3.0266,2.9854,3.0273,2.8869,2.8031,2.8016,2.8138,2.8179,2.8179,2.8179,2.8179,2.8179,2.8179,2.8179,2.8179,2.8179,2.8179,2.8179,2.8179,2.8179,2.8179,2.8179,2.8179,2.8179,2.8179,2.8179,2.8205,2.8406,2.8511,2.8631,2.8818,2.9085,2.9325,2.9325,2.9526,2.9766,2.9766,2.9833,2.994,3.0047,2.9993,2.994,3.0047,2.9993,2.9913,2.9913,2.9913,2.9913,2.9913,2.9913,2.9913,2.9913,2.9913,2.9913,2.9913,2.9913,2.9913,2.9913,2.9913,2.9913,2.9913,3.0087,3.0293,3.04,3.0574,3.1036,3.2024,3.2812,3.3307,3.34,3.3414,3.3414,3.3414,3.3414,3.3467,3.3574,3.3467,3.3467,3.3574,3.3467,3.3414,3.3414,3.3414,3.3414]},{"header":{"parameterUnit":"m.s-1","parameterCategory":1,"la1":30.6,"la2":29.2853,"lo1":-89.7004,"lo2":-87.6739,"dy":0.0162,"dx":0.0183,"nx":112,"ny":82,"refTime":"2023-04-06T12:00:00:Z","depth":0,"parameterNumber":3,"parameterNumberName":"V-component_of_WINDS"},"data":[0.0,0.0,0.0,0.0,0.0,0.0,0.0,0.0,0.0,0.0,0.0,0.0,0.0,0.0,0.0,0.0,0.0,0.0,0.0,0.0,0.0,0.0,0.0,0.0,0.0,0.0,0.0,0.0,0.0,0.0,0.0,0.0,0.0,0.0,0.0,0.0,0.0,0.0,0.0,0.0,0.0,0.0,0.0,0.0,0.0,0.0,0.0,0.0,0.0,0.0,0.0,0.0,0.0,0.0,0.0,0.0,0.0,0.0,0.0,0.0,0.0,0.0,0.0,0.0,0.0,0.0,0.0,0.0,0.0,0.0,0.0,0.0,0.0,0.0,0.0,0.0,0.0,0.0,0.0,0.0,0.0,0.0,0.0,0.0,0.0,0.0,0.0,0.0,0.0,0.0,0.0,5.1539,5.2114,5.2773,5.345,5.3518,5.3518,5.3518,0.0,0.0,0.0,0.0,0.0,0.0,0.0,0.0,0.0,0.0,0.0,0.0,0.0,0.0,0.0,0.0,0.0,0.0,0.0,0.0,0.0,0.0,0.0,0.0,0.0,0.0,0.0,0.0,0.0,0.0,0.0,0.0,0.0,0.0,0.0,0.0,0.0,0.0,0.0,0.0,0.0,0.0,0.0,0.0,0.0,0.0,0.0,0.0,0.0,0.0,0.0,0.0,0.0,0.0,0.0,0.0,0.0,0.0,0.0,0.0,0.0,0.0,0.0,0.0,0.0,0.0,0.0,0.0,0.0,0.0,0.0,0.0,0.0,0.0,0.0,0.0,0.0,0.0,0.0,0.0,0.0,0.0,0.0,0.0,0.0,0.0,0.0,0.0,0.0,0.0,0.0,0.0,0.0,0.0,0.0,0.0,0.0,0.0,0.0,0.0,0.0,0.0,0.0,0.0,5.2401,5.3078,5.3247,5.3382,5.3484,5.3518,5.3518,5.3518,0.0,0.0,0.0,0.0,0.0,0.0,0.0,0.0,0.0,0.0,0.0,0.0,0.0,0.0,0.0,0.0,0.0,0.0,0.0,0.0,0.0,0.0,0.0,0.0,0.0,0.0,0.0,0.0,0.0,0.0,0.0,0.0,0.0,0.0,0.0,0.0,0.0,0.0,0.0,0.0,0.0,0.0,0.0,0.0,0.0,0.0,0.0,0.0,0.0,0.0,0.0,0.0,0.0,0.0,0.0,0.0,0.0,0.0,0.0,0.0,0.0,0.0,0.0,0.0,0.0,0.0,0.0,0.0,0.0,0.0,0.0,0.0,0.0,0.0,0.0,0.0,0.0,0.0,0.0,0.0,0.0,0.0,0.0,0.0,0.0,0.0,0.0,0.0,0.0,0.0,0.0,0.0,0.0,0.0,0.0,0.0,0.0,0.0,0.0,0.0,0.0,0.0,0.0,5.2942,5.3078,5.345,5.3518,5.3653,5.4059,5.4093,5.4093,5.4093,5.4093,0.0,0.0,0.0,0.0,0.0,0.0,0.0,0.0,0.0,0.0,0.0,0.0,0.0,0.0,0.0,0.0,0.0,0.0,0.0,0.0,0.0,0.0,0.0,0.0,0.0,0.0,0.0,0.0,0.0,0.0,0.0,0.0,0.0,0.0,0.0,0.0,0.0,0.0,0.0,0.0,0.0,0.0,0.0,0.0,0.0,0.0,0.0,0.0,0.0,0.0,0.0,0.0,0.0,0.0,0.0,0.0,0.0,0.0,0.0,0.0,0.0,0.0,0.0,0.0,0.0,0.0,0.0,0.0,0.0,0.0,0.0,0.0,0.0,0.0,0.0,0.0,0.0,0.0,0.0,0.0,0.0,0.0,0.0,0.0,0.0,0.0,0.0,0.0,0.0,0.0,0.0,0.0,0.0,0.0,0.0,0.0,0.0,0.0,0.0,0.0,0.0,0.0,5.3923,5.4008,5.4008,5.4008,5.4262,5.4803,5.4871,5.4871,5.4871,5.4871,0.0,0.0,0.0,0.0,0.0,0.0,0.0,0.0,0.0,0.0,0.0,0.0,0.0,0.0,0.0,0.0,0.0,0.0,0.0,0.0,0.0,0.0,0.0,0.0,0.0,0.0,0.0,0.0,0.0,0.0,0.0,0.0,0.0,0.0,0.0,0.0,0.0,0.0,0.0,0.0,0.0,0.0,0.0,0.0,0.0,0.0,0.0,0.0,0.0,0.0,0.0,0.0,0.0,0.0,0.0,0.0,0.0,0.0,0.0,0.0,0.0,0.0,0.0,0.0,0.0,0.0,0.0,0.0,0.0,0.0,0.0,0.0,0.0,0.0,0.0,0.0,0.0,0.0,0.0,0.0,0.0,0.0,0.0,0.0,0.0,0.0,0.0,0.0,0.0,0.0,0.0,0.0,0.0,0.0,0.0,0.0,0.0,0.0,0.0,0.0,0.0,0.0,5.5141,5.5564,5.5564,5.5564,5.5564,5.5631,5.5631,5.5631,5.5631,5.5631,0.0,0.0,0.0,0.0,0.0,0.0,0.0,0.0,0.0,0.0,0.0,0.0,0.0,0.0,0.0,0.0,0.0,0.0,0.0,0.0,0.0,0.0,0.0,0.0,0.0,0.0,0.0,0.0,0.0,0.0,0.0,0.0,0.0,0.0,0.0,0.0,0.0,0.0,0.0,0.0,0.0,0.0,0.0,0.0,0.0,0.0,0.0,0.0,0.0,0.0,0.0,0.0,0.0,0.0,0.0,0.0,0.0,0.0,0.0,0.0,0.0,0.0,0.0,0.0,0.0,0.0,0.0,0.0,0.0,0.0,0.0,0.0,0.0,0.0,0.0,0.0,0.0,0.0,0.0,0.0,0.0,0.0,0.0,0.0,0.0,0.0,0.0,0.0,0.0,0.0,0.0,0.0,0.0,0.0,0.0,0.0,0.0,0.0,0.0,0.0,0.0,0.0,5.553,5.5699,0.0,5.5699,5.5902,5.6359,5.6393,5.6393,5.6393,0.0,0.0,0.0,0.0,0.0,0.0,0.0,0.0,0.0,0.0,0.0,0.0,0.0,0.0,0.0,0.0,0.0,0.0,0.0,0.0,0.0,0.0,0.0,0.0,0.0,0.0,0.0,0.0,0.0,0.0,0.0,0.0,0.0,0.0,0.0,0.0,0.0,0.0,0.0,0.0,0.0,0.0,0.0,0.0,0.0,0.0,0.0,0.0,0.0,0.0,0.0,0.0,0.0,0.0,0.0,0.0,0.0,0.0,0.0,0.0,0.0,0.0,0.0,0.0,0.0,0.0,0.0,0.0,0.0,0.0,0.0,0.0,0.0,0.0,0.0,0.0,0.0,0.0,0.0,0.0,0.0,0.0,0.0,0.0,0.0,0.0,0.0,0.0,0.0,0.0,0.0,0.0,0.0,0.0,0.0,0.0,0.0,0.0,0.0,0.0,0.0,0.0,5.6037,5.624,5.6393,0.0,5.6393,5.6596,5.7103,5.7137,5.7137,5.7137,0.0,0.0,0.0,0.0,0.0,0.0,0.0,0.0,0.0,0.0,0.0,0.0,0.0,0.0,0.0,0.0,0.0,0.0,0.0,0.0,0.0,0.0,0.0,0.0,0.0,0.0,0.0,0.0,0.0,0.0,0.0,0.0,0.0,0.0,0.0,0.0,0.0,0.0,0.0,0.0,0.0,0.0,0.0,0.0,0.0,0.0,0.0,0.0,0.0,0.0,0.0,0.0,0.0,0.0,0.0,0.0,0.0,0.0,0.0,0.0,0.0,0.0,0.0,0.0,0.0,0.0,0.0,0.0,0.0,0.0,0.0,0.0,0.0,0.0,0.0,0.0,0.0,0.0,0.0,0.0,0.0,0.0,0.0,0.0,0.0,0.0,0.0,0.0,0.0,0.0,0.0,0.0,0.0,0.0,0.0,0.0,0.0,0.0,0.0,0.0,0.0,0.0,5.6799,5.7442,5.79,5.79,5.79,5.79,5.79,5.79,5.79,0.0,0.0,0.0,0.0,0.0,0.0,0.0,0.0,0.0,0.0,0.0,0.0,0.0,0.0,0.0,0.0,0.0,0.0,0.0,0.0,0.0,0.0,0.0,0.0,0.0,0.0,0.0,0.0,0.0,0.0,0.0,0.0,0.0,0.0,0.0,0.0,0.0,0.0,0.0,0.0,0.0,0.0,0.0,0.0,0.0,0.0,0.0,0.0,0.0,0.0,0.0,0.0,0.0,0.0,0.0,0.0,0.0,0.0,0.0,0.0,0.0,0.0,0.0,0.0,0.0,0.0,0.0,0.0,0.0,0.0,0.0,0.0,0.0,0.0,0.0,0.0,0.0,0.0,0.0,0.0,0.0,0.0,0.0,0.0,0.0,0.0,0.0,0.0,0.0,0.0,0.0,0.0,0.0,0.0,0.0,0.0,0.0,0.0,0.0,0.0,0.0,0.0,0.0,5.7595,5.7764,5.79,5.79,5.79,5.79,5.79,5.79,5.79,5.79,0.0,0.0,0.0,0.0,0.0,0.0,0.0,0.0,0.0,0.0,0.0,0.0,0.0,0.0,0.0,0.0,0.0,0.0,0.0,0.0,0.0,0.0,0.0,0.0,0.0,0.0,0.0,0.0,0.0,0.0,0.0,0.0,0.0,0.0,0.0,0.0,0.0,0.0,0.0,0.0,0.0,0.0,0.0,0.0,0.0,0.0,0.0,0.0,0.0,0.0,0.0,0.0,0.0,0.0,0.0,0.0,0.0,0.0,0.0,0.0,0.0,0.0,0.0,0.0,0.0,0.0,0.0,0.0,0.0,0.0,0.0,0.0,0.0,0.0,0.0,0.0,0.0,0.0,0.0,0.0,0.0,0.0,0.0,0.0,0.0,0.0,0.0,0.0,0.0,0.0,0.0,0.0,0.0,0.0,0.0,0.0,0.0,0.0,0.0,0.0,0.0,0.0,5.79,5.79,5.79,5.79,5.79,5.79,5.79,5.79,5.79,5.79,0.0,0.0,0.0,0.0,0.0,0.0,0.0,0.0,0.0,0.0,0.0,0.0,0.0,0.0,0.0,0.0,0.0,0.0,0.0,0.0,0.0,0.0,0.0,0.0,0.0,0.0,0.0,0.0,0.0,0.0,0.0,0.0,0.0,0.0,0.0,0.0,0.0,0.0,0.0,0.0,0.0,0.0,0.0,0.0,0.0,0.0,0.0,0.0,0.0,0.0,0.0,0.0,0.0,0.0,0.0,0.0,0.0,0.0,0.0,0.0,0.0,0.0,0.0,0.0,0.0,0.0,0.0,0.0,0.0,0.0,0.0,0.0,0.0,0.0,0.0,0.0,0.0,0.0,0.0,0.0,0.0,0.0,0.0,0.0,0.0,0.0,0.0,0.0,0.0,0.0,0.0,0.0,0.0,0.0,0.0,0.0,0.0,0.0,0.0,0.0,0.0,0.0,5.79,5.79,5.79,5.79,5.79,5.79,5.79,5.79,5.79,5.79,0.0,0.0,0.0,0.0,0.0,0.0,0.0,0.0,0.0,0.0,0.0,0.0,0.0,0.0,0.0,0.0,0.0,0.0,0.0,0.0,0.0,0.0,0.0,0.0,0.0,0.0,0.0,0.0,0.0,0.0,0.0,0.0,0.0,0.0,0.0,0.0,0.0,0.0,0.0,0.0,0.0,0.0,0.0,0.0,0.0,0.0,0.0,0.0,0.0,0.0,0.0,0.0,0.0,0.0,0.0,0.0,0.0,0.0,0.0,0.0,4.6811,0.0,0.0,0.0,0.0,0.0,0.0,0.0,0.0,0.0,0.0,0.0,0.0,0.0,0.0,0.0,0.0,0.0,0.0,0.0,0.0,0.0,0.0,0.0,0.0,0.0,0.0,0.0,0.0,0.0,0.0,0.0,0.0,0.0,0.0,0.0,0.0,0.0,0.0,0.0,0.0,0.0,5.79,5.79,5.79,5.79,5.79,5.79,5.79,5.79,5.79,5.79,0.0,0.0,0.0,0.0,0.0,0.0,0.0,0.0,0.0,0.0,0.0,0.0,0.0,0.0,0.0,0.0,0.0,0.0,0.0,0.0,0.0,0.0,0.0,0.0,0.0,0.0,0.0,0.0,0.0,0.0,0.0,0.0,0.0,0.0,0.0,0.0,0.0,0.0,0.0,0.0,0.0,0.0,0.0,0.0,0.0,0.0,0.0,0.0,0.0,0.0,0.0,0.0,0.0,0.0,0.0,0.0,0.0,0.0,0.0,0.0,0.0,4.7274,0.0,0.0,0.0,0.0,0.0,0.0,0.0,0.0,0.0,0.0,0.0,0.0,0.0,0.0,0.0,0.0,0.0,0.0,0.0,0.0,0.0,0.0,0.0,0.0,0.0,0.0,0.0,0.0,0.0,0.0,0.0,0.0,0.0,0.0,0.0,0.0,0.0,0.0,0.0,0.0,5.79,5.79,5.79,5.79,5.79,5.79,5.79,5.79,5.79,5.79,5.79,0.0,0.0,0.0,0.0,0.0,0.0,0.0,0.0,0.0,0.0,0.0,0.0,0.0,0.0,0.0,0.0,0.0,0.0,0.0,0.0,0.0,0.0,0.0,0.0,0.0,0.0,0.0,0.0,0.0,0.0,0.0,0.0,0.0,0.0,0.0,0.0,0.0,0.0,0.0,0.0,0.0,0.0,0.0,0.0,0.0,0.0,0.0,0.0,0.0,0.0,0.0,0.0,0.0,5.0164,5.0567,5.1224,5.2527,5.23,5.083,4.9952,4.9177,4.8587,4.8413,0.0,0.0,0.0,0.0,0.0,0.0,0.0,0.0,0.0,0.0,0.0,0.0,0.0,0.0,0.0,0.0,0.0,0.0,0.0,0.0,0.0,0.0,0.0,0.0,5.79,5.7712,0.0,0.0,0.0,0.0,0.0,0.0,0.0,0.0,0.0,0.0,0.0,0.0,5.8272,5.8287,5.8287,5.8287,5.8287,5.8287,5.8287,5.8287,5.8287,5.8287,5.8287,5.8287,0.0,0.0,0.0,0.0,0.0,0.0,0.0,0.0,0.0,0.0,0.0,0.0,0.0,0.0,0.0,0.0,0.0,0.0,0.0,0.0,0.0,0.0,0.0,0.0,0.0,0.0,0.0,0.0,0.0,0.0,0.0,0.0,4.3046,4.2747,0.0,0.0,0.0,0.0,0.0,0.0,0.0,0.0,0.0,0.0,0.0,0.0,0.0,4.9538,5.0273,5.0811,5.117,5.1272,5.2364,5.2929,5.3101,5.4539,5.4727,5.392,5.3769,0.0,4.9934,5.0672,0.0,0.0,0.0,0.0,0.0,0.0,0.0,0.0,0.0,0.0,0.0,0.0,0.0,0.0,0.0,0.0,0.0,0.0,0.0,0.0,0.0,0.0,5.6283,5.7597,5.79,5.7866,0.0,5.7832,5.79,5.79,5.79,0.0,0.0,0.0,0.0,0.0,0.0,0.0,5.9742,5.981,5.981,5.981,5.981,5.981,5.981,5.981,5.981,5.981,5.981,5.981,5.981,5.981,0.0,0.0,0.0,0.0,0.0,0.0,0.0,0.0,0.0,0.0,0.0,0.0,0.0,0.0,0.0,0.0,0.0,0.0,0.0,0.0,0.0,0.0,0.0,0.0,0.0,0.0,0.0,0.0,0.0,4.2601,4.3413,4.2913,4.3878,4.4386,0.0,0.0,0.0,0.0,0.0,0.0,0.0,0.0,0.0,5.1285,5.2131,5.2854,5.3457,5.4128,5.4482,5.4482,5.5053,5.5322,5.5322,5.5977,5.6115,5.5805,5.5805,5.5074,5.3736,5.2161,5.1481,5.1494,0.0,0.0,0.0,0.0,5.2402,5.2519,5.3387,5.3703,0.0,5.5035,0.0,0.0,0.0,0.0,0.0,0.0,0.0,0.0,0.0,0.0,5.7455,5.829,5.8829,5.9266,5.9813,5.992,5.9623,0.0,5.8524,5.866,5.9066,0.0,0.0,0.0,0.0,5.9742,6.0047,6.0114,6.0114,6.0114,6.0114,6.0114,6.0114,6.0114,6.0114,6.0114,6.0114,6.0114,6.0114,6.0114,6.0114,0.0,0.0,0.0,0.0,0.0,0.0,0.0,0.0,0.0,0.0,0.0,0.0,0.0,0.0,0.0,0.0,0.0,0.0,0.0,0.0,0.0,0.0,0.0,0.0,0.0,0.0,0.0,0.0,4.3257,4.4344,4.3838,4.5086,4.5922,0.0,0.0,0.0,0.0,0.0,0.0,5.1445,5.2488,5.3261,5.3657,5.48,5.5548,5.5892,5.6495,5.6874,5.7081,5.7081,5.7185,5.7357,5.7564,5.7564,5.7357,5.7598,5.7564,5.7117,5.4092,5.2875,5.2917,5.3246,5.3484,5.3687,5.4092,5.4278,5.4396,5.5136,5.5405,5.5508,5.6315,5.6538,5.6472,5.6371,0.0,0.0,0.0,0.0,5.6712,5.7946,5.8875,5.9546,5.9885,6.0535,6.13,6.1987,6.2281,6.1884,0.0,5.9657,5.9827,6.0372,0.0,0.0,0.0,0.0,6.0825,6.1197,6.1264,6.1264,6.1264,6.1264,6.1264,6.1264,6.1264,6.1264,6.1264,6.1264,6.1163,6.0994,6.096,6.0892,6.0689,0.0,0.0,0.0,0.0,0.0,0.0,0.0,0.0,0.0,0.0,0.0,0.0,0.0,0.0,0.0,0.0,0.0,0.0,0.0,0.0,0.0,0.0,0.0,0.0,0.0,0.0,0.0,0.0,0.0,4.7022,4.7151,0.0,0.0,0.0,0.0,4.9404,5.1979,5.3513,5.3547,5.5444,5.6567,5.66,5.6669,5.672,5.6736,5.6771,5.715,5.784,5.784,5.8219,5.8926,5.9668,5.9599,5.8926,5.9702,5.9599,5.8754,5.7186,5.6944,5.7583,5.76,5.8031,5.8427,5.6916,5.6368,5.6265,5.5611,5.5405,5.5541,5.6464,5.6673,5.6488,5.6488,5.6867,0.0,0.0,5.9367,6.0733,6.1314,6.2151,6.2817,6.2643,6.3213,6.3795,6.3844,6.446,6.4303,0.0,6.138,6.1415,6.1397,0.0,6.0876,6.319,6.2814,6.2787,6.4174,6.4377,6.4377,6.4377,6.4377,6.4377,6.4377,6.4377,6.4377,6.4377,6.4377,6.4072,6.3342,6.3342,6.3024,6.2299,6.2299,0.0,0.0,0.0,0.0,0.0,0.0,0.0,0.0,0.0,0.0,0.0,0.0,0.0,0.0,0.0,0.0,0.0,0.0,0.0,0.0,0.0,0.0,0.0,0.0,0.0,0.0,0.0,0.0,4.9224,4.9761,0.0,4.9953,5.0908,5.1746,5.2197,5.4374,5.5681,5.5681,5.6844,5.7736,5.8219,5.8702,5.9219,5.9702,5.9702,5.984,6.0082,6.0082,6.022,6.0496,6.0771,6.0737,6.0496,6.0771,6.0737,6.0461,5.9909,5.9288,5.8616,5.8616,5.8754,5.8926,5.8324,5.81,5.8066,5.7825,5.7721,5.7859,5.872,5.9254,5.9477,5.8874,5.9133,5.9711,5.9942,6.0781,6.1754,6.2438,6.3582,6.4527,6.4331,6.524,6.6347,6.6968,6.731,6.741,6.7049,6.567,6.4736,6.5212,6.5006,6.488,6.5163,6.4913,6.4678,6.4613,6.4613,6.4613,6.4613,6.4613,6.4613,6.4613,6.4613,6.4613,6.4613,6.4613,6.4478,6.4241,6.4208,6.4072,6.3802,6.3802,6.3802,0.0,0.0,0.0,0.0,0.0,0.0,0.0,0.0,0.0,0.0,0.0,0.0,0.0,0.0,0.0,0.0,0.0,0.0,0.0,0.0,0.0,0.0,0.0,0.0,0.0,0.0,4.9558,5.0706,5.1451,5.2017,5.2314,5.343,5.4276,5.4714,5.6485,5.7529,5.7529,5.8495,5.9288,5.9754,6.0565,6.122,6.1703,6.1944,6.2186,6.2461,6.2461,6.2599,6.2841,6.2841,6.2841,6.2841,6.2841,6.2841,6.2841,6.2841,6.2255,6.122,6.0168,5.9944,6.0185,6.0185,6.0358,6.053,6.0289,6.0151,6.0183,6.0755,6.1587,6.2315,6.1672,6.2184,6.2964,6.3206,6.383,6.4572,6.5286,6.6433,6.7374,6.7229,6.8383,6.9693,7.0319,7.068,7.1023,7.1531,6.9421,6.7799,6.8532,6.844,6.8116,6.7664,6.7679,6.7333,6.6275,6.6419,6.6487,6.6144,6.6136,6.6136,6.6136,6.6136,6.6136,6.6136,6.6136,6.6,6.573,6.5696,6.5493,6.4986,6.4715,6.4613,6.4613,0.0,0.0,0.0,0.0,0.0,0.0,0.0,0.0,0.0,0.0,0.0,0.0,0.0,0.0,0.0,0.0,0.0,0.0,0.0,0.0,0.0,0.0,0.0,4.8794,4.9742,5.0785,5.155,5.2284,5.3518,5.5464,5.5276,5.5551,5.6807,5.8254,5.9064,5.9099,6.053,6.1358,6.1392,6.2151,6.2583,6.2618,6.3308,6.4014,6.4738,6.4738,6.5152,6.5895,6.5895,6.5895,6.5895,6.5895,6.5895,6.5895,6.5895,6.5895,6.5619,6.2565,6.1875,6.2583,6.2549,6.2997,6.3515,6.2808,6.251,6.2387,6.2455,6.349,6.472,6.472,6.5772,6.7112,6.7746,6.8491,6.9279,6.9969,7.0734,7.1344,7.138,7.2569,7.3744,7.3744,7.4368,7.494,7.4977,7.2428,7.0484,7.1203,7.0606,7.0238,7.0806,7.1002,0.0,6.9352,7.0079,7.0291,6.9286,6.9156,6.9156,6.9147,6.9113,6.9113,6.9113,6.9113,6.8741,6.7963,6.7929,6.7252,6.5852,6.5087,6.4749,6.4749,0.0,0.0,0.0,0.0,0.0,0.0,0.0,0.0,0.0,0.0,0.0,0.0,0.0,0.0,0.0,0.0,0.0,0.0,0.0,0.0,0.0,0.0,5.1686,5.137,5.2158,5.3388,5.495,5.5441,5.6071,5.7168,5.7636,5.8239,5.9219,6.0151,6.0909,6.1496,6.1962,6.2668,6.3738,6.3979,6.4358,6.4964,6.5171,6.5378,6.5585,6.5585,6.5688,6.5895,6.5895,6.5895,6.5895,6.5895,6.5895,6.5895,6.5895,6.5895,6.5757,6.4324,6.391,6.4014,6.3496,6.3427,6.3657,6.3973,6.441,6.4949,6.5466,6.631,6.7134,6.7134,6.7757,6.8538,6.8706,6.9296,6.9986,7.0765,7.1564,7.2312,7.2899,7.3817,7.4588,7.4588,7.5212,7.5946,7.6518,7.6402,7.5713,7.4141,7.3665,7.3357,7.2847,7.2779,0.0,7.1412,7.2018,7.2158,7.1105,7.1022,7.0723,6.9945,6.9417,6.9113,6.9113,6.9113,6.9011,6.8774,6.8774,6.8571,6.8166,6.7963,6.7861,0.0,0.0,0.0,0.0,0.0,0.0,0.0,0.0,0.0,0.0,0.0,0.0,0.0,0.0,0.0,0.0,0.0,0.0,0.0,0.0,0.0,0.0,5.3324,5.4335,5.4254,5.4405,5.5136,5.6864,5.7463,5.8012,5.8806,5.953,6.0289,6.1082,6.1841,6.2599,6.3358,6.3756,6.4481,6.5635,6.5945,6.6359,6.6827,6.7482,6.762,6.7344,6.7655,6.7793,6.7793,6.7793,6.7793,6.7793,6.7793,6.7793,6.7793,6.7793,6.7793,0.0,0.0,0.0,0.0,0.0,6.529,6.5089,6.5501,6.5932,6.6391,6.7121,6.8099,6.909,6.9751,7.0453,7.1104,7.1432,7.1831,7.2239,7.2701,7.3656,7.461,7.5102,7.6093,7.6937,7.6937,7.7304,7.7781,7.8259,7.8772,0.0,7.7194,7.6937,7.6622,7.5595,7.5832,7.5631,7.4236,7.4811,7.4763,7.326,7.3171,7.2745,7.1661,7.1176,0.0,0.0,0.0,7.0939,7.0939,7.0635,0.0,0.0,0.0,7.0026,7.0026,0.0,0.0,0.0,6.7218,6.7117,0.0,0.0,0.0,0.0,0.0,0.0,0.0,0.0,0.0,0.0,0.0,0.0,0.0,0.0,0.0,0.0,5.5494,5.6874,5.7012,5.6444,5.6478,5.7874,5.8771,5.9599,6.0392,6.1116,6.1875,6.2687,6.3427,6.422,6.5048,0.0,0.0,0.0,0.0,6.8359,6.8359,6.9725,7.007,6.9414,7.0104,7.0415,7.0415,7.0415,7.0415,7.0415,7.0415,7.0455,7.0522,7.0522,7.0583,7.0386,6.7623,6.6927,6.7603,6.8358,6.8223,6.7654,6.7749,0.0,0.0,6.8532,6.9669,7.0986,7.2358,7.3266,7.3964,7.4683,7.4903,7.4903,7.5014,7.6151,7.7326,7.7436,7.8662,7.9816,7.9816,7.989,7.9926,7.9926,8.0,8.0073,8.0073,7.9926,7.9487,7.8519,7.9185,7.9119,7.7279,7.7901,7.7773,7.5804,0.0,0.0,7.3923,7.3603,7.35,7.35,7.35,7.35,7.35,7.2868,7.2529,7.2529,7.1887,7.1526,7.1526,7.1526,7.1526,7.1515,7.006,6.935,0.0,0.0,0.0,0.0,0.0,0.0,0.0,0.0,0.0,0.0,0.0,0.0,0.0,0.0,0.0,5.4515,5.5872,5.7219,5.8461,5.8461,5.8444,5.8754,5.9995,6.1185,6.1997,6.2703,6.3462,6.422,6.5033,6.6033,6.7359,6.7601,6.829,6.9725,6.9897,6.9966,6.9966,7.0242,7.0346,7.0208,0.0,0.0,7.0415,7.0415,7.0415,7.0415,7.0415,7.0784,7.1361,7.1361,7.1725,7.2136,7.096,7.0591,7.0791,7.1548,7.1712,7.1695,7.2305,7.2485,7.2591,7.3333,7.3754,7.4057,7.436,7.4536,0.0,7.4867,7.4903,7.505,7.5689,7.6592,7.7472,7.8185,7.9103,7.9816,7.9816,8.0314,8.0755,8.0755,8.1305,8.1746,8.1746,8.0661,7.9716,7.9519,7.9668,7.9668,7.9254,7.9938,7.9949,7.8707,7.7802,7.6842,7.5768,7.4344,7.35,7.35,7.35,7.35,7.35,7.3341,7.3297,7.3297,7.3138,7.3071,7.3071,7.3071,7.3071,7.3037,7.1582,7.085,0.0,0.0,0.0,0.0,0.0,0.0,0.0,0.0,0.0,0.0,0.0,5.1564,0.0,0.0,5.5332,5.6764,5.786,5.8909,6.0047,6.084,6.1185,6.0806,6.1772,6.2737,6.3531,6.4308,6.5067,6.5807,6.6585,6.7517,6.8655,6.9069,6.9773,7.0912,7.0946,7.0946,7.0946,7.1346,7.1572,7.1544,7.1927,7.232,7.2695,7.2695,7.2925,7.3296,7.3296,7.3758,7.4492,7.4492,7.4716,7.4994,7.4655,7.3546,7.2189,7.2567,7.2726,7.2742,7.3141,7.3259,7.3377,7.4117,7.4337,7.4509,7.5254,7.5506,7.5689,7.6533,7.6754,7.6937,7.7745,7.8552,7.9271,7.969,8.0424,8.0991,8.0991,8.1305,8.1599,8.1599,8.1929,8.2186,8.2186,8.1525,8.0991,8.0991,8.0991,8.0991,8.0991,8.1342,8.118,8.0117,7.9497,7.8756,7.769,7.6261,7.5162,7.464,7.4593,7.4593,7.4593,7.4593,7.4593,7.4593,7.4593,7.4593,7.4593,7.4593,7.4886,7.5378,7.4681,7.3662,0.0,0.0,0.0,0.0,0.0,0.0,0.0,0.0,5.1126,5.1261,5.195,5.2926,5.4276,5.5519,5.7004,5.8996,5.9806,6.0565,6.1599,6.2806,6.3496,6.3204,6.3687,6.4289,6.4876,6.5654,6.6413,6.7152,6.7911,6.8739,6.969,7.0311,7.0967,7.1726,7.1705,7.1809,7.1939,7.2756,7.3221,7.3367,7.4142,7.4822,7.5493,7.5493,7.5814,7.6422,7.6605,7.7036,7.7663,7.781,7.7883,7.7865,7.7886,7.6319,7.4056,7.3716,7.3572,7.3572,7.3572,7.368,7.3926,7.453,7.4853,7.522,7.6417,7.6827,7.7084,7.8442,7.8809,7.8993,7.9633,8.0388,8.1012,8.1012,8.1599,8.2186,8.2186,8.2186,8.2186,8.2186,8.2186,8.2186,8.2186,8.2333,8.237,8.2223,8.2186,8.2186,8.2186,8.2186,8.1885,8.0982,8.0732,8.018,7.9083,7.8161,7.727,7.6404,7.6335,7.6335,7.6335,7.6137,7.5996,7.5996,7.5794,7.5709,7.5709,7.5709,7.6243,7.7314,7.7509,7.6533,4.7408,4.7974,4.9173,4.9107,4.9959,5.0777,0.0,0.0,5.2563,5.3242,5.4337,5.5659,5.7154,5.7584,5.822,5.984,6.0151,6.0944,6.3048,6.3496,6.4083,6.5378,6.5585,6.5688,6.5757,6.6447,6.7187,6.7911,6.8724,6.9794,7.1187,7.1325,7.1739,7.2554,7.2554,7.2894,7.3556,7.4402,7.5153,7.5829,7.6613,7.7043,7.7136,7.7136,7.7172,7.7316,7.8026,7.838,7.8505,7.9221,7.9519,7.9519,7.9526,7.9327,7.8839,7.7343,7.6779,7.6779,7.6779,7.7307,7.7961,7.8024,7.8532,7.9171,7.9307,7.9376,7.9449,7.9596,7.9669,7.9706,7.9779,8.0388,8.1012,8.1012,8.1599,8.2186,8.2186,8.2186,8.2186,8.2186,8.2186,8.2186,8.2186,8.281,8.303,8.2296,8.2186,8.2186,8.2186,8.2186,8.2154,8.2018,8.116,8.018,7.9083,7.8882,7.8761,7.8638,7.8638,7.8638,7.8638,7.765,7.7115,7.7115,7.6207,7.5709,7.5709,7.5709,7.6243,7.7314,7.8108,7.8436,5.1135,5.0838,5.0775,5.2135,5.3297,5.3836,5.2935,5.3912,5.4996,5.4843,5.5934,5.7288,5.8357,5.8909,5.9737,0.0,6.153,6.2151,6.3979,6.5026,6.5831,6.647,6.7734,6.8176,6.728,6.7896,6.8655,6.936,7.0173,7.0843,7.1463,7.2337,7.3003,7.3351,7.3795,7.4399,7.5187,7.5541,7.6346,7.7613,7.7937,7.8348,7.8799,7.8799,7.9053,7.9543,8.0358,8.0712,8.0728,8.1045,8.1211,8.1175,8.0681,8.0498,8.0351,7.9176,7.8736,7.8736,7.8736,7.8993,7.9302,7.9302,7.9522,7.9816,7.9816,7.9816,7.989,8.0351,8.0498,8.0608,8.1101,8.1452,8.1709,8.1709,8.1966,8.2333,8.281,8.292,8.303,8.3508,8.3581,8.3581,8.3581,8.3875,8.3985,8.3654,8.3581,8.3581,8.3581,8.3581,8.3581,8.3581,8.3208,8.2504,8.1433,8.1337,8.1048,8.043,8.039,8.039,8.039,7.9936,7.9684,7.9684,7.9234,7.9029,7.9029,7.9029,7.9578,8.0617,8.0992,8.1546,5.2449,5.2301,5.2253,5.4227,5.548,5.6022,5.5112,5.588,5.6702,5.6306,5.7271,5.8409,5.9185,5.9978,6.0944,6.2273,6.2687,6.3324,6.4807,6.6536,6.7646,6.7649,6.9656,7.0588,6.947,6.9703,7.0223,7.0986,7.1728,7.227,7.2498,7.3526,7.4325,7.4768,7.5143,7.5817,7.684,7.7074,7.7882,7.9282,7.95,7.9915,8.0477,8.0477,8.0755,8.1379,8.1929,8.2186,8.2186,8.2186,8.2186,8.215,8.1562,8.1342,8.1269,8.0697,8.0183,7.9816,7.9816,7.9963,8.0147,8.0147,8.0293,8.0477,8.0477,8.0477,8.0587,8.1158,8.1342,8.1525,8.2333,8.2517,8.259,8.281,8.2847,8.303,8.3601,8.3711,8.3895,8.4499,8.4609,8.4609,8.4609,8.4792,8.4939,8.4939,8.5123,8.5123,8.4646,8.4609,8.4609,8.4609,8.4609,8.4281,8.352,8.3466,8.3118,8.2323,8.2284,8.2284,8.2284,8.2009,8.1834,8.1834,8.1531,8.1387,8.1387,8.1387,8.1933,8.2989,8.3205,8.3901,4.9105,5.0577,5.2501,5.3513,5.4709,5.5823,5.6547,5.6771,5.7012,5.7702,5.8461,5.9219,6.0013,6.0771,6.153,6.2376,6.3082,6.4101,6.5654,6.781,6.9239,6.9238,7.1234,7.2619,0.0,7.1938,7.1833,7.2551,7.3359,7.418,7.4947,7.4974,7.567,7.7242,7.6546,7.6912,7.8503,7.9281,8.0116,8.0943,8.1713,8.2096,8.2113,8.2113,8.215,8.215,8.2186,8.2186,8.2186,8.2186,8.2186,8.2186,8.215,8.215,8.215,8.215,8.1138,7.9816,7.9816,8.0314,8.0975,8.0975,8.1489,8.2113,8.2113,8.2113,8.2113,8.215,8.215,8.2333,8.3161,8.3344,8.3564,8.4352,8.4535,8.4535,8.4572,8.4572,8.4572,8.4609,8.4609,8.4609,8.4609,8.5233,8.5747,8.5747,8.6444,8.6354,8.4792,8.4609,8.4609,8.4609,8.4609,8.4592,8.4539,8.4539,8.4558,8.4488,8.4488,8.4488,8.4488,8.3502,8.2951,8.2951,8.1949,8.1387,8.1387,8.1387,8.1933,8.3025,8.3783,8.4737,5.1514,5.2638,5.3631,5.5324,5.6432,5.7081,5.684,5.7978,5.884,5.8047,5.8806,5.977,6.029,6.0788,6.1595,6.3159,6.4353,6.5773,6.7852,6.967,7.0953,7.1494,7.3153,0.0,0.0,0.0,0.0,7.4162,7.4972,7.5543,7.5816,7.6823,7.7629,7.817,7.8441,7.9086,8.0193,8.0449,8.1004,8.1782,8.2076,8.2186,8.2186,8.2186,8.2186,8.2186,8.2186,8.2186,8.2186,8.2186,8.2186,8.2186,8.2186,8.2186,8.2186,8.2186,8.2186,8.2113,8.1562,8.1562,8.1782,8.1782,8.1966,8.2296,8.2847,8.2994,8.3104,8.3654,8.3801,8.3838,8.4132,8.4205,8.4278,8.4535,8.4609,8.4756,8.527,8.538,8.5563,8.6077,8.617,8.617,8.617,8.6407,8.6775,8.7325,8.7178,8.6794,8.6261,8.617,8.617,8.617,8.617,8.6407,8.6958,8.6995,8.7215,8.7748,8.7785,8.7545,8.6995,8.7154,8.6993,8.6445,8.6611,8.6698,8.6698,8.6698,8.6902,8.7231,8.7523,8.7831,5.3127,5.4003,5.4782,5.6706,5.7564,5.784,5.7633,5.8737,5.9564,5.8875,5.9444,6.0254,6.0791,6.1172,6.2021,6.399,6.5251,6.6865,6.9353,7.1206,7.2516,7.3046,7.4716,7.5831,0.0,0.0,0.0,7.5854,7.6587,7.718,7.7469,7.8466,7.9293,7.9876,8.0089,8.0608,8.1415,8.1415,8.1672,8.2186,8.2186,8.2186,8.2186,8.2186,8.2186,8.2223,8.2517,8.2627,8.2663,8.292,8.3067,8.3067,8.3067,8.3067,8.3067,8.3067,8.3398,8.3711,8.292,8.281,8.3067,8.3067,8.3067,8.3141,8.3675,8.3821,8.3931,8.4462,8.4609,8.4682,8.4939,8.5013,8.5086,8.538,8.5453,8.56,8.6114,8.6224,8.6481,8.7288,8.7435,8.7545,8.7822,8.7858,8.8042,8.8573,8.8189,8.7858,8.7858,8.7858,8.7858,8.7858,8.7858,8.8078,8.8573,8.8647,8.8849,8.9363,8.94,8.9179,8.8647,8.9143,8.9143,8.8647,8.9143,8.94,8.94,8.94,8.94,8.94,8.94,8.94,5.3836,5.4697,5.5937,5.7548,5.8012,5.8185,5.8874,5.9099,5.934,6.0151,6.0341,6.067,0.0,0.0,6.278,6.4799,6.5884,6.7467,7.0171,7.2509,7.3974,0.0,0.0,0.0,0.0,0.0,0.0,7.7642,7.8313,7.9052,7.9819,7.9901,8.0624,8.215,8.1452,8.1415,8.2186,8.2186,8.2186,8.2186,8.2186,8.2223,8.226,8.226,8.226,8.237,8.3141,8.3454,8.3528,8.4278,8.4609,8.4609,8.4609,8.4609,8.4609,8.4609,8.4646,8.4535,8.3785,8.4005,8.4609,8.4609,8.4609,8.4609,8.4646,8.4646,8.4682,8.4719,8.4719,8.4903,8.5637,8.5857,8.604,8.6811,8.6978,8.7014,8.7051,8.7051,8.7325,8.8096,8.828,8.85,8.9253,8.9436,8.9473,8.9473,8.951,8.9473,8.94,8.94,8.94,8.94,8.94,8.9436,8.9473,8.9473,8.9473,8.951,8.951,8.951,8.9473,8.951,8.951,8.9473,8.951,8.951,8.951,8.951,8.951,8.951,8.951,8.951,5.6403,5.7051,5.7497,5.8478,5.9185,5.9633,5.9718,6.0252,6.0912,6.1536,6.1015,6.0959,6.2758,6.2759,6.3385,6.6132,6.808,0.0,7.2588,7.4435,0.0,7.7235,0.0,7.8526,7.9137,7.9375,0.0,0.0,8.0255,8.0491,8.0694,8.1261,8.1799,8.2186,8.2003,8.2003,8.2186,8.2186,8.2186,8.2186,8.2186,8.2517,8.3087,8.3087,8.3434,8.3985,8.4205,8.4278,8.4315,8.4535,8.4609,8.4609,8.4609,8.4609,8.4609,8.4609,8.4976,8.5453,8.527,8.4939,8.4609,8.4609,8.4609,8.4719,8.5306,8.549,8.56,8.6224,8.6407,8.6427,8.6628,8.6701,8.6738,8.6941,8.6978,8.7178,8.7766,8.7876,8.8133,8.8923,8.9069,8.9143,8.9363,8.9913,9.028,9.028,9.0812,9.0776,8.9546,8.94,8.94,8.94,8.94,8.9657,9.0244,9.028,9.0555,9.1143,9.1179,9.0922,9.0317,9.0886,9.0922,9.0317,9.0886,9.1179,9.1179,9.1179,9.1179,9.1179,9.1179,9.1179,5.7515,5.815,5.8599,5.9357,6.0116,6.0618,6.0362,6.0701,6.1188,6.1667,6.1011,6.0971,6.2999,6.2933,6.3636,6.704,6.8968,7.102,7.3895,7.5315,7.6717,0.0,7.8589,0.0,8.0204,8.0314,8.0645,0.0,8.1195,8.1158,8.1525,8.1929,8.2186,8.2186,8.2186,8.2186,8.2186,8.2186,8.2186,8.2186,8.2553,8.2957,8.3418,8.3748,8.4168,8.4609,0.0,8.5123,8.5159,8.5527,8.5637,8.5637,8.5637,8.5637,8.5637,8.5637,8.593,8.6334,8.6334,8.604,8.5637,8.5637,8.5637,8.5747,8.6187,8.6334,8.6407,8.6867,8.6978,8.6978,8.6978,8.6978,8.7088,8.7435,8.7545,8.7766,8.8556,8.872,8.8959,8.9767,9.0207,9.0427,9.0427,9.0849,9.1143,9.1143,9.151,9.1473,9.0592,9.0427,9.0427,9.0427,9.0427,9.0629,9.1106,9.1143,9.1326,9.1767,9.1803,9.1583,9.1143,9.1546,9.1583,9.1143,9.1583,9.1803,9.1803,9.1803,9.1803,9.1803,9.217,9.2354,5.7874,5.8701,5.9495,6.0065,6.079,6.1293,6.0907,6.0768,6.0869,6.1341,6.087,6.0992,6.3086,6.3146,6.4122,6.7862,6.934,7.1194,7.4433,7.5579,7.6754,7.8552,7.8772,7.9396,8.1012,8.1158,8.1452,8.215,8.1562,8.1452,8.215,8.2186,8.2186,8.2186,8.2186,8.2186,8.2186,8.2296,8.237,8.237,8.3161,8.3601,8.3748,8.4462,8.4829,8.4976,8.5673,8.5967,8.6004,8.6701,8.6978,8.6978,8.6978,8.6978,8.6978,8.6978,8.6978,8.6978,8.6978,8.6978,8.6978,8.6978,8.6978,8.6978,8.6978,8.6978,8.6978,8.6978,8.6978,8.6978,8.6978,8.7088,8.7362,8.8023,8.828,8.8573,8.94,8.9657,8.9913,9.0629,9.1326,9.1803,9.1803,9.1803,9.1803,9.1803,9.1803,9.1803,9.1803,9.1803,9.1803,9.1803,9.1803,9.1803,9.1803,9.1803,9.184,9.195,9.195,9.2024,9.2134,9.2134,9.2134,9.2134,9.2134,9.2134,9.2134,9.2134,9.2134,9.2134,9.2905,9.3272,5.8754,5.9715,6.0576,6.0272,6.1103,6.1876,6.153,6.1064,6.1116,6.2578,6.1608,6.1554,6.4867,6.5272,6.6119,6.9254,7.1016,7.2695,7.4647,7.5579,7.6974,0.0,7.9596,8.022,8.1819,8.2003,0.0,0.0,8.2076,8.2039,8.2186,8.2186,8.2186,8.2186,8.2186,8.2186,8.2186,8.2847,8.3197,8.3197,8.4022,8.4756,8.538,8.5527,8.5967,8.6574,8.6738,0.0,8.6794,8.6941,8.6978,8.6978,8.6978,8.6978,8.6978,8.6978,8.6978,8.6978,8.6978,8.6978,8.6978,8.6978,8.6978,8.6978,8.6978,8.6978,8.6978,8.6978,8.6978,8.6978,8.6978,8.7509,8.8023,8.8169,8.872,8.94,9.0207,9.0922,9.1436,9.1546,9.1693,9.1803,9.1803,9.1803,9.1803,9.1803,9.1803,9.1803,9.1803,9.1803,9.1803,9.1803,9.1803,9.1803,9.1803,9.1803,9.2097,9.2831,9.2868,9.3161,9.3822,9.3859,9.3859,9.3859,9.3859,9.3859,9.3859,9.3859,9.3859,9.3859,9.4006,9.4079,5.8995,5.977,6.0598,6.0648,6.1756,6.2684,6.2049,0.0,6.2112,6.2118,6.1432,6.1572,6.3855,6.4173,6.4918,6.7373,6.9959,7.2072,7.3265,7.5327,7.7326,7.8993,7.9559,8.0257,8.1452,8.1929,8.2186,8.2186,8.2186,8.2186,8.2186,8.2186,8.2186,8.2186,8.2186,8.2406,8.281,8.3197,8.3601,8.4022,8.4829,8.5416,8.582,8.6224,8.6628,8.6978,8.6978,8.6978,8.6978,8.6978,8.6978,8.6978,8.6978,8.6978,8.6978,8.6978,8.6978,8.6978,8.6978,8.6978,8.7051,8.7509,8.7619,8.7619,8.7619,8.7895,8.8262,8.8262,8.8262,8.8152,8.7729,8.7912,8.8316,8.8702,8.9767,9.0739,9.1143,9.1546,9.1803,9.1803,9.1803,9.1803,9.1803,9.1803,9.1803,9.1803,9.1803,9.195,9.2427,9.2464,9.2464,9.2464,9.2464,9.2648,9.3051,9.3088,9.3272,9.3712,9.3712,9.3896,9.4263,9.4299,9.4299,9.4299,9.4299,9.4299,9.4299,9.4299,9.4299,9.4299,9.474,9.4923,5.8961,5.9685,6.0514,6.1206,6.2366,6.3263,6.2581,6.2806,6.275,6.1379,6.1093,6.1447,6.2522,6.2868,6.356,6.5323,6.808,7.0529,7.1887,7.4458,7.6787,7.8405,7.9302,0.0,8.0938,8.1746,0.0,8.2186,8.2186,8.2186,8.2186,8.2186,8.2186,8.2186,8.2186,8.259,8.3381,8.3564,8.4058,8.4866,8.5673,8.604,8.6077,8.6701,8.6978,8.6978,8.6978,8.6978,8.6978,8.6978,8.6978,8.6978,8.6978,8.6978,8.6978,8.6978,8.6978,8.6978,8.6978,8.6978,8.7088,8.7729,8.8059,8.8243,8.839,8.8886,8.94,8.94,8.94,8.9253,8.861,8.8463,8.861,8.9253,9.0501,9.1546,9.1546,9.1693,9.1803,9.1803,9.1803,9.1803,9.1803,9.1803,9.1803,9.1803,9.1803,9.2097,9.2978,9.3088,9.3235,9.3602,9.3455,9.3602,9.4226,9.4299,9.4373,9.4556,9.4556,9.463,9.4813,9.4813,9.4813,9.4813,9.4813,9.4813,9.4813,9.4813,9.4813,9.4813,9.5474,9.5749,5.8858,5.994,6.1124,6.197,6.2692,6.316,6.3275,0.0,6.2087,6.1272,6.1093,6.1447,6.2522,6.335,6.4274,6.5395,6.6497,6.8349,7.1638,7.2391,7.4083,7.8117,7.9302,0.0,8.0938,8.1746,8.2186,8.2186,8.2186,8.2186,8.2186,8.2186,8.2186,8.2186,8.2186,8.259,8.3381,8.4132,8.4903,8.571,8.6518,8.6885,8.6867,8.6978,8.6978,8.6978,8.6978,8.6978,0.0,8.6978,8.6978,8.6978,8.6978,8.6978,8.6978,8.6978,8.6978,8.6978,8.6978,8.6978,8.7014,8.7088,8.7619,8.8353,8.9069,8.9326,8.94,8.94,8.94,8.9363,8.9326,8.929,8.9326,8.9363,9.006,9.0702,9.0702,9.1289,9.1803,9.1803,9.1803,9.1803,9.1803,9.1803,9.1803,9.1803,9.1803,9.2097,9.2978,9.3088,9.3675,9.5125,9.463,9.4226,9.4299,9.4299,9.4593,9.5364,9.5382,9.5731,9.6465,9.6465,9.6465,9.6465,9.6465,9.6465,9.6465,9.6465,9.6465,9.6465,9.6575,9.6575,5.8858,5.9373,6.0176,6.1824,6.2749,6.3275,6.3299,0.0,6.3062,6.1432,6.1093,6.1245,6.1664,6.2015,6.2367,6.2683,6.4384,6.6548,6.9159,7.1311,7.3757,7.6744,7.8715,7.9743,7.958,8.1158,8.2186,8.2186,8.2186,8.2186,8.2186,8.2186,8.2186,8.2186,8.2663,8.3324,8.4115,8.4903,8.5747,8.6518,8.6831,8.6978,8.6978,8.6978,8.6978,8.6978,8.6978,8.6978,0.0,8.6978,8.6978,8.6978,8.6978,8.6978,8.6978,8.6978,8.6978,8.6978,8.6978,8.6978,8.7088,8.7582,8.7949,8.8353,8.9143,9.006,9.0849,9.0849,9.0849,9.0739,9.0244,8.9767,8.929,8.8776,8.929,8.9987,9.0501,9.0849,9.1216,9.1693,9.1803,9.1803,9.1803,9.1803,9.1803,9.1803,9.1803,9.2281,9.3639,9.3822,9.4446,9.6061,9.5511,9.5217,9.5694,9.5731,9.5878,9.6208,9.6208,9.6392,9.6685,9.6685,9.6685,9.6685,9.6685,9.6685,9.6685,9.6685,9.6685,9.6685,9.6685,9.6685,5.8977,5.9283,5.9857,6.2235,6.3006,6.326,0.0,0.0,6.338,6.1497,6.1093,6.1093,6.1093,6.1093,6.1064,6.0908,6.2993,6.5247,6.711,6.9978,7.2558,7.4461,7.6993,7.8338,7.7704,7.9993,8.1615,8.1819,8.1856,8.1929,8.2186,8.2186,8.2186,8.2186,8.2977,8.3785,8.4609,8.538,8.6187,8.6978,8.6978,8.6978,8.6978,8.6978,8.6978,8.6978,8.6978,8.6978,0.0,8.6978,8.6978,8.6978,8.6978,8.6978,8.6978,8.6978,8.6978,8.6978,8.6978,8.6978,8.7088,8.7655,8.8023,8.8316,8.8849,9.0188,9.1473,9.173,9.1803,9.162,9.0812,8.9987,8.9216,8.839,8.8647,8.9253,9.006,9.0445,9.0849,9.1657,9.1803,9.1803,9.1803,9.1803,9.1803,9.1803,9.1803,9.2391,9.4079,9.4299,9.4923,9.6539,9.6208,9.6098,9.6649,9.6685,9.6685,9.6685,9.6685,9.6685,9.6685,9.6685,9.6685,9.6685,9.6685,9.6685,9.6685,9.6685,9.6685,9.6685,9.6685,9.6685,5.9306,5.9969,6.067,6.3567,6.3473,6.3005,6.4114,6.3531,6.2421,6.131,6.1093,6.1093,6.1093,6.1093,6.1093,6.1093,6.2677,6.448,6.6078,6.8011,6.9756,7.1171,7.394,7.5671,7.5471,7.8096,8.0183,8.0938,8.1012,8.1379,8.215,8.2186,8.2186,8.2186,8.2977,8.3785,8.4609,8.538,8.6187,8.6978,8.6978,8.6978,8.6978,8.6978,8.6978,8.6978,8.6978,8.6978,0.0,8.6978,8.6978,8.6978,8.6978,8.6978,8.6978,8.6978,8.6978,8.6978,8.6978,8.6978,8.6978,8.7014,8.7545,8.8206,8.8206,8.9344,9.0776,9.1583,9.1803,9.162,9.0812,8.9987,8.9216,8.839,8.8206,8.8426,8.9253,9.0024,9.0849,9.1657,9.1803,9.1803,9.1803,9.1803,9.1803,9.1803,9.1803,9.2391,9.4079,9.4299,9.4923,9.6539,9.6685,9.6685,9.6685,9.6685,9.6685,9.6685,9.6685,9.6685,9.6685,9.6685,9.6685,9.6685,9.6685,9.6685,9.6685,9.6685,9.6685,9.6685,9.6685,9.6685,5.7535,5.8303,5.9148,6.1569,6.1922,6.1878,6.271,6.2633,6.2135,6.1266,6.1093,6.1093,6.1093,6.1093,6.1495,6.2681,6.3373,6.4564,6.6915,6.989,7.2226,7.3349,7.5974,7.7882,7.8363,7.8746,7.9286,8.0131,8.0681,8.1122,8.1379,8.1893,8.2443,8.2994,8.3801,8.4609,8.5416,8.6224,8.6738,8.6978,8.6978,8.6978,8.6978,8.6978,8.6978,8.6978,8.6978,8.6978,8.6978,8.6978,8.6978,8.6978,8.6978,8.6978,8.6978,8.6978,8.6978,8.6978,8.6978,8.6978,8.6978,8.6978,8.7161,8.7472,8.8023,8.9307,9.0776,9.1583,9.1803,9.162,9.0812,9.0391,8.9895,8.8536,8.8206,8.8426,8.9216,8.9583,9.017,9.1546,9.1803,9.1803,9.1803,9.1803,9.1803,9.1803,9.1803,9.2391,9.4079,9.4299,9.4923,9.6539,9.6685,9.6685,9.6685,9.6685,9.6685,9.6685,9.6685,9.6685,9.6685,9.6685,9.6685,9.6685,9.6685,9.6685,9.6685,9.6685,9.6685,9.6685,9.6685,9.6685,5.6815,5.7688,5.8517,6.0963,6.1251,0.0,6.2017,6.1874,6.1493,6.1185,6.1093,6.1093,6.1093,6.1093,6.1459,6.2558,6.3944,6.5397,6.6951,7.0598,7.3561,7.4806,7.6408,7.7793,7.8757,7.8405,7.8442,7.9302,7.98,8.0351,8.0975,8.1489,8.226,8.3344,8.4168,8.4976,8.5783,8.6591,8.6978,8.6978,8.6978,8.6978,8.6978,8.6978,8.6978,8.6978,8.6978,8.6978,0.0,8.6978,8.6978,8.6978,8.6978,8.6978,8.6978,8.6978,8.6978,8.6978,8.6978,8.6978,8.6978,8.6978,8.6978,8.7124,8.7949,8.9307,9.0776,9.1583,9.1803,9.1693,9.1179,9.0849,9.0372,8.9344,8.8647,8.85,8.962,8.962,8.9877,9.1473,9.1803,9.1803,9.1803,9.1803,9.1803,9.1803,9.1803,9.2391,9.4079,9.4299,9.4923,9.6539,9.6685,9.6685,9.6685,9.6685,9.6685,9.6685,9.6685,9.6685,9.6685,9.6685,9.6685,9.6685,9.6685,9.6685,9.6685,9.6685,9.6685,9.6685,9.6685,9.6685,0.0,5.7779,5.8521,6.13,6.1173,6.0665,6.1763,6.1254,0.0,6.0989,6.1078,6.1093,6.1093,6.1093,6.1144,6.1266,6.4389,6.6742,6.655,7.0526,7.4092,7.5713,7.5749,7.6047,7.7169,7.7289,7.7656,7.8442,7.8552,7.9286,8.0828,8.0975,8.1729,8.3344,8.4168,8.4976,8.5783,8.6591,8.6978,8.6978,8.6978,8.6978,8.6978,8.6978,8.6978,0.0,8.6978,8.6978,8.6978,8.6978,8.6978,8.6978,8.6978,8.6978,8.6978,8.6978,8.6978,8.6978,8.6978,8.6978,8.6978,8.6978,8.6978,8.7124,8.7949,8.9271,9.0702,9.1473,9.1767,9.1803,9.1803,9.1253,9.0665,9.0629,8.9417,8.8683,9.0188,8.9877,8.9767,9.14,9.1693,9.173,9.1803,9.1803,9.1803,9.1803,9.1803,9.2391,9.4079,9.4299,9.4923,9.6539,9.6685,9.6685,9.6685,9.6685,9.6685,9.6685,9.6685,9.6685,9.6685,9.6685,9.6685,9.6685,9.6685,9.6685,9.6685,9.6685,9.6685,9.6685,9.6685,9.6685,5.4431,0.0,5.7121,5.9228,5.9556,5.9485,0.0,6.0212,6.0313,6.0655,6.0914,6.1093,6.1093,6.1093,6.1575,6.3023,6.5257,6.7178,6.8371,7.2351,7.5813,7.7694,7.7877,7.7709,7.7347,7.7289,7.7399,7.7582,7.8222,7.9029,8.0036,8.0681,8.1729,8.3344,8.4168,8.4976,8.5783,8.6591,8.6978,8.6978,8.6978,8.6978,8.6978,8.6978,8.6978,8.6978,8.6978,8.6978,8.6978,8.6978,8.6978,8.6978,8.6978,8.6978,8.6978,8.6978,8.6978,8.6978,8.6978,8.6978,8.6978,8.6978,8.6978,8.7124,8.7949,8.8904,8.984,9.0665,9.1326,9.1803,9.1803,9.1657,9.1363,9.0739,8.984,8.9216,8.9583,8.9033,8.8977,9.0592,9.0886,9.1069,9.1693,9.1803,9.1803,9.1803,9.1803,9.2391,9.4079,9.4299,9.4923,9.6539,9.6685,9.6685,9.6685,9.6685,9.6685,9.6685,9.6685,9.6685,9.6685,9.6685,9.6685,9.6685,9.6685,9.6685,9.6685,9.6685,9.6685,9.6685,9.6685,9.6685,5.3296,5.467,5.6076,5.7747,5.8597,5.9064,5.9233,5.9681,6.0234,6.0605,6.0914,6.1093,6.1093,6.1093,6.1545,6.2919,6.5501,6.8668,7.2395,7.4535,7.6429,7.8374,7.8589,7.8259,7.7399,7.7289,7.7289,7.7289,7.7729,7.8516,7.9743,8.0204,8.1195,8.281,8.3654,8.4609,8.5783,8.6591,8.6978,8.6978,8.6978,8.6978,8.6978,8.6978,8.6978,8.6978,8.6978,8.6978,8.6978,8.6978,8.6978,8.6978,8.6978,8.6978,8.6978,8.6978,8.6978,8.6978,8.6978,8.6978,8.6978,8.6978,8.6978,8.7088,8.7509,8.8206,8.9069,9.0262,9.0922,9.1326,9.1693,9.1803,9.1693,9.1253,9.0555,8.995,8.995,8.9326,8.9124,9.0372,9.0592,9.0849,9.1657,9.1803,9.1803,9.1803,9.1803,9.2281,9.3565,9.4079,9.4777,9.6025,9.6502,9.6685,9.6685,9.6685,9.6685,9.6685,9.6685,9.6685,9.6685,9.6685,9.6685,9.6685,9.6685,9.6685,9.6685,9.6685,9.6685,9.6685,9.6685,9.6685,5.2858,5.4359,5.5905,5.692,5.8124,5.9047,5.8995,5.9582,6.0231,6.0651,6.0908,6.1093,6.1093,6.12,6.1536,6.2433,6.5977,7.0556,7.6149,7.634,7.6549,7.8191,7.8405,7.8112,7.7362,7.7289,7.7289,7.7289,7.7289,7.7986,7.9522,7.9743,8.0477,8.1966,8.292,8.4042,8.5416,8.6224,8.6701,8.6811,8.6811,8.6867,8.6978,8.6978,8.6978,8.6978,0.0,0.0,8.6978,8.6978,8.6978,8.6978,8.6978,8.6978,8.6978,8.6978,8.6978,8.6978,8.6978,8.6978,8.6978,8.6978,8.6978,8.6978,8.6978,8.7472,8.8316,8.9821,9.0408,9.0776,9.1436,9.1693,9.1803,9.1803,9.1179,9.0592,9.0592,8.9877,8.9473,9.0427,9.0501,9.0702,9.1657,9.1803,9.1803,9.1803,9.1803,9.2097,9.2978,9.3786,9.4593,9.5418,9.6208,9.6685,9.6685,9.6685,9.6685,9.6685,9.6685,9.6685,9.6685,9.6685,9.6685,9.6685,9.6685,9.6685,9.6685,9.6685,9.6685,9.6685,9.6685,9.6685,5.2832,5.5602,5.8032,5.7305,5.8187,5.9268,5.9233,5.9781,6.0294,6.0372,6.0757,6.1093,6.1093,6.1679,6.2448,6.3498,6.8041,7.2348,7.4895,7.6289,7.7169,7.7457,7.7509,7.7436,7.7326,7.7289,7.7289,7.7289,7.7289,7.7729,7.8736,7.9449,8.022,8.1158,8.261,8.3528,8.3748,8.4572,8.5306,8.5967,8.5967,8.6334,8.6978,8.6978,8.6978,8.6978,0.0,8.6978,8.6978,8.6978,8.6978,8.6978,8.6978,8.6978,8.6978,8.6978,8.6978,8.6978,8.6978,8.6978,8.6978,8.6978,8.6978,8.6978,8.6978,8.7088,8.7399,8.8316,8.9564,9.0629,9.0739,9.1289,9.1803,9.1803,9.1179,9.0592,9.0592,8.9454,8.883,9.0298,9.006,9.006,9.1546,9.1803,9.1803,9.1803,9.1803,9.2097,9.2978,9.3786,9.4593,9.5418,9.6208,9.6685,9.6685,9.6685,9.6685,9.6685,9.6685,9.6685,9.6685,9.6685,9.6685,9.6685,9.6685,9.6685,9.6685,9.6685,9.6685,9.6685,9.6685,9.6685,5.2485,5.4608,5.6809,5.7466,6.0241,6.2758,6.2507,6.3029,6.329,6.2348,6.2433,6.2367,6.1266,6.2221,6.4148,6.7193,6.9642,7.2197,7.5137,7.57,7.6166,7.72,7.7289,7.7289,7.7289,7.7289,7.7289,7.7289,7.7289,7.7693,7.8552,7.8956,7.9727,8.0975,8.1729,8.2333,8.2737,8.3104,8.3911,8.5159,8.5159,8.5563,8.6334,8.6334,8.6591,8.6978,0.0,8.6978,8.6978,8.6978,8.6978,8.6978,8.6978,8.6978,8.6978,8.6978,8.6978,8.6978,8.6978,8.6978,8.6978,8.6978,8.6978,8.6978,8.6978,8.6978,8.7088,8.7472,8.839,8.9491,9.0354,9.0886,9.1253,9.1693,9.151,9.1143,9.0702,8.9657,8.9179,9.0354,8.995,8.9913,9.151,9.1803,9.1803,9.1803,9.1803,9.195,9.2354,9.3125,9.3969,9.4777,9.5584,9.6245,9.6649,9.6685,9.6685,9.6685,9.6685,9.6685,9.6685,9.6685,9.6685,9.6685,9.6685,9.6685,9.6685,9.6685,9.6685,9.6685,9.6685,9.6685,5.2343,5.4087,5.6242,5.8284,6.1709,6.4598,6.4721,6.5269,6.5418,6.4082,6.4099,6.3775,6.1807,6.319,6.5821,6.9609,7.0905,7.2489,7.5409,7.5434,7.5702,7.7111,7.7289,7.7289,7.7289,7.7289,7.7289,7.7289,7.7289,7.7582,7.8259,7.8479,7.9176,8.0388,8.0608,8.1122,8.1893,8.1929,8.2737,8.4315,8.4315,8.4756,8.5527,8.571,8.6151,8.6738,8.6904,8.6978,8.6978,8.6978,8.6978,8.6978,8.6978,8.6978,8.6978,8.6978,8.6978,8.6978,8.6978,8.6978,8.6978,8.6978,8.6978,8.6978,8.6978,8.6978,8.6978,8.6978,8.7435,8.8243,8.9674,9.0335,9.0776,9.1363,9.1657,9.162,9.1033,9.0244,8.9913,9.0739,9.0207,9.0134,9.1546,9.1803,9.1803,9.1803,9.1803,9.1803,9.1803,9.2574,9.3345,9.3932,9.4923,9.5822,9.6649,9.6685,9.6685,9.6685,9.6685,9.6685,9.6685,9.6685,9.6685,9.6685,9.6685,9.6685,9.6685,9.6685,9.6685,9.6685,9.6685,9.6685,5.2749,5.5723,5.8904,6.0494,6.0913,6.1443,6.3285,6.3997,6.4231,6.4087,6.4853,6.4889,6.2918,6.4773,6.6939,6.8035,7.1771,7.4675,7.494,7.6209,7.7148,7.7273,7.7289,7.7289,7.7289,7.7289,7.7289,7.7289,7.7289,7.7326,7.7399,7.8148,7.8662,7.8772,7.9522,8.0293,8.1085,8.1085,8.1893,8.3491,8.3491,8.3895,8.4719,8.5453,8.5837,8.593,8.6701,8.6978,8.6978,8.6978,8.6978,8.6978,8.6978,8.6978,8.6978,8.6978,8.6978,8.6978,8.6978,8.6978,8.6978,8.6978,8.6978,8.6978,8.6978,8.6978,8.6978,8.6978,8.7014,8.7271,8.8169,8.9491,9.0629,9.0665,9.1253,9.1767,9.173,9.1069,9.0739,9.1546,9.1069,9.0812,9.1657,9.1803,9.1803,9.1803,9.1803,9.1803,9.1803,9.2574,9.3125,9.3198,9.4574,9.5822,9.6649,9.6685,9.6685,9.6685,9.6685,9.6685,9.6685,9.6685,9.6685,9.6685,9.6685,9.6685,9.6685,9.6685,9.6685,9.6685,9.6685,9.6685,5.2957,5.5723,5.8703,6.061,6.248,6.4376,6.6431,6.7379,6.748,6.6276,6.6313,6.6183,6.4744,6.715,6.9296,6.9099,7.2358,7.4903,7.4903,7.6298,7.7289,7.7289,7.7289,7.7289,7.7289,7.7289,7.7289,7.7289,7.7289,7.7289,7.7289,7.7619,7.8023,7.8589,7.8883,7.969,8.1012,8.1012,8.1562,8.2663,8.2663,8.3067,8.3858,8.4168,8.4866,8.582,8.6114,8.6554,8.6978,8.6978,8.6978,8.6978,8.6978,8.6978,8.6978,8.6978,8.6978,8.6978,8.6978,8.6978,8.6978,8.6978,8.6978,8.6978,8.6978,8.6978,8.6978,8.6978,8.6978,8.7215,8.7986,8.8647,8.9344,9.0372,9.0849,9.1179,9.1693,9.1179,9.0849,9.1657,9.1143,9.0849,9.1657,9.1803,9.1803,9.1803,9.1803,9.1803,9.1803,9.2097,9.2501,9.3051,9.4538,9.5602,9.5951,9.6428,9.6685,9.6685,9.6685,9.6685,9.6685,9.6685,9.6685,9.6685,9.6685,9.6685,9.6685,9.6685,9.6685,9.6685,9.6685,9.6685,5.3146,5.5417,5.8049,6.0609,6.3164,6.5641,6.7982,6.8935,6.8967,6.7639,6.7272,6.7146,6.6946,6.8874,7.0332,6.9785,7.2651,7.4903,7.4903,7.6298,7.7289,7.7289,7.7289,7.7289,7.7289,7.7289,7.7289,7.7289,7.7289,7.7289,7.7289,7.7289,7.7582,7.8185,7.8185,7.8846,8.0241,8.0498,8.1012,8.1819,8.2076,8.248,8.3014,8.3271,8.4005,8.5049,8.5306,8.5747,8.6244,8.6244,8.6407,8.6628,8.6628,8.6775,8.6978,8.6978,8.6978,8.6978,8.6978,8.6978,8.6978,8.6978,8.6978,8.6978,8.6978,8.6978,8.6978,8.6978,8.6978,8.7124,8.7692,8.8023,8.8536,8.9877,9.0427,9.0812,9.162,9.1363,9.1143,9.1693,9.1363,9.1143,9.1693,9.1803,9.1803,9.1803,9.1803,9.1803,9.1803,9.1803,9.2134,9.3015,9.4299,9.5217,9.5455,9.6245,9.6685,9.6685,9.6685,9.6685,9.6685,9.6685,9.6685,9.6685,9.6685,9.6685,9.6685,9.6685,9.6685,9.6685,9.6685,9.6685,5.3398,5.4988,5.7274,6.0719,6.2542,6.4211,6.7053,6.77,6.77,6.77,6.7447,6.7727,6.9369,6.9712,6.9748,6.9712,7.2651,7.4903,7.4903,7.6298,7.7289,7.7289,7.7289,7.7289,7.7289,7.7289,7.7289,7.7289,7.7289,7.7289,7.7289,7.7289,7.7289,7.7289,7.7289,7.7729,7.8589,7.9412,8.0204,8.1012,8.1819,8.2186,8.2223,8.303,8.3381,8.3454,8.4242,8.4609,8.4609,8.4609,8.5086,8.5783,8.58,8.6261,8.6978,8.6978,8.6978,8.6978,8.6978,8.6978,8.6978,8.6978,8.6978,8.6978,8.6978,8.6978,8.6978,8.6978,8.6978,8.6978,8.6978,8.7582,8.839,8.9216,8.9987,9.0812,9.162,9.1803,9.1803,9.1803,9.1803,9.1803,9.1803,9.1803,9.1803,9.1803,9.1803,9.1803,9.1803,9.1803,9.2134,9.3015,9.3822,9.4593,9.5418,9.6245,9.6685,9.6685,9.6685,9.6685,9.6685,9.6685,9.6685,9.6685,9.6685,9.6685,9.6685,9.6685,9.6685,9.6685,9.6685,9.6685,5.3213,5.6233,5.9487,6.0881,6.3876,6.6646,6.7523,6.77,6.7847,6.8421,6.938,6.9817,6.896,7.0807,7.1919,6.9996,7.2651,7.4903,7.4903,7.6298,7.7289,7.7289,7.7289,7.7289,7.7289,7.7289,7.7289,7.7289,7.7289,7.7289,7.7289,7.7289,7.7289,7.7289,7.7289,7.7729,7.8589,7.8846,7.9653,8.1012,8.1232,8.1636,8.2186,8.2443,8.2884,8.3418,8.3638,8.4078,8.4609,8.4609,8.4756,8.5013,8.5563,8.56,8.5453,8.6574,8.6628,8.6224,8.6794,8.6978,8.6978,8.6978,8.6978,8.6978,8.6978,8.6978,8.6978,8.6978,8.6978,8.6978,8.6978,8.7161,8.7582,8.8353,8.9179,8.9987,9.0776,9.14,9.1803,9.1803,9.1803,9.1803,9.1803,9.1803,9.1803,9.1803,9.1803,9.1803,9.1803,9.1803,9.1913,9.217,9.2941,9.3786,9.4593,9.5401,9.6098,9.6649,9.6685,9.6685,9.6685,9.6685,9.6685,9.6685,9.6685,9.6685,9.6685,9.6685,9.6685,9.6685,9.6685,9.6685,5.4072,5.7432,6.1087,6.2278,6.4724,6.6989,6.7573,6.7958,6.8385,6.9229,7.0389,7.103,7.0177,7.1793,7.2709,7.107,7.3113,7.4903,7.4903,7.6298,7.7289,7.7289,7.7289,7.7289,7.7289,7.7289,7.7289,7.7289,7.7289,7.7289,7.7289,7.7289,7.7289,7.7289,7.7289,7.7546,7.8075,7.8442,7.925,8.0534,8.0865,8.1415,8.2186,8.2186,8.2443,8.292,8.292,8.3214,8.3654,8.3654,8.3838,8.4168,8.4646,8.4756,8.4756,8.604,8.6224,8.593,8.6738,8.6978,8.6978,8.6978,8.6978,8.6978,8.6978,8.6978,8.6978,8.6978,8.6978,8.6978,8.6978,8.6978,8.7198,8.8023,8.8573,8.9143,8.995,9.0501,9.0849,9.0849,9.1106,9.1216,9.0922,9.1106,9.1326,9.1326,9.1583,9.1803,9.1803,9.1803,9.1803,9.1803,9.2574,9.3308,9.3786,9.485,9.5712,9.6208,9.6539,9.6685,9.6685,9.6685,9.6685,9.6685,9.6685,9.6685,9.6685,9.6685,9.6685,9.6685,9.6685,9.6685,5.5507,5.8488,6.2073,6.4207,6.5235,6.6058,6.7409,6.8385,6.9229,6.9963,7.072,7.1564,7.2349,7.2496,7.2532,7.2606,7.3891,7.494,7.5014,7.6335,7.7289,7.7289,7.7289,7.7289,7.7289,7.7289,7.7289,7.7289,7.7289,7.7289,7.7289,7.7289,7.7289,7.7289,7.7289,7.7289,7.7289,7.8112,7.8919,7.9816,8.0534,8.1342,8.2186,8.2186,8.2186,8.2186,8.2186,8.2186,8.2186,8.2186,8.2627,8.3308,8.3381,8.3785,8.4499,8.538,8.569,8.582,8.6628,8.6958,8.6978,8.6978,8.6978,8.6978,8.6978,8.6978,8.6978,8.6978,8.6978,8.6978,8.6978,8.6978,8.7161,8.7912,8.8133,8.839,8.9143,8.9363,8.94,8.94,8.9987,9.0244,8.9546,8.9987,9.0519,9.0592,9.1289,9.1803,9.1803,9.1803,9.1803,9.1803,9.2501,9.3015,9.3088,9.4446,9.5345,9.5492,9.6208,9.6612,9.6685,9.6685,9.6685,9.6685,9.6685,9.6685,9.6685,9.6685,9.6685,9.6685,9.6685,9.6685,5.5788,5.8858,6.2164,6.3303,6.5401,6.7295,6.7637,6.8802,6.9889,7.0073,7.072,7.1564,7.2349,7.2496,7.2716,7.334,7.4258,7.5124,7.5763,7.6665,7.7289,7.7289,7.7289,7.7289,7.7289,7.7289,7.7289,7.7289,7.7289,7.7289,7.7289,7.7289,7.7289,7.7289,7.7289,7.7289,7.7289,7.7509,7.8332,7.9816,8.0,8.0791,8.2186,8.2186,8.2186,8.2186,8.2186,8.2186,8.2186,8.2186,8.2296,8.2517,8.3161,8.3141,8.2884,8.4315,8.4866,8.4976,8.5783,8.6481,8.6978,8.6978,8.6978,8.6978,8.6978,8.6978,8.6978,8.6978,8.6978,8.6978,8.6978,8.6978,8.7014,8.7215,8.7729,8.8243,8.8426,8.8959,8.94,8.94,8.9546,8.9583,8.9436,8.9546,8.9877,9.0501,9.1289,9.1803,9.1803,9.1803,9.1803,9.1803,9.195,9.2354,9.3051,9.3418,9.4153,9.5418,9.5639,9.6061,9.6685,9.6685,9.6685,9.6685,9.6685,9.6685,9.6685,9.6685,9.6685,9.6685,9.6685,9.6685,5.6634,5.9464,6.2445,6.4302,6.6252,6.77,6.77,6.8949,7.011,7.011,7.1064,7.2004,7.2422,7.2496,7.2753,7.356,7.4368,7.516,7.5983,7.6775,7.7289,7.7289,7.7289,7.7289,7.7289,7.7289,7.7289,7.7289,7.7289,7.7289,7.7289,7.7289,7.7289,7.7289,7.7289,7.7289,7.7289,7.7289,7.7949,7.9229,7.9633,8.0661,8.2186,8.2186,8.2186,8.2186,8.2186,8.2186,8.2186,8.2186,8.2186,8.2223,8.2663,8.2553,8.2333,8.3581,8.4022,8.4132,8.4939,8.5747,8.6444,8.6444,8.6701,8.6978,8.6978,8.6978,8.6978,8.6978,8.6978,8.6978,8.6978,8.6978,8.6978,8.6978,8.7308,8.7619,8.7619,8.7932,8.8262,8.8262,8.8556,8.8702,8.8299,8.8556,8.9106,8.9877,9.0702,9.1363,9.173,9.1803,9.1803,9.1803,9.1803,9.1987,9.2427,9.2868,9.3455,9.4299,9.5051,9.5675,9.6098,9.6502,9.6685,9.6685,9.6685,9.6685,9.6685,9.6685,9.6685,9.6685,9.6685,9.6685,5.7546,6.021,6.3033,6.582,6.699,6.7517,6.7664,6.8949,7.011,7.011,7.1394,7.2496,7.2496,7.2496,7.2826,7.3744,7.4478,7.5234,7.6166,7.6885,7.7289,7.7289,7.7289,7.7289,7.7289,7.7289,7.7289,7.7289,7.7289,7.7289,7.7289,7.7289,7.7289,7.7289,7.7289,7.7289,7.7289,7.7289,7.7729,7.8589,7.9559,8.0771,8.2186,8.2186,8.2186,8.2186,8.2186,8.2186,8.2186,8.2186,8.2186,8.2186,8.2186,8.2186,8.226,8.2957,8.3271,8.3491,8.4168,8.5013,8.58,8.58,8.6334,8.6978,8.6978,8.6978,8.6978,8.6978,8.6978,8.6978,8.6978,8.6978,8.6978,8.6978,8.6978,8.6978,8.6978,8.6978,8.6978,8.6978,8.7545,8.7766,8.7088,8.7655,8.8463,8.929,9.006,9.0886,9.1693,9.1803,9.1803,9.1803,9.1803,9.1803,9.1803,9.2464,9.2941,9.3088,9.4354,9.5198,9.5492,9.6135,9.6575,9.6685,9.6685,9.6685,9.6685,9.6685,9.6685,9.6685,9.6685,9.6685,5.7931,6.1163,6.4233,6.6059,6.6586,6.6843,6.7554,6.8949,7.011,7.011,7.1394,7.2496,7.2496,7.2496,7.301,7.45,7.483,7.5417,7.6922,7.7252,7.7289,7.7289,7.7289,7.7289,7.7289,7.7289,7.7289,7.7289,7.7289,7.7289,7.7289,7.7289,7.7289,7.7289,7.7289,7.7289,7.7289,7.7289,7.7729,7.8626,8.0131,8.1305,8.2186,8.2186,8.2186,8.2186,8.2186,8.2186,8.2186,8.2186,8.2186,8.2186,8.2186,8.2186,8.2223,8.2333,8.281,8.3418,8.3528,8.4535,8.58,8.58,8.6334,8.6978,8.6978,8.6978,8.6978,8.6978,8.6978,8.6978,8.6978,8.6978,8.6978,8.6978,8.6978,8.6978,8.6978,8.6978,8.6978,8.6978,8.7088,8.7124,8.7014,8.7655,8.8463,8.929,9.006,9.0886,9.1693,9.1803,9.1803,9.1803,9.1803,9.1803,9.1803,9.1913,9.2281,9.3051,9.3308,9.4042,9.5418,9.5602,9.5988,9.6685,9.6685,9.6685,9.6685,9.6685,9.6685,9.6685,9.6685,9.6685,5.7894,6.1335,6.4286,6.4984,6.5815,6.6586,6.6953,6.8605,7.011,7.011,7.1394,7.2496,7.2496,7.2496,7.2899,7.4037,7.461,7.5307,7.6445,7.7032,7.7289,7.7289,7.7289,7.7289,7.7289,7.7289,7.7289,7.7289,7.7289,7.7289,7.7289,7.7289,7.7289,7.7289,7.7289,7.7289,7.7289,7.7289,7.7949,7.9302,7.9984,8.0975,8.2186,8.2186,8.2186,8.2186,8.2186,8.2186,8.2186,8.2186,8.2186,8.2186,8.2186,8.2186,8.2186,8.2186,8.2406,8.2737,8.2737,8.3508,8.4462,8.4462,8.5013,8.5747,8.6187,8.6334,8.6407,8.6867,8.6978,8.6978,8.6978,8.6978,8.6978,8.6978,8.6978,8.6978,8.6978,8.6978,8.6978,8.6978,8.6978,8.6978,8.6978,8.7271,8.7932,8.9216,8.9693,9.0391,9.1657,9.1803,9.1803,9.1803,9.1803,9.1803,9.1803,9.1803,9.195,9.2354,9.2831,9.3418,9.4153,9.5015,9.5675,9.6025,9.6465,9.6685,9.6685,9.6685,9.6685,9.6685,9.6685,9.6685,5.8178,6.1159,6.3675,6.4401,6.532,6.625,6.694,6.8495,6.9853,7.0073,7.1211,7.2275,7.2459,7.2496,7.2753,7.356,7.4368,7.516,7.5983,7.6775,7.7289,7.7289,7.7289,7.7289,7.7289,7.7289,7.7289,7.7289,7.7289,7.7289,7.7289,7.7289,7.7289,7.7289,7.7289,7.7289,7.7289,7.7289,7.8023,7.9522,7.9706,8.055,8.1893,8.2113,8.2186,8.2186,8.2186,8.2186,8.2186,8.2186,8.2186,8.2186,8.2186,8.2186,8.2186,8.2186,8.2186,8.2186,8.2186,8.2737,8.3381,8.3381,8.3931,8.4719,8.5306,8.549,8.56,8.6224,8.6407,8.6407,8.6407,8.6407,8.6427,8.6664,8.6701,8.6775,8.6941,8.6978,8.6978,8.6978,8.6978,8.6978,8.6978,8.6978,8.7491,8.8886,8.9253,8.9913,9.1326,9.1657,9.1803,9.1803,9.1803,9.1803,9.1803,9.1803,9.1803,9.1803,9.2391,9.2868,9.3088,9.4263,9.4997,9.518,9.5988,9.6502,9.6685,9.6685,9.6685,9.6685,9.6685,9.6685,5.923,6.0641,6.2479,6.5209,6.5391,6.5582,6.817,6.8848,6.9192,6.9926,7.077,7.16,7.2349,7.2496,7.2753,7.356,7.4368,7.516,7.5983,7.6775,7.7289,7.7289,7.7289,7.7289,7.7289,7.7289,7.7289,7.7289,7.7289,7.7289,7.7289,7.7289,7.7289,7.7289,7.7289,7.7289,7.7289,7.7289,7.7766,7.8662,7.9449,8.0257,8.1085,8.1856,8.2186,8.2186,8.2186,8.2186,8.2186,8.2186,8.2186,8.2186,8.2186,8.2186,8.2186,8.2186,8.2186,8.2186,8.2186,8.2737,8.3381,8.3381,8.3931,8.4609,8.4646,8.4646,8.4682,8.4719,8.4719,8.4719,8.4719,8.4719,8.4903,8.5673,8.5857,8.6077,8.6848,8.6978,8.6978,8.6978,8.6978,8.6978,8.6978,8.6978,8.7271,8.8133,8.8923,8.9693,9.0555,9.1326,9.1803,9.1803,9.1803,9.1803,9.1803,9.1803,9.1803,9.1803,9.184,9.2244,9.3088,9.3198,9.3565,9.4336,9.5144,9.5932,9.6685,9.6685,9.6685,9.6685,9.6685,9.6685,5.8733,5.991,6.1253,6.2382,6.4135,6.5683,6.6158,6.8042,6.9596,6.9376,7.0389,7.138,7.1674,7.2165,7.2606,7.2899,7.3597,7.4404,7.5212,7.6019,7.6702,7.7252,7.7289,7.7289,7.7289,7.7289,7.7289,7.7289,7.7289,7.7289,7.7289,7.7289,7.7289,7.7289,7.7289,7.7289,7.7289,7.7289,7.7729,7.8589,7.8883,7.9727,8.1012,8.1305,8.1709,8.2186,8.2186,8.2186,8.2186,8.2186,8.2186,8.2186,8.2186,8.2186,8.2186,8.2186,8.2186,8.2186,8.2186,8.237,8.2627,8.2627,8.281,8.3141,8.3675,8.3821,8.3931,8.4462,8.4609,8.4609,8.4609,8.4609,8.4682,8.4976,8.5416,8.5874,8.6151,8.6628,8.6978,8.6978,8.6978,8.6978,8.6978,8.6978,8.7455,8.8776,8.9216,8.9877,9.1216,9.162,9.1803,9.1803,9.1803,9.1803,9.1803,9.1803,9.1803,9.1803,9.1803,9.195,9.2244,9.2794,9.3235,9.3529,9.4336,9.5144,9.5951,9.6465,9.6685,9.6685,9.6685,9.6685,5.8296,5.9288,6.0352,6.091,6.2807,6.4634,6.5118,6.6843,6.8472,6.8798,6.9949,7.0977,7.1233,7.1967,7.2496,7.2496,7.3193,7.3964,7.4793,7.5579,7.6387,7.7215,7.7289,7.7289,7.7289,7.7289,7.7289,7.7289,7.7289,7.7289,7.7289,7.7289,7.7289,7.7289,7.7289,7.7289,7.7289,7.7289,7.7582,7.8185,7.8479,7.9176,8.0204,8.0755,8.1305,8.1819,8.2076,8.2186,8.2186,8.2186,8.2186,8.2186,8.2186,8.2186,8.2186,8.2186,8.2186,8.2186,8.2186,8.2186,8.2186,8.2186,8.2186,8.2296,8.2847,8.2994,8.3104,8.3654,8.3801,8.3801,8.3801,8.3985,8.4205,8.4205,8.4792,8.538,8.538,8.6261,8.6978,8.6978,8.6978,8.6978,8.6978,8.6978,8.7344,8.8445,8.9033,8.9803,9.0849,9.1473,9.1803,9.1803,9.1803,9.1803,9.1803,9.1803,9.1803,9.1803,9.1803,9.1803,9.1803,9.2354,9.2648,9.2648,9.3492,9.4153,9.4684,9.5768,9.6428,9.6685,9.6685,9.6685,0.0,0.0,0.0,6.1121,6.1529,6.2348,6.5254,6.5428,6.5678,6.8243,6.9486,7.033,7.1123,7.1931,7.2496,7.2496,7.3156,7.3927,7.4757,7.5542,7.635,7.7179,7.7252,7.7289,7.7289,7.7289,7.7289,7.7289,7.7289,7.7289,7.7289,7.7289,7.7289,7.7289,7.7289,7.7289,7.7289,7.7289,7.7289,7.7326,7.8148,7.8589,7.8662,8.0241,8.0975,8.1048,8.1819,8.2186,8.2186,8.2186,8.2186,8.2186,8.2186,8.2186,8.2186,8.2186,8.2186,8.2186,8.2186,8.2186,8.2186,8.2186,8.2186,8.2186,8.2186,8.2186,8.2186,8.2186,8.2186,8.2186,8.2186,8.2774,8.3344,8.3344,8.3985,8.4572,8.4572,8.582,8.6941,8.6941,8.6978,8.6978,8.6978,8.6978,8.7014,8.7014,8.8372,8.94,8.9436,9.0812,9.1803,9.1803,9.1803,9.1803,9.1803,9.1803,9.1803,9.1803,9.1803,9.1803,9.1803,9.1803,9.1803,9.1803,9.2648,9.3088,9.3088,9.4684,9.5878,9.6685,9.6685,9.6685,5.7394,0.0,0.0,0.0,0.0,0.0,6.1898,6.3939,6.582,6.5961,6.8188,7.0183,7.0403,7.1578,7.2496,7.2496,7.2679,7.312,7.3927,7.4221,7.4882,7.6276,7.6423,7.6665,7.7252,7.7289,7.7289,7.7289,7.7289,7.7289,7.7289,7.7289,7.7289,7.7289,7.7289,7.7289,7.7289,7.7289,7.7289,7.7289,7.7546,7.8002,7.8626,7.9066,7.991,8.1012,8.1232,8.1672,8.2186,8.2186,8.2186,8.2186,8.2186,8.2186,8.2186,8.2186,8.2186,8.2186,8.2186,8.2186,8.2186,8.2186,8.2186,8.2186,8.2186,8.2186,8.2186,8.2186,8.2186,8.2186,8.2186,8.237,8.2517,8.2517,8.3141,8.3711,8.3711,8.4535,8.5453,8.6004,8.6591,8.6978,8.6978,8.6978,8.7198,8.7766,8.8739,8.962,9.017,9.1179,9.1803,9.1803,9.1803,9.1803,9.1803,9.1803,9.1803,9.1803,9.1803,9.1803,9.1803,9.1803,9.1803,9.1803,9.2024,9.2464,9.3088,9.4116,9.5034,9.5859,9.6428,9.6685,0.0,0.0,0.0,0.0,0.0,0.0,6.1323,6.303,6.4822,6.6281,6.8715,7.0403,6.9706,7.1211,7.2386,7.2041,7.2004,7.2422,7.3523,7.3722,7.4147,7.5469,7.5909,7.6276,7.6738,7.7105,7.7289,7.7289,7.7289,7.7289,7.7289,7.7289,7.7289,7.7289,7.7289,7.7289,7.7289,7.7289,7.7289,7.7289,7.7289,7.7582,7.806,7.8442,7.9103,8.0021,8.0351,8.0975,8.1709,8.1709,8.1893,8.2186,8.2186,8.2186,8.2186,8.2186,8.2186,8.2186,8.2186,8.2186,8.2186,8.2186,8.2186,8.2186,8.2186,8.2186,8.2186,8.2186,8.2186,8.2186,8.2186,8.2186,8.2186,8.2186,8.2553,8.292,8.292,8.3544,8.4352,8.5123,8.5967,8.6518,8.6518,8.6775,8.7178,8.7619,8.839,8.9069,8.9528,9.0298,9.0922,9.1253,9.1289,9.1436,9.1767,9.1803,9.1803,9.1803,9.1803,9.1803,9.1803,9.1803,9.1803,9.1803,9.1803,9.206,9.2574,9.3382,9.4226,9.5034,9.5841,9.6208,0.0,0.0,0.0,0.0,0.0,0.0,6.1687,6.2028,6.2881,6.709,6.9338,7.0122,6.8765,7.0342,7.1625,7.0928,7.0979,7.1682,7.334,7.356,7.3854,7.4683,7.5395,7.5909,7.6093,7.6738,7.7215,7.7289,7.7289,7.7289,7.7289,7.7289,7.7289,7.7289,7.7289,7.7289,7.7289,7.7289,7.7289,7.7289,7.7289,7.7289,7.7326,7.8112,7.8516,7.8626,7.9376,8.0131,8.0865,8.0975,8.1489,8.2186,8.2186,8.2186,8.2186,8.2186,8.2186,8.2186,8.2186,8.2186,8.2186,8.2186,8.2186,8.2186,8.2186,8.2186,8.2186,8.2186,8.2186,8.2186,8.2186,8.2186,8.2186,8.2186,8.2186,8.2186,8.2186,8.2774,8.3471,8.4205,8.5049,8.5673,8.5673,8.6334,8.6885,8.6885,8.7619,8.8206,8.8206,8.8886,8.9693,9.0519,9.0592,9.0922,9.173,9.1803,9.1803,9.1803,9.1803,9.1803,9.1803,9.1803,9.1803,9.1803,9.1803,9.1803,9.1803,9.2684,9.3455,9.4189,9.4997,9.5364,0.0,0.0,0.0,0.0,0.0,0.0,5.7562,5.8785,6.0192,6.1745,6.4045,6.5834,6.6169,6.7164,6.7869,6.771,6.8968,7.0675,7.2467,7.2716,7.3046,7.3817,7.4074,7.4661,7.5983,7.624,7.6592,7.7252,7.7289,7.7289,7.7289,7.7289,7.7289,7.7289,7.7289,7.7289,7.7289,7.7289,7.7289,7.7289,7.7289,7.7289,7.7326,7.7472,7.7949,7.8589,7.8772,7.9286,8.0073,8.0718,8.1489,8.2186,8.2186,8.2186,8.2186,8.2186,8.2186,8.2186,8.2186,8.2186,8.2186,8.2186,8.2186,8.2186,8.2186,8.2186,8.2186,8.2186,8.2186,8.2186,8.2186,8.2186,8.2186,8.2186,8.2186,8.2186,8.2186,8.2333,8.248,8.2627,8.3838,8.4829,8.4829,8.549,8.604,8.604,8.7252,8.8206,8.8206,8.8886,8.9693,9.0519,9.0592,9.0922,9.173,9.1803,9.1803,9.1803,9.1803,9.1803,9.1803,9.1803,9.1803,9.1803,9.1803,9.1803,9.1803,9.2684,9.3198,9.3345,9.4153,9.452,0.0,0.0,0.0,5.6314,0.0,0.0,0.0,5.8807,5.9821,6.1971,6.3788,6.501,6.5018,6.6011,6.6664,6.6265,6.7455,6.9061,7.0836,7.1896,7.2642,7.3046,7.345,7.4001,7.4808,7.5616,7.6423,7.7252,7.7289,7.7289,7.7289,7.7289,7.7289,7.7289,7.7289,7.7289,7.7289,7.7289,7.7289,7.7289,7.7289,7.7289,7.7289,7.7289,7.7546,7.7949,7.7949,7.8442,7.9229,7.9653,8.0277,8.1101,8.1909,8.2186,8.2186,8.2186,8.2186,8.2186,8.2186,8.2186,8.2186,8.2186,8.2186,8.2186,8.2186,8.2186,8.2186,8.2186,8.2186,8.2186,8.2186,8.2186,8.2186,8.2186,8.2186,8.2186,8.2186,8.2186,8.2186,8.2186,8.2847,8.3544,8.3948,8.4682,8.5343,8.5764,8.6481,8.7142,8.7545,8.7932,8.8519,8.9307,8.9767,9.0317,9.1143,9.1583,9.1803,9.1803,9.1803,9.1803,9.1803,9.1803,9.1803,9.1803,9.1803,9.1803,9.1803,9.2244,9.2464,9.2464,9.3308,9.3712,0.0,0.0,0.0,0.0,0.0,5.6869,0.0,0.0,0.0,6.2671,6.392,6.4354,6.387,6.4809,6.5438,6.4629,6.5648,6.701,6.8189,7.0113,7.1684,7.2408,7.3083,7.3538,7.3685,7.5175,7.6387,7.7032,7.7215,7.7289,7.7289,7.7289,7.7289,7.7289,7.7289,7.7289,7.7289,7.7289,7.7289,7.7289,7.7289,7.7289,7.7289,7.7289,7.7289,7.7289,7.7289,7.7693,7.8369,7.8516,7.8993,7.9743,8.1342,8.1966,8.2003,8.215,8.2186,8.2186,8.2186,8.2186,8.2186,8.2186,8.2186,8.2186,8.2186,8.2186,8.2186,8.2186,8.2186,8.2186,8.2186,8.2186,8.2186,8.2186,8.2186,8.2186,8.2186,8.2186,8.2186,8.2186,8.2186,8.2406,8.3051,8.3838,8.4609,8.5233,8.5453,8.5857,8.6664,8.6775,8.7142,8.8096,8.8923,8.973,9.0537,9.1326,9.1803,9.1803,9.1803,9.1803,9.1803,9.1803,9.1803,9.1803,9.1803,9.1803,9.1803,9.1803,9.1803,9.1803,9.2537,9.2868,0.0,0.0,0.0,0.0,5.6092,0.0,0.0,0.0,5.7523,5.9038,0.0,6.0747,6.1354,0.0,0.0,6.066,6.2651,6.4129,6.3639,6.583,6.8714,7.2108,7.2569,7.2936,7.3634,7.5175,7.613,7.624,7.6885,7.7289,7.7289,7.7289,7.7289,7.7289,7.7289,7.7289,7.7289,7.7289,7.7289,7.7289,7.7289,7.7289,7.7289,7.7289,7.7289,7.7289,7.7289,7.7362,7.7509,7.8295,7.8662,7.8883,8.0498,8.1158,8.1232,8.1929,8.2186,8.2186,8.2186,8.2186,8.2186,8.2186,8.2186,8.2186,8.2186,8.2186,8.2186,8.2186,8.2186,8.2186,8.2186,8.2186,8.2186,8.2186,8.2186,8.2186,8.2186,8.2186,8.2186,8.2186,8.2186,8.2223,8.2333,8.2994,8.3564,8.3638,8.4278,8.5013,8.582,8.593,8.6518,8.8023,8.8923,8.973,9.0537,9.1326,9.1803,9.1803,9.1803,9.1803,9.1803,9.1803,9.1803,9.1803,9.1803,9.1803,9.1803,9.1803,9.1803,9.1803,9.1913,9.195,0.0,0.0,0.0,0.0,0.0,0.0,0.0,0.0,5.7548,0.0,0.0,0.0,0.0,0.0,0.0,0.0,6.1795,6.291,6.3407,6.4459,6.6006,6.824,6.891,7.0135,7.2541,7.4389,7.5784,7.6738,7.6665,7.6812,7.7289,7.7289,7.7289,7.7289,7.7289,7.7289,7.7289,7.7289,7.7289,7.7289,7.7289,7.7289,7.7289,7.7289,7.7289,7.7289,7.7289,7.7289,7.7326,7.7693,7.7839,7.7949,7.914,7.9874,8.0388,8.1195,8.1489,8.1562,8.2039,8.2186,8.2186,8.2186,8.2186,8.2186,8.2186,8.2186,8.2186,8.2186,8.2186,8.2186,8.2186,8.2186,8.2186,8.2186,8.2186,8.2186,8.2186,8.2186,8.2186,8.2186,8.2186,8.2186,8.2186,8.248,8.2884,8.3344,8.3675,8.4205,8.5013,8.549,8.604,8.6738,8.7949,8.905,8.984,9.0629,9.1289,9.1767,9.1803,9.1803,9.1803,9.1803,9.1803,9.1803,9.1803,9.1803,9.1803,9.1803,9.1803,9.1803,9.1803,9.1803,5.7681,0.0,0.0,0.0,0.0,0.0,0.0,0.0,0.0,0.0,0.0,0.0,0.0,0.0,0.0,0.0,0.0,6.1691,6.2363,6.2648,0.0,0.0,0.0,6.7745,7.0076,7.194,7.3698,7.5422,7.5202,7.5562,7.6922,7.6959,7.7069,7.7289,7.7289,7.7289,7.7289,7.7289,7.7289,7.7289,7.7289,7.7289,7.7289,7.7289,7.7289,7.7289,7.7289,7.7289,7.7289,7.7289,7.7289,7.7362,7.8002,7.8589,7.925,8.0277,8.0681,8.0791,8.1599,8.2003,8.2186,8.2186,8.2186,8.2186,8.2186,8.2186,8.2186,8.2186,8.2186,8.2186,8.2186,8.2186,8.2186,8.2186,8.2186,8.2186,8.2186,8.2186,8.2186,8.2186,8.2186,8.2186,8.2186,8.2186,8.2406,8.2977,8.3067,8.3344,8.4168,8.4792,8.5306,8.5764,8.7031,8.828,8.9326,9.0134,9.0959,9.173,9.1803,9.1803,9.1803,9.1803,9.1803,9.1803,9.1803,9.1803,9.1803,9.1803,9.1803,9.1803,9.1803,9.1803,0.0,0.0,0.0,5.7994,0.0,0.0,0.0,0.0,5.821,0.0,0.0,0.0,0.0,0.0,0.0,0.0,0.0,0.0,0.0,0.0,0.0,0.0,0.0,0.0,0.0,6.7251,6.9033,7.0953,7.1807,7.3388,7.6004,7.613,7.6497,7.7289,7.7289,7.7289,7.7289,7.7289,7.7289,7.7289,7.7289,7.7289,7.7289,7.7289,7.7289,7.7289,7.7289,7.7289,7.7289,7.7289,7.7289,7.7289,7.7326,7.7362,7.7582,7.9213,7.9853,7.9963,8.0755,8.1562,8.2186,8.2186,8.2186,8.2186,8.2186,8.2186,8.2186,8.2186,8.2186,8.2186,8.2186,8.2186,8.2186,8.2186,8.2186,8.2186,8.2186,8.2186,8.2186,8.2186,8.2186,8.2186,8.2186,8.2186,8.2186,8.2223,8.2223,8.2517,8.3344,8.3454,8.4058,8.5654,8.6554,8.7675,8.9253,9.0134,9.0959,9.173,9.1803,9.1803,9.1803,9.1803,9.1803,9.1803,9.1803,9.1803,9.1803,9.1803,9.1803,9.1803,9.1803,9.1803,0.0,0.0,6.4291,5.9747,0.0,0.0,0.0,0.0,0.0,0.0,0.0,0.0,0.0,0.0,0.0,0.0,0.0,0.0,0.0,0.0,0.0,0.0,0.0,0.0,0.0,0.0,6.9657,7.1355,7.2902,7.4151,7.5047,7.6262,7.6775,7.6533,7.7032,7.7289,7.7289,7.7289,7.7289,7.7289,7.7289,7.7289,7.7289,7.7289,7.7289,7.7289,7.7289,7.7289,7.7289,7.7289,7.7289,7.7289,7.7289,7.7289,7.7436,7.8589,7.8993,7.9103,7.991,8.0718,8.1415,8.1415,8.1782,8.2186,8.2186,8.2186,8.2186,8.2186,8.2186,8.2186,8.2186,8.2186,8.2186,8.2186,8.2186,8.2186,8.2186,8.2186,8.2186,8.2186,8.2186,8.2186,8.2186,8.2186,8.2186,8.2186,8.2186,8.2296,8.2553,8.3067,8.3601,8.4168,8.4939,8.6297,8.8426,9.0335,9.151,9.1767,9.1803,9.1803,9.1803,9.1803,9.1803,9.1803,9.1803,9.1803,9.1803,9.1803,9.1803,9.1803,9.1803,9.1803,6.3907,6.5938,0.0,6.2532,6.3478,0.0,6.022,0.0,0.0,0.0,0.0,0.0,0.0,0.0,0.0,0.0,0.0,0.0,0.0,5.7444,0.0,0.0,0.0,0.0,0.0,0.0,6.6864,6.9537,7.1303,7.2745,7.3882,7.5823,7.6885,7.6974,7.7179,7.7289,7.7289,7.7289,7.7289,7.7289,7.7289,7.7289,7.7289,7.7289,7.7289,7.7289,7.7289,7.7289,7.7289,7.7289,7.7289,7.7289,7.7289,7.7289,7.7362,7.7913,7.8332,7.8662,7.9176,7.991,8.0571,8.0571,8.1122,8.1782,8.1782,8.1966,8.226,8.2553,8.2406,8.226,8.2553,8.2406,8.2186,8.2186,8.2186,8.2186,8.2186,8.2186,8.2186,8.2186,8.2186,8.2186,8.2186,8.2186,8.2186,8.2186,8.2186,8.2186,8.2186,8.2663,8.3087,8.3381,8.3858,8.527,8.7986,9.0152,9.151,9.1767,9.1803,9.1803,9.1803,9.1803,9.195,9.2244,9.195,9.195,9.2244,9.195,9.1803,9.1803,9.1803,9.1803]}]]